     2.11           OBSERVATION DATA    G (GPS)             RINEX VERSION / TYPE
teqc 2010Oct21 OPUS Account 20111026 17:02:45UTC            PGM / RUN BY / DATE
B 1523                                                      MARKER NAME
1181                                                        MARKER NUMBER
CSMIDDLETON NGS                                             OBSERVER / AGENCY
0440103897 TRIMBLE 5700 1.04                                REC # / TYPE / VERS
12299603 TRM41249.00 NONE                                   ANT # / TYPE
  -745654.4951 -5506333.9762  3121015.1445                  APPROX POSITION XYZ
        1.9990        0.0000        0.0000                  ANTENNA: DELTA H/E/N
     1     1                                                WAVELENGTH FACT L1/2
     5    L1    L2    C1    P1    P2                        # / TYPES OF OBSERV
    15                                                      LEAP SECONDS
  2011     8     3     0     0   30.0000000     GPS         TIME OF FIRST OBS
                                                            END OF HEADER
 11  8  3  0  0 30.0000000  0  8G09G28G10G17G12G04G27G02
 -27877250.97657 -21705582.67655  22028501.6644                   22028499.9264
 -80051959.70757 -62364356.63155  22289579.2194                   22289577.3984
 -19946700.67457 -15526369.48054  22604762.3134                   22604762.6684
 -66378583.35558 -51706675.24556  21660855.2274                   21660853.2814
  -3960273.45856  -3070322.66553  24207706.9694                   24207706.4694
 -55090743.91358 -42909976.16357  19863958.2194                   19863956.4104
 -38728285.87257 -30162103.10555  22378082.5004                   22378081.2194
 -31934436.58958 -24867026.14056  21606695.3284                   21606692.0394
 11  8  3  0  1  0.0000000  0  8G09G28G10G17G12G04G27G02
 -27953167.68547 -21764738.56745  22014055.2114                   22014053.7584
 -80062771.92647 -62372781.78745  22287521.8594                   22287520.2734
 -20111652.32447 -15654903.12244  22573372.8364                   22573372.7504
 -66422171.38347 -51740639.93546  21652560.2894                   21652558.3054
  -4135413.85946  -3206795.63843  24174378.9064                   24174377.6414
 -55154852.08448 -42959930.56046  19851758.6884                   19851756.7934
 -38794459.81647 -30213667.23445  22365489.6094                   22365488.8324
 -32075995.51748 -24977331.73146  21579756.9694                   21579754.3874
 11  8  3  0  1 30.0000000  0  8G09G28G10G17G12G04G27G02
 -28028381.57547 -21823346.79045  21999742.6804                   21999741.7544
 -80073149.72847 -62380868.43145  22285547.0554                   22285545.4414
 -20276319.46547 -15783215.07944  22542037.8754                   22542036.8444
 -66465604.94447 -51774484.27846  21644295.3914                   21644293.7854
  -4310466.45346  -3343200.14643  24141067.6564                   24141066.4384
 -55218357.85248 -43009415.57347  19839673.6804                   19839671.6764
 -38860094.90147 -30264811.47745  22353000.2274                   22352999.0744
 -32217134.56248 -25087310.16246  21552899.5704                   21552896.0234
 11  8  3  0  2  0.0000000  0  8G09G28G10G17G12G04G27G02
 -28102891.55847 -21881406.54645  21985563.8364                   21985562.2234
 -80083091.90247 -62388615.62645  22283655.2034                   22283654.2624
 -20440696.81447 -15911301.20745  22510757.6174                   22510757.5084
 -66508882.39247 -51808206.98246  21636060.3674                   21636057.9804
  -4485427.40447  -3479533.29444  24107773.3134                   24107772.4144
 -55281260.61448 -43058430.70447  19827703.9384                   19827702.3754
 -38925190.30947 -30315535.19045  22340612.5234                   22340611.2034
 -32357851.59548 -25196959.75446  21526121.8134                   21526118.0944
 11  8  3  0  2 30.0000000  0  8G09G28G10G17G12G04G27G02
 -28176703.49147 -21938922.33945  21971517.7504                   21971516.4804
 -80092604.38347 -62396027.99345  22281845.1334                   22281843.8244
 -20604785.60247 -16039162.52245  22479532.6724                   22479532.4574
 -66552008.23847 -51841811.54246  21627853.1954                   21627851.4184
  -4660299.56847  -3615797.28144  24074496.5164                   24074494.7154
 -55343566.78848 -43106980.95646  19815847.3054                   19815845.2624
 -38989751.99547 -30365843.04345  22328326.6644                   22328326.2074
 -32498150.19048 -25306283.28146  21499423.6884                   21499420.6374
 11  8  3  0  3  0.0000000  0  8G09G28G10G17G12G04G27G02
 -28249819.16447 -21995895.58745  21957604.2894                   21957602.8834
 -80101688.38947 -62403106.49345  22280116.7584                   22280115.6684
 -20768583.63847 -16166797.25545  22448363.0704                   22448363.2154
 -66594983.36047 -51875298.64946  21619675.3054                   21619673.9774
  -4835082.20147  -3751991.50544  24041236.8984                   24041234.6254
 -55405278.49848 -43155068.00046  19804103.8754                   19804102.2734
 -39053781.92047 -30415736.51045  22316142.8984                   22316141.8954
 -32638030.78148 -25415281.10646  21472805.1414                   21472801.7974
 11  8  3  0  3 30.0000000  0  8G09G28G10G17G12G04G27G02
 -28322243.28647 -22052329.98345  21943822.5554                   21943821.1804
 -80110348.12947 -62409854.40645  22278468.8754                   22278467.7384
 -20932091.29647 -16294205.71245  22417248.0864                   22417247.5634
 -66637811.11248 -51908670.92846  21611525.6884                   21611523.7504
  -5009776.59647  -3888116.95644  24007993.4924                   24007992.6994
 -55466401.13548 -43202696.02846  19792472.8134                   19792470.6914
 -39117284.79247 -30465219.27645  22304058.8914                   22304057.3204
 -32777496.29748 -25523955.48646  21446266.1954                   21446263.3324
 11  8  3  0  4  0.0000000  0  8G09G28G10G17G12G04G27G02
 -28393977.42747 -22108226.72145  21930171.5084                   21930170.8594
 -80118585.48347 -62416273.17245  22276901.0784                   22276899.8954
 -21095306.01747 -16421385.90544  22386189.6094                   22386189.3794
 -66680492.49147 -51941929.14946  21603403.6564                   21603401.7424
  -5184382.06847  -4024173.11244  23974766.9384                   23974765.0824
 -55526936.89248 -43249866.73447  19780952.8984                   19780951.6214
 -39180262.49747 -30514292.83445  22292074.4304                   22292072.7974
 -32916546.89048 -25632306.56146  21419805.4534                   21419802.3674
 11  8  3  0  4 30.0000000  0  8G09G28G10G17G12G04G27G02
 -26889597.69147 -20935982.77545  22216446.0634                   22216444.5164
 -78550978.10747 -61194760.98845  22575207.3134                   22575205.7304
 -19682796.37447 -15320728.97345  22654981.3134                   22654981.6454
 -65147603.55947 -50747470.24246  21895102.7424                   21895100.9884
  -3783468.26647  -2932551.89144  24241352.0864                   24241350.9494
 -54011462.58748 -42068977.66747  20069338.2504                   20069336.4534
 -37667291.90647 -29335354.73945  22579982.8594                   22579982.4924
 -31479754.34448 -24512727.90746  21693217.9304                   21693214.3324
 11  8  3  0  5  0.0000000  0  8G09G28G10G17G12G04G27G02
 -26959945.24847 -20990799.06845  22203058.9924                   22203058.2074
 -78558362.63347 -61200515.20745  22573802.0554                   22573800.2154
 -19845405.49947 -15447437.28645  22624038.0474                   22624037.5314
 -65189982.28048 -50780492.62546  21887038.3284                   21887036.1724
  -3957880.09947  -3068457.14344  24208161.6644                   24208160.6844
 -54070819.41048 -42115229.73747  20058043.5234                   20058041.6134
 -37729213.63947 -29383605.46345  22568198.9694                   22568199.1454
 -31617962.65248 -24620422.65546  21666917.8984                   21666914.6954
 11  8  3  0  5 30.0000000  0  8G09G28G10G17G12G04G27G02
 -27029596.55947 -21045072.82545  22189804.8524                   22189803.3754
 -78565317.59447 -61205934.72044  22572478.1564                   22572476.3874
 -20007702.34047 -15573902.27145  22593153.8444                   22593153.0554
 -65232205.04148 -50813393.48846  21879003.7344                   21879001.6844
  -4132187.88747  -3204281.34644  24174992.6254                   24174991.4384
 -54129584.38248 -42161020.60147  20046860.8284                   20046858.4654
 -37790604.34847 -29431442.41245  22556517.8054                   22556516.7424
 -31755744.49748 -24727785.08246  21640698.7894                   21640695.3524
 11  8  3  0  6  0.0000000  0  8G09G28G10G17G12G04G27G02
 -27098554.85847 -21098806.58845  22176682.4774                   22176681.1294
 -78571846.08447 -61211021.88845  22571236.6414                   22571235.3244
 -20169685.87747 -15700123.11444  22562329.0944                   22562328.5664
 -65274274.17648 -50846174.65246  21870998.1564                   21870996.5354
  -4306391.90347  -3340024.66944  24141842.8134                   24141841.2814
 -54187761.61148 -42206353.51846  20035789.6024                   20035788.2464
 -37851467.64547 -29478868.37245  22544935.3674                   22544934.5634
 -31893101.47648 -24834816.44646  21614560.1954                   21614556.9184
 11  8  3  0  6 30.0000000  0  8G09G28G10G17G12G04G27G02
 -27166815.56247 -21151996.74545  22163692.8134                   22163691.8364
 -78577943.23247 -61215772.97145  22570075.7034                   22570074.3754
 -20331347.06847 -15826092.79344  22531566.4844                   22531565.4534
 -65316183.68147 -50878831.41746  21863023.0784                   21863020.7304
  -4480484.46946  -3475681.14044  24108713.8054                   24108712.3364
 -54245346.95448 -42251225.20147  20024831.7664                   20024829.8054
 -37911799.21647 -29525880.03145  22533454.4844                   22533453.9104
 -32030027.27648 -24941511.83346  21588504.2664                   21588501.6134
 11  8  3  0  7  0.0000000  0  8G09G28G10G17G12G04G27G02
 -27234384.59947 -21204647.95845  22150835.0704                   22150834.3134
 -78583614.31547 -61220192.05344  22568997.2034                   22568995.4024
 -20492687.29347 -15951812.35345  22500864.0004                   22500863.9694
 -65357938.35647 -50911367.54246  21855077.2894                   21855075.3984
  -4654468.40647  -3611252.93844  24075605.6644                   24075604.6134
 -54302346.61748 -42295640.52146  20013984.9534                   20013983.2194
 -37971604.91147 -29572481.86845  22522074.3284                   22522073.0744
 -32166525.78848 -25047874.27146  21562529.6024                   21562525.9454
 11  8  3  0  7 30.0000000  0  8G09G28G10G17G12G04G27G02
 -27301262.01547 -21256760.23945  22138109.0004                   22138107.9454
 -78588859.46747 -61224279.24545  22567998.9534                   22567997.3054
 -20653702.51447 -16077278.67845  22470223.5704                   22470223.7114
 -65399536.92447 -50943782.02046  21847161.4454                   21847159.6454
  -4828340.77547  -3746737.81144  24042519.3204                   24042516.8834
 -54358761.38348 -42339600.07546  20003249.5234                   20003247.6994
 -38030884.99147 -29618674.18045  22510794.1484                   22510792.5864
 -32302595.49048 -25153902.56146  21536636.5314                   21536632.3324
 11  8  3  0  8  0.0000000  0  8G09G28G10G17G12G04G27G02
 -27367452.59147 -21308337.33345  22125513.1564                   22125511.9924
 -78593683.11947 -61228037.98444  22567080.8754                   22567078.9694
 -20814393.06047 -16202491.99345  22439645.3444                   22439644.5944
 -65440983.04247 -50976077.69846  21839274.7734                   21839273.0234
  -5002103.22046  -3882137.03644  24009452.7894                   24009451.6884
 -54414596.42448 -42383107.89346  19992624.7664                   19992622.9224
 -38089644.47047 -29664460.80645  22499611.9224                   22499610.5784
 -32438239.53848 -25259599.18546  21510824.2344                   21510820.4774
 11  8  3  0  8 30.0000000  0  8G09G28G10G17G12G04G27G02
 -27432950.73647 -21359374.86345  22113049.4304                   22113048.2504
 -78598079.43347 -61231463.73944  22566244.0944                   22566242.8094
 -20974748.64547 -16327444.33145  22409130.5864                   22409130.3204
 -65482269.91747 -51008249.30046  21831417.8524                   21831416.0354
  -5175747.14246  -4017443.86844  23976409.3524                   23976408.4224
 -54469846.78048 -42426160.11246  19982110.6884                   19982108.9774
 -38147877.86247 -29709837.49945  22488530.7974                   22488529.4614
 -32573450.57148 -25364958.39646  21485094.1254                   21485091.5234
 11  8  3  0  9  0.0000000  0  8G09G28G10G17G12G04G27G02
 -27497758.37747 -21409874.34645  22100716.7274                   22100715.6844
 -78602049.58447 -61234557.41344  22565488.3984                   22565486.6094
 -21134766.40347 -16452133.38945  22378679.9304                   22378679.6414
 -65523397.99747 -51040297.16746  21823591.8284                   21823589.7544
  -5349270.87047  -4152657.09244  23943389.4064                   23943387.9534
 -54524514.64748 -42468758.44346  19971707.9774                   19971705.9144
 -38205586.93947 -29754805.65345  22477548.6414                   22477548.2074
 -32708228.58448 -25469980.16846  21459446.8834                   21459443.8284
 11  8  3  0  9 30.0000000  0  8G09G28G10G17G12G04G27G02
 -27561885.06247 -21459843.18445  22088513.5394                   22088512.9924
 -78605602.99347 -61237326.35744  22564812.9924                   22564811.5704
 -21294451.38347 -16576563.15945  22348293.1094                   22348292.4264
 -65564375.39447 -51072227.62846  21815794.0164                   21815791.5434
  -5522680.96646  -4287781.76044  23910389.9454                   23910388.5824
 -54578609.96748 -42510910.63046  19961413.3054                   19961411.4654
 -38262781.31547 -29799372.70845  22466665.2034                   22466663.9024
 -32842581.01348 -25574670.32746  21433880.4454                   21433877.3404
 11  8  3  0 10  0.0000000  0  8G09G28G10G17G12G04G27G02
 -27625326.36347 -21509277.97745  22076441.5234                   22076440.2544
 -78608734.97247 -61239766.94444  22564216.8834                   22564214.7774
 -21453794.81347 -16700726.80045  22317971.1644                   22317970.6644
 -65605196.50447 -51104036.30046  21808026.0234                   21808023.7704
  -5695969.56546  -4422811.73744  23877413.9304                   23877412.7114
 -54632128.70848 -42552613.54746  19951229.7274                   19951228.2704
 -38319456.97147 -29843535.60345  22455880.3594                   22455879.4144
 -32976502.03048 -25679024.32646  21408396.2734                   21408392.6334
 11  8  3  0 10 30.0000000  0  8G09G28G10G17G12G04G27G02
 -27688085.92747 -21558181.53645  22064498.6334                   22064497.0204
 -78611448.52047 -61241881.46044  22563700.6724                   22563698.9694
 -21612795.29047 -16824623.19045  22287714.1644                   22287713.7424
 -65645863.15747 -51135724.60546  21800287.0164                   21800284.9534
  -5869137.28446  -4557747.56944  23844461.0004                   23844459.8914
 -54685075.04248 -42593870.42046  19941153.9924                   19941152.4844
 -38375617.44847 -29887297.04245  22445192.9534                   22445192.5984
 -33109993.02448 -25783043.24846  21382993.4774                   21382989.8364
 11  8  3  0 11  0.0000000  0  8G09G28G10G17G12G04G27G02
 -27750167.93147 -21606557.14445  22052684.8134                   22052683.5634
 -78613747.39447 -61243672.83744  22563263.1414                   22563262.1024
 -21771452.77547 -16948252.31745  22257522.4384                   22257522.2704
 -65686378.04847 -51167294.68046  21792577.3754                   21792575.8164
  -6042184.80946  -4692589.69444  23811531.4224                   23811529.4694
 -54737453.45148 -42634684.76146  19931186.4844                   19931185.0044
 -38431267.08247 -29930660.41745  22434603.6174                   22434603.3714
 -33243056.47948 -25886728.99846  21357672.6174                   21357669.2194
 11  8  3  0 11 30.0000000  0  8G09G28G10G17G12G04G27G02
 -27811575.90547 -21654407.52545  22040999.2584                   22040997.9804
 -78615634.78347 -61245143.59344  22562904.0784                   22562901.9454
 -21929765.91947 -17071613.13045  22227396.0864                   22227395.8714
 -65726743.63447 -51198748.39946  21784896.3524                   21784894.3914
  -6215112.25447  -4827338.29744  23778624.8134                   23778622.5394
 -54789267.92348 -42675059.66046  19921326.7584                   19921324.7504
 -38486409.60747 -29973628.63945  22424110.5554                   22424109.7344
 -33375694.24948 -25990083.06646  21332432.1254                   21332428.6134
 11  8  3  0 12  0.0000000  0  8G09G28G10G17G12G04G27G02
 -27872314.75247 -21701736.49945  22029440.9694                   22029440.3914
 -78617115.40947 -61246297.36644  22562622.0394                   22562620.8484
 -22087734.85547 -17194705.73345  22197335.9774                   22197335.1724
 -65766962.69747 -51230087.93046  21777242.5164                   21777240.6914
  -6387920.89847  -4961994.29444  23745739.6954                   23745738.1564
 -54840523.51148 -42714999.07646  19911573.1414                   19911571.4384
 -38541049.66547 -30016205.34345  22413712.9144                   22413711.5984
 -33507908.92248 -26093107.44046  21307272.4774                   21307269.1954
 11  8  3  0 12 30.0000000  0  8G09G28G10G17G12G04G27G02
 -27932390.44047 -21748548.75045  22018008.9774                   22018008.3284
 -78618194.63747 -61247138.42944  22562417.2194                   22562416.7854
 -22245361.24047 -17317531.39645  22167340.5164                   22167339.5984
 -65807040.14247 -51261317.11646  21769616.0474                   21769614.6724
  -6560613.35247  -5096559.80444  23712877.7974                   23712876.1644
 -54891226.76048 -42754508.09346  19901924.5004                   19901922.6214
 -38595193.33247 -30058395.24045  22403408.7504                   22403408.4344
 -33639704.76848 -26195805.45646  21282192.8914                   21282188.9414
 11  8  3  0 13  0.0000000  0  8G09G28G10G17G12G04G27G02
 -27991802.88347 -21794844.18145  22006703.1254                   22006702.0164
 -78618871.76647 -61247666.10844  22562288.8284                   22562288.0594
 -22402639.94247 -17440086.15145  22137411.5234                   22137410.5944
 -65846973.81947 -51292434.29946  21762016.6414                   21762015.4344
  -6733185.76747  -5231031.79844  23680038.5554                   23680036.0904
 -54941377.85948 -42793586.85946  19892381.2734                   19892379.3404
 -38648840.41947 -30100198.21345  22393200.7114                   22393199.7234
 -33771079.65948 -26298175.46246  21257192.9224                   21257189.3364
 11  8  3  0 13 30.0000000  0  8G09G28G10G17G12G04G27G02
 -28050554.86347 -21840624.95145  21995523.0864                   21995522.4534
 -78619148.79047 -61247882.06144  22562235.5234                   22562235.2584
 -22559568.78247 -17562368.26745  22107548.7814                   22107547.7704
 -65886764.64547 -51323440.14346  21754445.0554                   21754443.2034
  -6905637.49747  -5365409.72144  23647221.7664                   23647220.9574
 -54990979.42148 -42832237.41746  19882942.2584                   19882940.4884
 -38701993.57247 -30141616.27745  22383086.4224                   22383085.0664
 -33902034.23248 -26400217.94346  21232273.0164                   21232269.3484
 11  8  3  0 14  0.0000000  0  8G09G28G10G17G12G04G27G02
 -28108650.06647 -21885893.96245  21984468.1334                   21984467.4534
 -78619029.50747 -61247789.20045  22562258.4534                   22562257.5434
 -22716146.93947 -17684377.12845  22077752.7114                   22077752.1094
 -65926415.05447 -51354336.60646  21746900.1804                   21746898.2814
  -7077968.70447  -5499693.71144  23614428.3594                   23614425.9924
 -55040036.02048 -42870463.32746  19873607.2974                   19873605.6374
 -38754656.88947 -30182652.65945  22373065.0554                   22373063.4964
 -34032570.42648 -26501934.40946  21207432.6564                   21207428.7814
 11  8  3  0 14 30.0000000  0  8G09G28G10G17G12G04G27G02
 -26590672.09347 -20703053.99745  22273330.0314                   22273329.2814
 -77043098.90447 -60019791.41344  22862148.3134                   22862146.9144
 -21296949.66947 -16578509.04445  22347817.0784                   22347816.8134
 -64390507.33947 -50157525.39746  22039173.5004                   22039171.8794
  -5674755.72247  -4406280.93544  23881450.0474                   23881449.1024
 -53513131.86648 -41680667.87246  20164167.2504                   20164165.4224
 -37231414.23547 -28995710.37045  22662928.3134                   22662927.9104
 -32587267.50648 -25375724.30646  21482464.8834                   21482461.0634
 11  8  3  0 15  0.0000000  0  8G09G28G10G17G12G04G27G02
 -26647463.56647 -20747307.12445  22262522.3834                   22262521.3324
 -77042194.89247 -60019087.07145  22862320.5314                   22862319.7934
 -21452821.69747 -16699967.67545  22318155.3914                   22318154.8014
 -64429881.29147 -50188206.42646  22031681.1724                   22031679.1254
  -5846844.86347  -4540376.34944  23848702.8054                   23848701.3874
 -53561109.10448 -41718052.73446  20155037.7974                   20155035.8014
 -37283107.66247 -29035990.99945  22653090.9844                   22653090.3014
 -32716970.93248 -25476791.86846  21457782.6484                   21457779.5634
 11  8  3  0 15 30.0000000  0  8G09G28G10G17G12G04G27G02
 -26703608.92947 -20791056.78245  22251838.4774                   22251837.5314
 -77040903.46247 -60018080.87744  22862566.0704                   22862565.5784
 -21608339.01447 -16821149.90745  22288561.4924                   22288560.9304
 -64469120.27147 -50218782.26846  22024214.4144                   22024212.4184
  -6018813.28747  -4674377.66344  23815978.9534                   23815977.0904
 -53608552.80948 -41755021.85146  20146009.2814                   20146007.3754
 -37334321.63447 -29075898.02045  22643345.6174                   22643345.2974
 -32846260.59848 -25577537.02746  21433179.5704                   21433175.7774
 11  8  3  0 16  0.0000000  0  8G09G28G10G17G12G04G27G02
 -26759112.94847 -20834306.68345  22241276.0634                   22241275.3244
 -77039228.76647 -60016775.98344  22862884.7974                   22862883.7624
 -21763501.82447 -16942055.91045  22259034.5474                   22259033.7704
 -64508226.80248 -50249254.91846  22016772.3984                   22016770.7934
  -6190661.73046  -4808285.51144  23783276.8204                   23783275.6374
 -53655467.70148 -41791578.89147  20137081.6334                   20137079.8984
 -37385060.82647 -29115435.08945  22633690.4844                   22633689.7544
 -32975139.30048 -25677961.95046  21408654.9614                   21408651.5084
 11  8  3  0 16 30.0000000  0  8G09G28G10G17G12G04G27G02
 -26813982.84547 -20877062.45845  22230835.1254                   22230833.9534
 -77037177.81047 -60015177.93244  22863275.0004                   22863274.2154
 -21918312.16447 -17062687.27745  22229575.0314                   22229574.4104
 -64547206.63047 -50279628.84446  22009354.6884                   22009352.6764
  -6362393.86147  -4942102.69544  23750597.3444                   23750595.7384
 -53701861.69548 -41827730.05846  20128253.5634                   20128250.9494
 -37435332.67247 -29154607.97445  22624123.9144                   22624122.9844
 -33103612.32648 -25778070.76146  21384207.3984                   21384203.2624
 11  8  3  0 17  0.0000000  0  8G09G28G10G17G12G04G27G02
 -26868213.30547 -20919320.00245  22220515.5864                   22220513.7194
 -77034744.27047 -60013281.75244  22863738.6094                   22863737.3054
 -22072759.68047 -17183035.93745  22200185.0634                   22200183.9064
 -64586052.23347 -50309898.16146  22001963.2194                   22001960.8444
  -6534000.70447  -5075822.27544  23717941.6024                   23717940.5124
 -53747729.37348 -41863471.10046  20119525.0864                   20119522.4924
 -37485131.70047 -29193412.45345  22614647.4144                   22614647.1254
 -33231672.08448 -25877857.55846  21359838.1884                   21359834.5474
 11  8  3  0 17 30.0000000  0  8G09G28G10G17G12G04G27G02
 -26921814.18447 -20961086.95845  22210315.4774                   22210314.4734
 -77031937.68447 -60011094.85444  22864272.4384                   22864271.5904
 -22226849.51047 -17303105.82845  22170862.4774                   22170861.2424
 -64624771.85847 -50340069.32646  21994594.9064                   21994592.7894
  -6705488.22347  -5209448.85644  23685309.1884                   23685307.7934
 -53793081.20748 -41898810.18246  20110895.0164                   20110893.2234
 -37534467.72947 -29231856.16345  22605259.1484                   22605258.6054
 -33359326.45848 -25977328.44946  21335546.2584                   21335542.9494
 11  8  3  0 18  0.0000000  0  8G09G28G10G17G12G04G27G02
 -26974781.48047 -21002360.19845  22200235.9774                   22200235.3484
 -77028753.38147 -60008613.66244  22864878.6644                   22864877.0474
 -22380572.61747 -17422889.99845  22141610.2974                   22141609.0554
 -64663359.44547 -50370137.58946  21987251.8444                   21987249.9344
  -6876848.34947  -5342976.19144  23652699.8054                   23652698.9304
 -53837912.99148 -41933744.03146  20102363.5474                   20102361.8324
 -37583336.49847 -29269935.75445  22595959.8524                   22595958.7624
 -33486569.34148 -26076478.71846  21311332.5634                   21311329.3484
 11  8  3  0 18 30.0000000  0  8G09G28G10G17G12G04G27G02
 -27027121.43247 -21043144.60645  22190276.0864                   22190275.3954
 -77025197.00247 -60005842.48944  22865555.3914                   22865554.3244
 -22533930.22447 -17542389.36645  22112426.8834                   22112426.3134
 -64701819.00947 -50400106.09846  21979933.0394                   21979931.1684
  -7048083.33047  -5476406.00044  23620114.9454                   23620113.4454
 -53882231.22348 -41968277.71646  20093929.9694                   20093927.9184
 -37631744.11847 -29307656.00945  22586748.2034                   22586747.0784
 -33613404.68848 -26175311.41246  21287196.7814                   21287193.6684
 11  8  3  0 19  0.0000000  0  8G09G28G10G17G12G04G27G02
 -27078836.14747 -21083441.81945  22180435.2114                   22180434.4304
 -77021269.84247 -60002782.43944  22866303.1094                   22866300.6564
 -22686919.23647 -17661601.51445  22083314.1954                   22083312.7384
 -64740150.67547 -50429974.94946  21972638.8754                   21972636.9454
  -7219191.53047  -5609736.98844  23587553.5634                   23587552.7114
 -53926038.17848 -42002413.00446  20085593.7894                   20085592.0664
 -37679692.85047 -29345018.69545  22577623.3674                   22577622.5784
 -33739832.70648 -26273826.71846  21263138.3284                   21263134.4454
 11  8  3  0 19 30.0000000  0  8G09G28G10G17G12G04G27G02
 -27129935.20447 -21123259.29845  22170711.3594                   22170710.1644
 -77016980.95147 -59999440.50244  22867118.4304                   22867117.1954
 -22839544.16747 -17780529.95345  22054270.4694                   22054269.5314
 -64778361.98048 -50459750.01046  21965367.4694                   21965364.8204
  -7390178.33847  -5742973.42944  23555016.0864                   23555015.4104
 -53969343.59648 -42036157.47646  20077353.2504                   20077351.5634
 -37727192.18447 -29382031.19745  22568584.7114                   22568584.1334
 -33865860.84248 -26372030.43146  21239156.2424                   21239152.1724
 11  8  3  0 20  0.0000000  0  8G09G28G10G17G12G04G27G02
 -27180414.01847 -21162593.48945  22161105.7344                   22161104.8914
 -77012325.04747 -59995812.58543  22868004.6254                   22868003.6214
 -22991795.29847 -17899167.13745  22025297.6484                   22025297.2664
 -64816446.20748 -50489426.04246  21958120.2974                   21958118.4144
  -7561035.23547  -5876108.59644  23522503.3134                   23522501.9494
 -54012143.07448 -42069507.71546  20069208.8364                   20069206.5234
 -37774237.28647 -29418689.76545  22559632.2504                   22559631.4694
 -33991482.28348 -26469917.23546  21215251.5394                   21215247.4614
 11  8  3  0 20 30.0000000  0  8G09G28G10G17G12G04G27G02
 -27230274.07647 -21201445.50745  22151617.6954                   22151616.6844
 -77007303.19247 -59991899.51444  22868960.0474                   22868959.3794
 -23143669.34747 -18017510.49145  21996397.5944                   21996397.0394
 -64854402.78447 -50519002.60845  21950897.3524                   21950895.3594
  -7731759.75247  -6009140.64944  23490015.3914                   23490014.0084
 -54054438.24948 -42102464.98346  20061160.3444                   20061158.5004
 -37820829.60747 -29454995.50245  22550766.3444                   22550765.6954
 -34116696.71848 -26567486.88446  21191423.2504                   21191419.6524
 11  8  3  0 21  0.0000000  0  8G09G28G10G17G12G04G27G02
 -27279520.79147 -21239819.60545  22142246.3594                   22142245.5984
 -77001920.14747 -59987705.01744  22869984.3134                   22869983.5314
 -23295166.73047 -18135560.34745  21967568.1954                   21967567.2624
 -64892235.02347 -50548482.27545  21943697.9384                   21943696.0354
  -7902353.13447  -6142070.50844  23457552.6564                   23457550.2814
 -54096234.73448 -42135033.67046  20053206.4614                   20053204.6524
 -37866974.61447 -29490952.68945  22541985.6954                   22541984.6804
 -34241507.12448 -26664741.71046  21167672.8754                   21167669.3094
 11  8  3  0 21 30.0000000  0  8G09G28G10G17G12G04G27G02
 -27328151.96547 -21277714.07045  22132992.2194                   22132991.4024
 -76996172.77647 -59983226.63644  22871078.9304                   22871077.7664
 -23446280.04547 -18253310.91345  21938812.2974                   21938810.5984
 -64929938.42348 -50577861.56846  21936523.3984                   21936521.3794
  -8072809.13147  -6274893.29944  23425115.6724                   23425114.3714
 -54137530.34348 -42167212.06646  20045348.1334                   20045346.3834
 -37912669.75247 -29526559.34245  22533289.6644                   22533288.9964
 -34365909.10448 -26761678.29546  21144000.2734                   21143996.4494
 11  8  3  0 22  0.0000000  0  8G09G28G10G17G12G04G27G02
 -27376165.92547 -21315127.58145  22123855.5784                   22123854.0084
 -76990058.76847 -59978462.55644  22872242.1724                   22872240.8324
 -23597002.57547 -18370756.97045  21910130.6414                   21910129.2194
 -64967509.28747 -50607137.54646  21929374.3834                   21929371.8204
  -8243121.89247  -6407604.47844  23392705.8834                   23392704.6954
 -54178323.46348 -42198998.90046  20037585.5704                   20037583.4414
 -37957913.16647 -29561813.98845  22524680.2504                   22524679.8324
 -34489898.79348 -26858293.59346  21120405.5084                   21120401.6954
 11  8  3  0 22 30.0000000  0  9G09G28G10G17G12G04G05G27G02
 -27423572.53847 -21352067.84945  22114834.6644                   22114833.6484
 -76983587.35847 -59973419.97944  22873474.0864                   22873472.5234
 -23747338.71247 -18487901.95045  21881522.4384                   21881521.1024
 -65004955.08748 -50636316.11445  21922248.4844                   21922245.9884
  -8413297.16947  -6540208.53144  23360322.9924                   23360321.1214
 -54218624.02248 -42230401.93346  20029916.0864                   20029914.7344
   2885907.33756   2264837.88553  24581918.7034                   24581923.8324
 -38002714.76147 -29596724.37645  22516154.7194                   22516154.5204
 -34613483.89048 -26954593.66446  21096888.0234                   21096884.2624
 11  8  3  0 23  0.0000000  0  9G09G28G10G17G12G04G05G27G02
 -27470378.53147 -21388540.07745  22105927.2114                   22105926.0634
 -76976764.59147 -59968103.61145  22874772.1094                   22874771.3284
 -23897290.17147 -18604747.18945  21852987.6334                   21852986.6054
 -65042280.41048 -50665400.78245  21915145.7114                   21915143.9454
  -8583337.65347  -6672707.53644  23327965.1884                   23327963.6764
 -54258438.94748 -42261426.54046  20022340.0004                   20022338.3094
   2705857.91746   2124539.91844  24547656.1484                   24547661.4384
 -38047081.13747 -29631295.61245  22507712.5784                   22507711.6054
 -34736669.04348 -27050582.05946  21073446.6564                   21073443.1094
 11  8  3  0 23 30.0000000  0  9G09G28G10G17G12G04G05G27G02
 -27516589.91947 -21424548.98045  22097133.5704                   22097133.1684
 -76969595.70047 -59962517.53944  22876136.8674                   22876135.7194
 -24046857.74347 -18721293.28645  21824525.7114                   21824524.3524
 -65079488.84148 -50694394.37146  21908065.0944                   21908063.0864
  -8753244.75147  -6805102.61944  23295632.7664                   23295630.5984
 -54297774.12148 -42292077.33146  20014854.8444                   20014852.5554
   2525748.55446   1984195.26444  24513381.9534                   24513387.3484
 -38091017.67347 -29665531.92845  22499351.4144                   22499350.6454
 -34859457.87248 -27146261.63546  21050081.1884                   21050076.9534
 11  8  3  0 24  0.0000000  0  9G09G28G10G17G12G04G05G27G02
 -27562216.93947 -21460102.54045  22088451.1954                   22088450.1484
 -76962090.41947 -59956669.33644  22877564.7974                   22877563.7154
 -24196046.53147 -18837544.23145  21796135.9384                   21796134.6374
 -65116588.45147 -50723303.18446  21901005.4304                   21901003.2734
  -8923024.68447  -6937398.60444  23263324.8204                   23263323.4264
 -54336640.16848 -42322362.56046  20007458.8284                   20007457.3794
   2345573.46047   1843799.37945  24479096.5394                   24479100.9804
 -38134534.52347 -29699441.21445  22491070.7974                   22491070.1524
 -34981858.65848 -27241638.84346  21026788.3284                   21026784.6844
 11  8  3  0 24 30.0000000  0  9G09G28G10G17G12G04G05G27G02
 -27607246.50247 -21495190.56745  22079882.5004                   22079881.0594
 -76954234.53047 -59950547.94244  22879059.6644                   22879059.1254
 -24344838.47947 -18953485.94645  21767822.0004                   21767820.3554
 -65153563.71347 -50752115.08246  21893968.7894                   21893966.9184
  -9092659.72947  -7069581.70344  23231044.7274                   23231043.0314
 -54375023.71348 -42352271.80946  20000154.8284                   20000153.1374
   2165350.41147   1703366.12445  24444800.9384                   24444804.8284
 -38177618.52147 -29733013.22345  22482871.7034                   22482871.2584
 -35103855.63748 -27336701.39246  21003573.1954                   21003569.7424
 11  8  3  0 25  0.0000000  0  9G09G28G10G17G12G04G05G27G02
 -26076259.83547 -20302213.97445  22371219.5164                   22371218.7544
 -75370610.46247 -58716555.23444  23180412.6724                   23180413.0514
 -22917805.72347 -17841512.29145  22039377.2194                   22039375.6484
 -63614993.52948 -49553229.25846  22186749.2734                   22186747.3714
  -7686722.79847  -5974046.34744  23498585.1484                   23498582.9414
 -52837506.46548 -41154206.43046  20292734.3914                   20292732.9024
   3560507.21847   2790501.56644  24710290.3284                   24710294.2424
 -36644850.93647 -28538648.92745  22774548.1644                   22774547.4494
 -33650025.45848 -26203846.68746  21280227.7584                   21280224.6484
 11  8  3  0 25 30.0000000  0  9G09G28G10G17G12G04G05G27G02
 -26120098.16047 -20336373.73445  22362877.2114                   22362876.0234
 -75362055.17746 -58709888.86543  23182041.3984                   23182040.2854
 -23065791.14747 -17956825.56445  22011216.3594                   22011215.0664
 -63651716.37347 -49581844.47445  22179761.2114                   22179759.6564
  -7856059.24047  -6105996.76744  23466361.4694                   23466359.1484
 -52874928.96248 -41183366.80746  20285613.3594                   20285611.6844
   3380198.22947   2650001.35645  24675979.0474                   24675982.1414
 -36687072.81247 -28571549.14045  22766513.2194                   22766513.0164
 -33771212.31948 -26298277.97746  21257166.6564                   21257163.1054
 11  8  3  0 26  0.0000000  0  9G09G28G10G17G12G04G05G27G02
 -26163340.97047 -20370069.47545  22354648.8054                   22354647.7154
 -75353149.13947 -58702949.18143  23183736.1094                   23183734.9454
 -23213365.88747 -18071818.80545  21983133.8364                   21983132.7504
 -63688309.48048 -49610358.60545  22172798.0004                   22172795.5204
  -8025239.82347  -6237825.74445  23434167.2734                   23434165.5044
 -52911871.08248 -41212152.88046  20278583.2974                   20278581.8444
   3199853.14646   2509473.04744  24641659.2584                   24641663.3554
 -36728863.11647 -28604113.06145  22758560.8594                   22758560.4884
 -33891990.83948 -26392391.08046  21234183.7424                   21234179.7544
 11  8  3  0 26 30.0000000  0  9G09G28G10G17G12G04G05G27G02
 -26205987.14347 -20403300.27945  22346533.4844                   22346532.5204
 -75343890.23546 -58695734.58344  23185497.9144                   23185497.9024
 -23360523.21047 -18186486.78745  21955130.5944                   21955129.4964
 -63724769.15748 -49638768.76945  22165860.0554                   22165857.8204
  -8194258.97547  -6369528.92244  23402004.0944                   23402001.7114
 -52948331.51948 -41240563.62146  20271645.0474                   20271643.2934
   3019478.23746   2368921.53843  24607334.6254                   24607339.2974
 -36770220.62047 -28636339.74345  22750691.0634                   22750690.8094
 -34012357.63448 -26486183.35846  21211278.5314                   21211274.4384
 11  8  3  0 27  0.0000000  0  9G09G28G10G17G12G04G05G27G02
 -26248036.01847 -20436065.67645  22338532.1334                   22338530.7384
 -75334277.02147 -58688243.80644  23187327.3674                   23187326.8714
 -23507257.16147 -18300824.87245  21927208.3364                   21927207.1684
 -63761092.38047 -49667072.60445  22158947.7974                   22158945.7544
  -8363111.62447  -6501102.36744  23369872.3754                   23369870.7704
 -52984309.49448 -41268598.41846  20264798.6414                   20264797.1214
   2839078.49146   2228350.59943  24573005.2584                   24573008.9184
 -36811144.38747 -28668228.44745  22742903.3914                   22742902.8954
 -34132309.37048 -26579652.22246  21188452.3134                   21188448.6804
 11  8  3  0 27 30.0000000  0  9G09G28G10G17G12G04G05G27G02
 -26289487.72947 -20468365.74245  22330643.5554                   22330643.1644
 -75324308.72347 -58680476.42643  23189224.0004                   23189223.5704
 -23653562.71847 -18414829.15445  21899367.0704                   21899365.7154
 -63797276.52548 -49695268.06345  22152061.8284                   22152059.7074
  -8531793.11547  -6632542.43945  23337773.4924                   23337771.5394
 -53019805.02548 -41296257.29546  20258044.4304                   20258042.3634
   2658658.76546   2087764.18442  24538671.5784                   24538673.9804
 -36851634.28847 -28699779.07945  22735198.2584                   22735198.1484
 -34251843.87748 -26672795.96446  21165705.6334                   21165701.7704
 11  8  3  0 28  0.0000000  0  9G09G28G10G17G12G04G05G27G02
 -26330348.91547 -20500205.66245  22322867.9774                   22322867.1954
 -75313991.56047 -58672437.14944  23191187.8134                   23191187.3874
 -23799441.37347 -18528500.77245  21871607.5394                   21871606.1524
 -63833325.78547 -49723358.42545  22145202.0394                   22145199.8404
  -8700305.65747  -6763850.87945  23305706.7664                   23305704.6804
 -53054824.97248 -41323545.57846  20251380.1484                   20251378.3164
   2478216.88146   1947160.41842  24504334.5234                   24504336.2274
 -36891696.94147 -28730996.78645  22727574.9144                   22727574.8054
 -34370965.87348 -26765618.26746  21143037.3914                   21143033.9694
 11  8  3  0 28 30.0000000  0  9G09G28G10G17G12G04G05G27G02
 -26370612.00747 -20531579.53745  22315206.2584                   22315206.1604
 -75303316.87747 -58664119.31544  23193220.2584                   23193218.3164
 -23944879.96847 -18641829.48545  21843931.0234                   21843929.8714
 -63869229.97448 -49751335.75145  22138369.5704                   22138367.6844
  -8868637.49447  -6895018.49644  23273674.0864                   23273672.3874
 -53089361.59348 -41350457.24746  20244808.3054                   20244806.4964
   2297765.62746   1806549.35343  24469996.4144                   24469997.7814
 -36931324.44347 -28761875.41745  22720034.1094                   22720033.8834
 -34489665.39448 -26858111.37446  21120449.5784                   21120445.8364
 11  8  3  0 29  0.0000000  0  9G09G28G10G17G12G04G05G27G02
 -26410287.87347 -20562495.84845  22307656.5784                   22307655.2974
 -75292294.88347 -58655530.86544  23195317.0164                   23195316.7154
 -24089884.18347 -18754819.73145  21816338.0394                   21816336.5164
 -63904997.66547 -49779206.70445  22131563.3914                   22131561.6174
  -9036794.86747  -7026050.16145  23241674.4384                   23241672.8164
 -53123425.64248 -41377000.68146  20238325.9774                   20238323.9574
   2117298.78546   1665926.13243  24435655.0394                   24435656.3484
 -36970527.55147 -28792423.33345  22712573.8754                   22712573.4844
 -34607950.96648 -26950281.93146  21097940.3524                   21097936.6884
 11  8  3  0 29 30.0000000  0  9G09G28G10G17G12G04G05G27G02
 -26449372.27847 -20592951.26045  22300218.7274                   22300217.8834
 -75280920.21147 -58646667.57644  23197481.3364                   23197481.1994
 -24234444.01147 -18867463.70045  21788828.9384                   21788827.3524
 -63940621.54547 -49806965.58945  22124784.0314                   22124782.7464
  -9204768.44347  -7156938.60445  23209710.4144                   23209708.6684
 -53157012.77448 -41403172.48546  20231934.6174                   20231932.6724
   1936825.89847   1525298.29344  24401311.8754                   24401312.8754
 -37009301.54147 -28822636.90345  22705195.5474                   22705195.6994
 -34725815.93848 -27042124.72746  21075511.5164                   21075507.6294
 11  8  3  0 30  0.0000000  0  9G09G28G10G17G12G04G05G27G02
 -26487864.13247 -20622944.94445  22292893.7584                   22292893.4414
 -75269191.49347 -58637528.43244  23199713.5784                   23199712.8674
 -24378553.59647 -18979756.81645  21761405.6804                   21761404.2544
 -63976097.60947 -49834609.30945  22118033.6564                   22118031.5984
  -9372553.25347  -7287679.98544  23177781.3984                   23177780.1844
 -53190121.93048 -41428971.84846  20225634.3914                   20225632.4844
   1756352.36647   1384669.87244  24366968.5634                   24366970.6604
 -37047645.46847 -28852515.34545  22697899.1954                   22697899.0434
 -34843257.20648 -27133637.37946  21053163.4304                   21053159.5904
 11  8  3  0 30 30.0000000  0  9G09G28G10G17G12G04G05G27G02
 -26525768.11747 -20652480.56145  22285681.2424                   22285680.6054
 -75257112.00147 -58628115.97044  23202012.2274                   23202011.6994
 -24522212.07247 -19091698.41545  21734068.2894                   21734067.1954
 -64011428.65248 -49862140.00945  22111310.7814                   22111308.5164
  -9540148.98747  -7418274.01145  23145889.6484                   23145887.3164
 -53222757.50748 -41454402.18646  20219424.0634                   20219422.0234
   1575878.54347   1244041.26844  24332625.1644                   24332627.7154
 -37085563.47647 -28882061.89345  22690683.5474                   22690683.9184
 -34960277.07848 -27224821.67646  21030895.5234                   21030891.2664
 11  8  3  0 31  0.0000000  0  9G09G28G10G17G12G04G05G27G02
 -26563089.88147 -20681562.48045  22278579.1724                   22278577.8674
 -75244686.46047 -58618433.81043  23204376.2584                   23204376.4734
 -24665419.22947 -19203288.36845  21706816.7344                   21706815.8834
 -64046617.33447 -49889559.79145  22104613.7734                   22104612.1254
  -9707556.03847  -7548721.01845  23114032.9694                   23114030.7274
 -53254924.84948 -41479467.66646  20213302.5004                   20213300.8054
   1395404.49246   1103412.48344  24298281.4304                   24298284.0004
 -37123060.45547 -28911280.39045  22683547.8834                   22683548.0514
 -35076878.13748 -27315679.62346  21008706.3754                   21008702.9804
 11  8  3  0 31 30.0000000  0  9G09G28G10G17G12G04G05G27G02
 -26599829.71347 -20710190.95245  22271587.9144                   22271587.0394
 -75231914.30047 -58608481.62043  23206806.6954                   23206806.6954
 -24808170.24847 -19314522.84745  21679652.1174                   21679650.5514
 -64081660.96747 -49916866.52545  22097945.5314                   22097944.2704
  -9874770.37347  -7679017.82645  23082213.0394                   23082211.2854
 -53286624.45448 -41504168.66546  20207270.1884                   20207268.6644
   1214934.25346    962786.63444  24263939.1334                   24263941.3484
 -37160136.76247 -28940171.07145  22676492.6174                   22676492.4884
 -35193058.83448 -27406210.01846  20986597.9454                   20986594.0044
 11  8  3  0 32  0.0000000  0  9G09G28G10G17G12G04G05G27G02
 -26635989.78947 -20738367.69445  22264706.4534                   22264706.2234
 -75218796.83246 -58598260.32144  23209304.0164                   23209302.9614
 -24950462.04647 -19425399.51045  21652575.0164                   21652573.3404
 -64116558.96247 -49944059.80445  22091304.6484                   22091302.8284
 -10041789.49947  -7809162.57345  23050430.5554                   23050428.5044
 -53317857.93048 -41528506.46746  20201327.0314                   20201325.3674
   1034470.84446    822166.10144  24229598.0784                   24229600.1764
 -37196794.15246 -28968735.32944  22669517.4614                   22669517.0664
 -35308818.78948 -27496412.55146  20964569.6414                   20964566.1134
 11  8  3  0 32 30.0000000  0  9G09G28G10G17G12G04G05G27G02
 -26671571.76247 -20766093.94045  22257936.0164                   22257935.1094
 -75205335.21047 -58587770.80544  23211864.8754                   23211864.0824
 -25092290.84847 -19535915.41045  21625585.8134                   21625584.2344
 -64151310.36547 -49971138.83845  22084691.4454                   22084689.7234
 -10208610.39947  -7939152.80445  23018685.3134                   23018684.1054
 -53348627.09748 -41552482.45946  20195471.6564                   20195469.8834
    854017.71446    681553.58744  24195258.4224                   24195259.8634
 -37233034.19947 -28996974.37245  22662621.5314                   22662621.1564
 -35424157.53048 -27586286.87446  20942621.6884                   20942617.9884
 11  8  3  0 33  0.0000000  0  9G09G28G10G17G12G04G05G27G02
 -26706580.16147 -20793373.25145  22251273.9304                   22251273.5984
 -75191532.58747 -58577015.59943  23214491.9224                   23214490.7074
 -25233655.47647 -19646069.61045  21598685.5554                   21598683.4774
 -64185916.62648 -49998104.77545  22078106.2894                   22078104.3524
 -10375232.66347  -8068988.28045  22986977.7504                   22986976.0164
 -53378935.97848 -41576099.78246  20189704.0234                   20189702.5664
    673575.59446    540949.66744  24160920.7344                   24160922.9384
 -37268860.84147 -29024891.29345  22655803.8284                   22655803.8134
 -35539076.79648 -27675834.32846  20920753.2344                   20920749.3444
 11  8  3  0 33 30.0000000  0  9G09G28G10G17G12G04G05G27G02
 -26741015.76647 -20820206.25445  22244721.0554                   22244720.1174
 -75177388.86646 -58565994.63543  23217183.4694                   23217182.2464
 -25374551.52147 -19755858.69045  21571873.1484                   21571872.1054
 -64220375.58148 -50024955.94645  22071549.3054                   22071547.4804
 -10541652.07847  -8198665.68945  22955309.2734                   22955307.1094
 -53408785.31148 -41599359.01446  20184024.1724                   20184022.6024
    493148.51746    400357.44444  24126586.3754                   24126588.5474
 -37304274.69047 -29052486.56045  22649064.6174                   22649064.1454
 -35653575.14048 -27765053.79446  20898964.8134                   20898960.8244
 11  8  3  0 34  0.0000000  0  9G09G28G10G17G12G04G05G27G02
 -26774881.85047 -20846595.45545  22238276.4144                   22238276.2504
 -75162906.13646 -58554709.46544  23219939.5234                   23219937.6374
 -25514976.39348 -19865280.61545  21545151.0394                   21545150.2894
 -64254687.61547 -50051692.61745  22065019.6094                   22065017.9414
 -10707866.91147  -8328183.67345  22923679.8444                   22923677.7734
 -53438177.72448 -41622262.20346  20178431.0864                   20178428.8284
    312738.99946    259778.86743  24092255.8674                   24092257.5784
 -37339278.61047 -29079762.38144  22642403.5164                   22642403.1414
 -35767653.22048 -27853945.78446  20877256.6174                   20877252.7424
 11  8  3  0 34 30.0000000  0  9G09G28G10G17G12G04G05G27G02
 -26808179.85847 -20872541.99945  22231940.6724                   22231939.9924
 -75148085.14846 -58543160.75044  23222760.5314                   23222759.0234
 -25654926.48947 -19974332.59045  21518519.3914                   21518518.3634
 -64288851.31847 -50078313.70345  22058518.2344                   22058516.4804
 -10873874.04747  -8457539.83045  22892089.8364                   22892087.2504
 -53467114.68648 -41644810.50246  20172924.3594                   20172922.3014
    132350.65146    119216.79543  24057928.8444                   24057930.6414
 -37373873.83647 -29106719.76345  22635820.2504                   22635819.9224
 -35881310.08548 -27942509.54846  20855628.3364                   20855624.4844
 11  8  3  0 35  0.0000000  0  9G09G28G10G17G12G04G05G27G02
 -26840914.17547 -20898049.31645  22225711.2974                   22225710.7384
 -75132929.52546 -58531351.27043  23225643.9304                   23225643.4774
 -25794400.72047 -20083013.76545  21491978.3054                   21491976.8634
 -64322868.15947 -50104820.35745  22052045.3284                   22052043.3954
 -11039672.75147  -8586733.58945  22860539.0474                   22860537.3634
 -53495600.48848 -41667007.23546  20167503.6564                   20167502.0394
    -48016.26646    -21328.58944  24023605.8444                   24023607.0704
 -37408064.40647 -29133361.82145  22629314.3754                   22629313.4534
 -35994547.92348 -28030746.79946  20834079.8914                   20834075.9534
 11  8  3  0 35 30.0000000  0  9G09G28G10G17G12G04G05G27G02
 -25297667.88747 -19695519.78945  22519381.4694                   22519380.4884
 -73542022.81646 -57291683.78043  23528383.4774                   23528383.3054
 -24357973.12247 -18963719.50045  21765321.7194                   21765320.0474
 -62781318.69047 -48903612.99945  22345392.6254                   22345390.6644
  -9629836.91547  -7488160.13745  23128821.7734                   23128820.2624
 -51948217.99048 -40461254.65646  20461960.8134                   20461958.9924
   1347065.69846   1065748.55844  24289081.0864                   24289082.7384
 -35866432.97147 -27932090.60944  22922677.0234                   22922676.6884
 -34531944.60748 -26891055.86746  21112403.8364                   21112400.4654
 11  8  3  0 36  0.0000000  0  9G09G28G10G17G12G04G05G27G02
 -25329282.74647 -19720154.78345  22513365.1954                   22513363.8834
 -73526202.25446 -57279356.18143  23531394.2274                   23531393.8324
 -24496486.80947 -19071652.20645  21738963.2504                   21738961.9024
 -62815041.15848 -48929890.25845  22338975.2274                   22338974.0394
  -9795211.70747  -7617023.58145  23097352.1804                   23097350.7854
 -51975808.00148 -40482753.37046  20456710.5474                   20456709.0474
   1166750.31746    925243.32444  24254767.7034                   24254770.1604
 -35899820.67747 -27958107.07845  22916323.5394                   22916323.3284
 -34644344.54848 -26978640.21246  21091015.1334                   21091010.8794
 11  8  3  0 36 30.0000000  0  9G09G28G10G17G12G04G05G27G02
 -25360340.38947 -19744355.59545  22507454.8674                   22507454.6844
 -73510050.39046 -57266770.43143  23534467.6254                   23534466.6254
 -24634514.43447 -19179206.16745  21712697.3204                   21712695.8164
 -62848614.42448 -48956051.26445  22332586.7664                   22332584.8634
  -9960369.75547  -7745718.12845  23065923.7584                   23065921.8244
 -52002952.39948 -40503904.84646  20451545.2974                   20451543.4844
    986466.00747    784762.32144  24220460.9384                   24220462.2424
 -35932809.00347 -27983812.30545  22910046.2664                   22910045.9804
 -34756324.58148 -27065897.34346  21069705.6254                   21069701.6334
 11  8  3  0 37  0.0000000  0  9G09G28G10G17G12G04G05G27G02
 -25390842.42947 -19768123.47745  22501650.6094                   22501650.2074
 -73493567.94046 -57253927.13243  23537604.8754                   23537603.4734
 -24772052.19147 -19286378.41045  21686524.7274                   21686523.3554
 -62882036.81947 -48982094.71945  22326226.8984                   22326225.2774
 -10125307.72447  -7874241.19045  23034536.7274                   23034535.1604
 -52029652.37748 -40524710.02946  20446464.4534                   20446462.4384
    806216.39347    644308.30044  24186160.1254                   24186161.1174
 -35965399.22747 -28009207.32945  22903844.3444                   22903843.9694
 -34867883.79248 -27152826.58046  21048476.7584                   21048472.9224
 11  8  3  0 37 30.0000000  0  9G09G28G10G17G12G04G05G27G02
 -25420794.14647 -19791462.53445  22495951.5474                   22495950.0594
 -73476759.18646 -57240829.49643  23540802.9844                   23540803.4104
 -24909099.93347 -19393168.82845  21660445.7734                   21660443.8914
 -62915310.71647 -49008022.44945  22319894.5864                   22319893.2034
 -10290025.74247  -8002592.85145  23003191.5474                   23003190.1094
 -52055913.05448 -40545172.89746  20441467.5234                   20441465.3284
    626001.59047    503881.42643  24151865.8204                   24151867.0124
 -35997596.20347 -28034295.93745  22897717.6724                   22897716.9144
 -34979024.71048 -27239429.86446  21027327.1024                   21027323.5204
 11  8  3  0 38  0.0000000  0  9G09G28G10G17G12G04G05G27G02
 -25450198.40847 -19814375.00945  22490356.1954                   22490354.8984
 -73459626.23846 -57227479.25144  23544064.0474                   23544063.2894
 -25045655.06447 -19499575.37345  21634460.0864                   21634458.6294
 -62948436.19847 -49033834.53245  22313591.1334                   22313589.8794
 -10454521.70547  -8130771.47545  22971889.4614                   22971888.5044
 -52081736.77148 -40565295.28446  20436552.8834                   20436551.4924
    445824.23547    363483.71544  24117579.0704                   24117580.9104
 -36029402.44747 -28059080.07345  22891665.1174                   22891664.8634
 -35089748.14748 -27325707.83746  21006257.4844                   21006253.3324
 11  8  3  0 38 30.0000000  0  9G09G28G10G17G12G04G05G27G02
 -25479056.34747 -19836861.77845  22484864.7504                   22484864.2074
 -73442168.66846 -57213876.06243  23547385.1644                   23547385.4454
 -25181713.35947 -19605594.79345  21608569.0864                   21608567.6484
 -62981411.06847 -49059529.27645  22307316.5314                   22307314.6454
 -10618791.39347  -8258773.82045  22940630.0864                   22940628.3284
 -52107124.33148 -40585077.79646  20431721.9614                   20431720.1214
    265688.32246    223118.34144  24083301.2274                   24083302.3674
 -36060818.72647 -28083560.33745  22885686.4384                   22885686.9414
 -35200052.51848 -27411659.27146  20985267.3364                   20985263.2344
 11  8  3  0 39  0.0000000  0  9G09G28G10G17G12G04G05G27G02
 -25507366.98347 -19858922.07245  22479477.2664                   22479476.4344
 -73424384.74346 -57200018.56943  23550769.5704                   23550769.9494
 -25317268.02647 -19711221.75945  21582773.2034                   21582772.2734
 -63014231.05247 -49085103.32145  22301070.9304                   22301069.3874
 -10782829.26547  -8386595.51345  22909414.4304                   22909412.8284
 -52132074.51848 -40604519.51046  20426973.9774                   20426972.7584
     85600.77746     82790.60244  24049030.2664                   24049031.9924
 -36091843.56447 -28107735.57445  22879782.9224                   22879782.8364
 -35309934.57848 -27497281.62746  20964357.2664                   20964353.5004
 11  8  3  0 39 30.0000000  0  9G09G28G10G17G12G04G05G27G02
 -25535136.41247 -19880560.64745  22474192.5634                   22474192.4224
 -73406279.16146 -57185910.43843  23554215.0084                   23554214.8094
 -25452319.45247 -19816456.60845  21557074.2664                   21557072.6604
 -63046899.19247 -49110559.03845  22294854.5554                   22294852.9614
 -10946634.99547  -8514236.33745  22878243.2584                   22878241.6174
 -52156592.71048 -40623624.58646  20422308.1174                   20422306.6054
    -94439.45247    -57500.22044  24014769.6094                   24014771.9534
 -36122482.61447 -28131610.21744  22873953.0784                   22873952.4184
 -35419397.60248 -27582577.46446  20943527.1484                   20943523.3244
 11  8  3  0 40  0.0000000  0  9G09G28G10G17G12G04G05G27G02
 -25562366.13347 -19901778.67045  22469011.1094                   22469010.8914
 -73387852.83746 -57171552.35144  23557721.3594                   23557721.4454
 -25586864.04947 -19921296.52045  21531470.9384                   21531469.5944
 -63079414.07447 -49135895.33145  22288667.1724                   22288665.5634
 -11110206.04547  -8641694.25445  22847116.8754                   22847114.7504
 -52180680.23548 -40642394.10346  20417724.5864                   20417723.0904
   -274428.40746   -197751.10544  23980519.0554                   23980520.6454
 -36152737.15347 -28155185.24145  22868195.2974                   22868195.6684
 -35528440.80848 -27667546.16446  20922777.1484                   20922772.9694
 11  8  3  0 40 30.0000000  0  9G09G28G10G17G12G04G05G27G02
 -25589061.80647 -19922580.54545  22463931.2504                   22463930.9494
 -73369110.44546 -57156948.01144  23561288.3754                   23561288.1174
 -25720901.48547 -20025741.24245  21505964.6484                   21505963.5044
 -63111778.02847 -49161114.01545  22282508.6094                   22282506.6484
 -11273542.77747  -8768969.62445  22816035.3444                   22816032.7974
 -52204342.35948 -40660832.12046  20413222.1094                   20413220.2974
   -454365.81247   -337961.85544  23946278.0554                   23946279.5864
 -36182612.35647 -28178464.66144  22862510.5234                   22862509.7424
 -35637067.18848 -27752190.08046  20902105.9924                   20902101.9574
 11  8  3  0 41  0.0000000  0  9G09G28G10G17G12G04G05G27G02
 -25615226.99147 -19942969.07345  22458952.5164                   22458952.4574
 -73350054.06246 -57142098.92343  23564915.0004                   23564915.1644
 -25854430.27447 -20129789.60345  21480555.1724                   21480553.5004
 -63143991.39048 -49186215.34845  22276378.5394                   22276376.5314
 -11436643.35747  -8896060.95845  22784998.1804                   22784996.3794
 -52227582.13948 -40678941.05846  20408799.7734                   20408797.7814
   -634250.27146   -478131.32344  23912046.9774                   23912048.9144
 -36212111.23847 -28201450.84745  22856896.9224                   22856897.2894
 -35745277.85048 -27836510.05346  20881514.0394                   20881510.0704
 11  8  3  0 41 30.0000000  0  9G09G28G10G17G12G04G05G27G02
 -25640864.68847 -19962946.54745  22454073.3284                   22454073.3164
 -73330685.96246 -57127007.00143  23568599.9224                   23568600.8404
 -25987447.62747 -20233439.45045  21455242.4844                   21455241.0744
 -63176053.66047 -49211198.97145  22270277.2974                   22270275.2234
 -11599505.42647  -9022966.44045  22754006.6254                   22754004.2854
 -52250402.14348 -40696722.88146  20404457.0084                   20404455.4144
   -814079.24347   -618257.55944  23877826.6564                   23877828.5594
 -36241236.49347 -28224145.92445  22851354.6254                   22851354.5744
 -35853073.29048 -27920506.47246  20861001.1094                   20860997.7194
 11  8  3  0 42  0.0000000  0  9G09G28G10G17G12G04G05G27G02
 -25665974.34647 -19982512.59845  22449295.9534                   22449294.1844
 -73311004.42646 -57111670.86343  23572344.8594                   23572345.5434
 -26119947.75947 -20336686.26545  21430028.2504                   21430027.2974
 -63207961.67947 -49236062.39445  22264205.7584                   22264204.0124
 -11762123.52347  -9149681.82445  22723061.2814                   22723058.8134
 -52272801.68048 -40714177.06846  20400194.6724                   20400192.9804
   -993846.52146   -758335.70044  23843617.4774                   23843618.9144
 -36269987.09847 -28246549.05845  22845883.7504                   22845883.9494
 -35960450.66248 -28004177.12646  20840567.8204                   20840564.1564
 11  8  3  0 42 30.0000000  0  9G09G28G10G17G12G04G05G27G02
 -25690556.41347 -20001667.49345  22444617.6884                   22444617.8634
 -73291009.01546 -57096090.17943  23576150.8674                   23576151.1764
 -26251925.49547 -20439526.01545  21404914.0314                   21404912.2384
 -63239712.30347 -49260803.16745  22258163.5944                   22258161.6214
 -11924492.70347  -9276203.22545  22692163.5234                   22692161.4494
 -52294780.47448 -40731303.41746  20396012.5084                   20396010.4024
  -1173546.81747   -898361.68044  23809421.5944                   23809423.3284
 -36298363.17547 -28268660.33344  22840484.0554                   22840483.3014
 -36067407.82648 -28087520.35146  20820214.7344                   20820210.4694
 11  8  3  0 43  0.0000000  0  9G09G28G10G17G12G04G05G27G02
 -25714616.61347 -20020415.76345  22440039.6724                   22440038.8954
 -73270704.07046 -57080268.23443  23580014.7274                   23580014.8244
 -26383380.94347 -20541958.78645  21379898.5784                   21379897.4384
 -63271308.12647 -49285423.31945  22252151.2194                   22252149.4844
 -12086613.42447  -9402531.02745  22661312.6724                   22661310.2194
 -52316343.76248 -40748105.99346  20391909.0944                   20391907.1454
  -1353180.29647  -1038335.59544  23775238.6334                   23775239.9804
 -36326369.81547 -28290483.75944  22835153.9454                   22835154.7934
 -36173947.79448 -28170538.48446  20799940.7424                   20799936.7304
 11  8  3  0 43 30.0000000  0  9G09G28G10G17G12G04G05G27G02
 -25738158.60847 -20038760.21945  22435559.0944                   22435558.8164
 -73250092.28846 -57064207.21543  23583937.3364                   23583937.1564
 -26514311.99347 -20643982.95945  21354983.3984                   21354982.0784
 -63302748.98447 -49309922.71845  22246167.7734                   22246166.4344
 -12248483.77647  -9528663.73045  22630509.8054                   22630507.5514
 -52337494.62548 -40764587.18946  20387884.0474                   20387882.6214
  -1532744.96747  -1178255.90044  23741069.1094                   23741069.8094
 -36354010.11247 -28312021.69844  22829895.2114                   22829893.9574
 -36280071.56348 -28253232.30046  20779745.9844                   20779742.0904
 11  8  3  0 44  0.0000000  0  9G09G28G10G17G12G04G05G27G02
 -25761186.41847 -20056704.01645  22431177.3204                   22431177.1644
 -73229176.84946 -57047909.61043  23587918.3204                   23587917.8364
 -26644717.29947 -20745597.44545  21330167.9614                   21330166.8054
 -63334035.92347 -49334302.17445  22240213.9534                   22240212.8634
 -12410102.32347  -9654600.22445  22599754.7734                   22599753.0904
 -52358236.76248 -40780749.91546  20383936.6174                   20383935.0044
  -1712239.33847  -1318121.41344  23706911.6334                   23706912.6254
 -36381287.78947 -28333277.12444  22824704.0004                   22824703.6414
 -36385780.86848 -28335603.16146  20759630.1954                   20759626.3244
 11  8  3  0 44 30.0000000  0  9G09G28G10G17G12G04G05G27G02
 -25783701.42847 -20074248.23945  22426892.9774                   22426892.7034
 -73207957.48546 -57031375.16543  23591955.5234                   23591956.1684
 -26774592.75747 -20846799.05846  21305453.8054                   21305452.2034
 -63365166.97547 -49358560.15145  22234290.9694                   22234288.7974
 -12571465.32047  -9780337.58245  22569048.0474                   22569046.1914
 -52378570.95748 -40796594.73346  20380067.6564                   20380065.9964
  -1891658.76547  -1457928.58044  23672768.8914                   23672769.7504
 -36408203.85647 -28354250.76444  22819582.3754                   22819582.6254
 -36491074.40448 -28417650.05846  20739593.5004                   20739589.8754
 11  8  3  0 45  0.0000000  0  9G09G28G10G17G12G04G05G27G02
 -25805707.52246 -20091395.90645  22422705.3134                   22422705.1994
 -73186437.72546 -57014606.65144  23596051.0084                   23596051.7544
 -26903936.84147 -20947586.61045  21280839.9534                   21280838.8524
 -63396143.03047 -49382697.37145  22228396.1174                   22228393.5044
 -12732571.87847  -9905875.12945  22538391.0704                   22538388.7624
 -52398500.79848 -40812124.48746  20376274.9614                   20376273.3594
  -2071001.67447  -1597676.06744  23638640.5704                   23638641.9384
 -36434762.00047 -28374945.46745  22814527.6414                   22814527.9964
 -36595953.78048 -28499374.22846  20719635.6954                   20719631.9104
 11  8  3  0 45 30.0000000  0  9G09G28G10G17G12G04G05G27G02
 -25827206.89146 -20108148.70745  22418614.4224                   22418613.2544
 -73164618.28146 -56997604.59343  23600203.3364                   23600202.8834
 -27032746.17647 -21047957.49045  21256328.4534                   21256326.6214
 -63426962.35347 -49406712.44245  22222531.3674                   22222529.8554
 -12893418.08647 -10031209.79945  22507782.8284                   22507781.0004
 -52418027.80148 -40827340.34046  20372558.9774                   20372557.2894
  -2250264.79747  -1737361.41744  23604528.3914                   23604529.2154
 -36460963.67947 -28395362.45344  22809542.8984                   22809542.9884
 -36700418.51748 -28580775.29246  20699757.0704                   20699752.6954
 11  8  3  0 46  0.0000000  0  9G09G28G10G17G12G04G05G27G02
 -24272784.46847 -18896910.50645  22714410.4694                   22714410.3324
 -71567084.32846 -55752773.06943  23904204.2274                   23904203.7464
 -25585596.50748 -19920308.35346  21531711.9384                   21531710.8244
 -61882206.42847 -48203006.56645  22516488.6884                   22516486.9494
 -11478578.81847  -8928737.59345  22777017.5474                   22777015.8674
 -50861736.29248 -39614645.66346  20668711.5474                   20668709.8284
   -854021.62847   -649379.50644  23870224.6254                   23870224.0904
 -34911393.07247 -27187904.90945  23104415.6804                   23104415.7894
 -35229048.18848 -27434252.94146  20979749.0394                   20979745.1334
 11  8  3  0 46 30.0000000  0  9G09G28G10G17G12G04G05G27G02
 -24293277.97547 -18912879.52245  22710511.3674                   22710510.7234
 -71544669.39146 -55735307.00843  23908468.4534                   23908470.0044
 -25713326.96448 -20019838.54245  21507405.8984                   21507403.8554
 -61912709.95247 -48226775.57445  22510684.0394                   22510682.0044
 -11638895.68947  -9053659.79445  22746510.2344                   22746508.3444
 -50880463.24748 -39629238.09846  20665147.7274                   20665146.3634
  -1033114.63247   -788932.30644  23836143.6094                   23836144.5044
 -34936887.66647 -27207770.89545  23099564.8594                   23099564.9654
 -35332683.35348 -27515007.59846  20960027.9304                   20960024.4064
 11  8  3  0 47  0.0000000  0  9G09G28G10G17G12G04G05G27G02
 -24313270.79547 -18928458.39645  22706706.5314                   22706706.9144
 -71521957.34046 -55717609.43143  23912791.1254                   23912791.2034
 -25840512.14247 -20118943.84146  21483203.0474                   21483202.0864
 -61943052.72647 -48250419.31445  22504909.7424                   22504908.0434
 -11798942.23147  -9178371.36145  22716054.4144                   22716052.2274
 -50898791.48748 -39643519.83546  20661660.0704                   20661658.5274
  -1212116.59447   -928414.15244  23802081.2584                   23802081.1374
 -34962030.14747 -27227362.49044  23094779.8754                   23094780.4924
 -35435901.93148 -27595437.63946  20940386.1884                   20940381.9734
 11  8  3  0 47 30.0000000  0  9G09G28G10G17G12G04G05G27G02
 -24332767.22647 -18943650.47145  22702997.0634                   22702996.2114
 -71498951.28046 -55699682.73243  23917168.8834                   23917169.2114
 -25967150.79648 -20217623.26346  21459104.6804                   21459102.9844
 -61973235.53747 -48273938.42645  22499166.1954                   22499164.1254
 -11958716.91147  -9302871.05845  22685650.5084                   22685648.7894
 -50916725.00348 -39657494.00946  20658247.7194                   20658246.0274
  -1391025.69147  -1067823.65944  23768035.6334                   23768036.2504
 -34986824.31147 -27246682.72544  23090062.0084                   23090062.6254
 -35538705.89448 -27675544.60746  20920823.1954                   20920819.2464
 11  8  3  0 48  0.0000000  0  9G09G28G10G17G12G04G05G27G02
 -24351767.38447 -18958455.86645  22699381.5704                   22699380.7894
 -71475649.86246 -55681525.92143  23921603.3914                   23921603.4654
 -26093237.17547 -20315872.35146  21435111.1564                   21435109.5124
 -62003254.86347 -48297330.12645  22493453.9774                   22493452.3794
 -12118214.63047  -9427154.98545  22655299.2344                   22655297.3094
 -50934263.01648 -39671159.99546  20654910.4614                   20654908.6884
  -1569836.38647  -1207156.46344  23734008.9384                   23734008.9924
 -35011269.91747 -27265731.31944  23085410.8134                   23085410.3714
 -35641092.67248 -27755326.50246  20901339.6804                   20901335.7074
 11  8  3  0 48 30.0000000  0  9G09G28G10G17G12G04G05G27G02
 -24370278.61947 -18972880.26645  22695858.8284                   22695858.4064
 -71452059.89146 -55663144.17243  23926093.0704                   23926092.8204
 -26218773.36248 -20413692.72846  21411222.2194                   21411220.7934
 -62033114.60847 -48320597.47445  22487770.9384                   22487769.7234
 -12277436.99447  -9551224.32845  22625000.0944                   22624997.9344
 -50951412.37748 -39684523.13846  20651646.9224                   20651645.1374
  -1748550.07147  -1346413.65744  23700000.2344                   23700001.6454
 -35035373.58047 -27284513.48244  23080823.1254                   23080823.4694
 -35743067.15448 -27834787.12846  20881934.4774                   20881930.7584
 11  8  3  0 49  0.0000000  0  9G09G28G10G17G12G04G05G27G02
 -24388304.30547 -18986926.31045  22692428.5394                   22692428.5434
 -71428183.64646 -55644539.41243  23930636.3134                   23930635.4184
 -26343757.23648 -20511082.73146  21387438.2034                   21387436.9024
 -62062814.78447 -48343740.49645  22482119.4694                   22482117.9574
 -12436381.89847  -9675077.48345  22594753.9774                   22594751.2854
 -50968175.87248 -39697585.61146  20648456.8054                   20648455.2234
  -1927164.23246  -1485593.31444  23666010.8524                   23666012.2544
 -35059138.37947 -27303031.57244  23076301.6414                   23076301.4694
 -35844630.20548 -27913927.16846  20862608.1954                   20862603.6334
 11  8  3  0 49 30.0000000  0  9G09G28G10G17G12G04G05G27G02
 -24405847.06247 -19000596.05445  22689090.4694                   22689090.2584
 -71404022.27146 -55625712.50143  23935234.4694                   23935233.9654
 -26468186.07748 -20608040.23846  21363760.7734                   21363759.1844
 -62092354.56047 -48366758.52945  22476498.8054                   22476496.6644
 -12595046.45747  -9798712.17445  22564560.8134                   22564558.9384
 -50984555.49848 -39710348.96946  20645339.9774                   20645338.2584
  -2105675.69947  -1624692.93144  23632041.8204                   23632042.2934
 -35082566.46047 -27321287.30244  23071843.2894                   23071843.0704
 -35945781.74748 -27992746.54046  20843359.5394                   20843354.8134
 11  8  3  0 50  0.0000000  0  9G09G28G10G17G12G04G05G27G02
 -24422910.44947 -19013892.25345  22685842.9924                   22685842.3284
 -71379578.55546 -55606665.55843  23939885.5084                   23939885.9264
 -26592057.96648 -20704563.74746  21340188.6414                   21340187.0084
 -62121733.98947 -48389651.60545  22470908.4224                   22470907.0634
 -12753428.92647  -9922127.06645  22534421.6644                   22534419.4734
 -51000554.13948 -39722815.44946  20642295.5474                   20642293.3914
  -2284082.23847  -1763710.83144  23598091.5864                   23598091.9264
 -35105660.87347 -27339283.04444  23067447.8984                   23067448.9614
 -36046523.00448 -28071246.19546  20824188.8834                   20824185.1254
 11  8  3  0 50 30.0000000  0  9G09G28G10G17G12G04G05G27G02
 -24439497.51747 -19026817.28645  22682686.9924                   22682686.6134
 -71354853.88746 -55587399.70543  23944590.1254                   23944590.4804
 -26715370.05048 -20800651.06446  21316722.9384                   21316720.8364
 -62150952.70947 -48412419.49045  22465348.5634                   22465346.0784
 -12911526.71347 -10045320.11545  22504336.8444                   22504334.0704
 -51016174.22848 -39734986.96146  20639322.9924                   20639321.2194
  -2462380.83447  -1902644.61444  23564162.6024                   23564162.9304
 -35128424.15947 -27357020.73444  23063117.1024                   23063117.0124
 -36146854.28548 -28149426.40646  20805096.3524                   20805092.0274
 11  8  3  0 51  0.0000000  0  9G09G28G10G17G12G04G05G27G02
 -24455606.92746 -19039370.12545  22679621.1884                   22679621.2384
 -71329846.25646 -55567913.34043  23949349.2274                   23949350.3954
 -26838115.74148 -20896297.02545  21293365.2034                   21293363.9964
 -62180005.37647 -48435057.94345  22459819.2194                   22459817.6804
 -13069332.90147 -10168285.96045  22474306.8134                   22474304.4694
 -51031413.93948 -39746862.08046  20636422.9844                   20636421.3054
  -2640564.62047  -2041488.94644  23530255.6724                   23530256.1764
 -35150854.48447 -27374498.98944  23058848.2274                   23058848.1914
 -36246771.65248 -28227284.08346  20786082.8134                   20786078.3914
 11  8  3  0 51 30.0000000  0  9G09G28G10G17G12G04G05G27G02
 -24471250.36547 -19051559.88844  22676644.6334                   22676644.3594
 -71304565.93746 -55548214.55243  23954160.1254                   23954160.7234
 -26960301.24548 -20991506.47546  21270114.1644                   21270112.6954
 -62208900.48647 -48457573.64845  22454320.7504                   22454318.9804
 -13226853.20547 -10291029.01845  22444332.0634                   22444330.1484
 -51046284.02548 -39758449.17846  20633593.2344                   20633591.8674
  -2818639.09547  -2180248.10044  23496368.3284                   23496368.7464
 -35172963.02247 -27391726.51244  23054641.3984                   23054642.0664
 -36346284.31948 -28304826.40746  20767146.2584                   20767141.9104
 11  8  3  0 52  0.0000000  0  9G09G28G10G17G12G04G05G27G02
 -24486429.36047 -19063387.73045  22673756.2424                   22673755.3954
 -71279013.09046 -55528303.30243  23959023.3204                   23959023.0314
 -27081922.70548 -21086276.40546  21246970.2034                   21246968.4844
 -62237635.76647 -48479964.78745  22448852.6804                   22448851.5824
 -13384083.92847 -10413546.43945  22414412.0944                   22414409.7424
 -51060785.38448 -39769748.95346  20630833.5704                   20630831.9774
  -2996599.77747  -2318918.57244  23462503.7814                   23462503.8794
 -35194750.60247 -27408703.94544  23050495.4924                   23050496.1844
 -36445390.99648 -28382052.36746  20748286.8134                   20748282.6604
 11  8  3  0 52 30.0000000  0  9G09G28G10G17G12G04G05G27G02
 -24501143.97147 -19074853.73545  22670956.8284                   22670956.3754
 -71253186.69246 -55508178.97643  23963937.5784                   23963938.0084
 -27202974.53148 -21180602.48146  21223935.1174                   21223933.5124
 -62266207.62647 -48502228.61345  22443415.6644                   22443413.8364
 -13541019.12047 -10535833.57045  22384547.7584                   22384545.7194
 -51074917.28848 -39780760.86346  20628144.3834                   20628142.8014
  -3174440.62647  -2457495.70945  23428661.4384                   23428661.9414
 -35216216.65847 -27425430.80844  23046410.3914                   23046410.4804
 -36544089.36848 -28458960.18746  20729505.1564                   20729500.5984
 11  8  3  0 53  0.0000000  0  9G09G28G10G17G12G04G05G27G02
 -24515394.49247 -19085958.09345  22668244.4924                   22668244.3284
 -71227086.19346 -55487841.05543  23968904.1484                   23968904.7664
 -27323451.72848 -21274480.78546  21201008.8914                   21201007.3014
 -62294612.91147 -48524362.62845  22438010.1254                   22438008.5274
 -13697653.78847 -10657886.55045  22354741.3754                   22354739.4804
 -51088679.35248 -39791484.57846  20625525.7114                   20625523.9734
  -3352156.25247  -2595975.25144  23394843.2194                   23394843.0784
 -35237361.25047 -27441907.19244  23042387.4614                   23042387.1484
 -36642377.19548 -28535548.07846  20710801.3914                   20710797.3834
 11  8  3  0 53 30.0000000  0  9G09G28G10G17G12G04G05G27G02
 -24529189.17846 -19096707.23645  22665619.4924                   22665619.6214
 -71200718.57946 -55467294.98243  23973922.1414                   23973922.5314
 -27443357.33548 -21367913.69546  21178191.4224                   21178190.2384
 -62322856.22547 -48546370.42845  22432635.7424                   22432634.8404
 -13853990.55247 -10779707.35945  22324991.2344                   22324989.6054
 -51102079.29548 -39801926.10146  20622975.7034                   20622974.4184
  -3529748.83847  -2734358.93544  23361048.1564                   23361048.7194
 -35258191.96447 -27458138.99944  23038422.9454                   23038423.8754
 -36740259.91448 -28611820.29846  20692175.3984                   20692170.9264
 11  8  3  0 54  0.0000000  0  9G09G28G10G17G12G04G05G27G02
 -24542529.24646 -19107102.15445  22663080.9774                   22663081.0204
 -71174083.47846 -55446540.55743  23978990.4064                   23978989.9774
 -27562686.82147 -21460897.69746  21155483.6094                   21155482.3794
 -62350934.84947 -48568249.91345  22427292.9614                   22427291.3164
 -14010024.79347 -10901292.45645  22295298.8754                   22295296.9654
 -51115117.20847 -39812085.53546  20620494.7114                   20620493.0944
  -3707213.40347  -2872642.88044  23327277.6884                   23327277.7194
 -35278709.35947 -27474126.64944  23034518.8914                   23034519.3834
 -36837736.13048 -28687775.77246  20673626.0634                   20673621.8714
 11  8  3  0 54 30.0000000  0  9G09G28G10G17G12G04G05G27G02
 -24555418.19946 -19117145.54445  22660628.8834                   22660628.4654
 -71147183.51246 -55425579.60542  23984109.4534                   23984110.2624
 -27681438.21548 -21553431.20746  21132886.1174                   21132884.1564
 -62378849.04247 -48590001.24345  22421981.2194                   22421979.4494
 -14165754.26947 -11022640.06745  22265664.8594                   22265662.8874
 -51127796.13248 -39821965.25046  20618082.4694                   20618080.2894
  -3884547.45547  -3010825.11644  23293532.0634                   23293531.7544
 -35298916.43047 -27489872.50044  23030673.9224                   23030674.6374
 -36934807.00448 -28763415.39946  20655153.8284                   20655149.6094
 11  8  3  0 55  0.0000000  0  9G09G28G10G17G12G04G05G27G02
 -24567858.31247 -19126839.20645  22658261.0554                   22658259.9964
 -71120019.58446 -55404412.98443  23989278.6804                   23989278.9344
 -27799608.31248 -21645511.77746  21110399.1334                   21110397.6414
 -62406597.25547 -48611623.27045  22416700.1414                   22416698.9694
 -14321175.59447 -11143747.56345  22236088.9384                   22236086.6254
 -51140117.50048 -39831566.33546  20615737.4694                   20615735.7384
  -4061747.41647  -3148902.90744  23259811.7504                   23259811.9224
 -35318814.85447 -27505377.84144  23026887.0004                   23026887.5354
 -37031472.31048 -28838738.98146  20636759.5314                   20636755.1414
 11  8  3  0 55 30.0000000  0  9G09G28G10G17G12G04G05G27G02
 -24579854.40046 -19136186.84144  22655978.2894                   22655978.5704
 -71092595.24646 -55383043.60943  23994497.2734                   23994497.6294
 -27917196.58548 -21737138.96946  21088022.5784                   21088021.3674
 -62434180.44647 -48633116.69845  22411451.6564                   22411450.4884
 -14476287.91547 -11264614.27445  22206572.0704                   22206570.0274
 -51152085.18048 -39840891.81946  20613459.8834                   20613458.3134
  -4238811.64147  -3286874.89644  23226117.5944                   23226117.9104
 -35338408.72247 -27520645.85644  23023158.7894                   23023159.2624
 -37127733.72848 -28913747.85846  20618441.1724                   20618436.8554
 11  8  3  0 56  0.0000000  0  9G09G28G10G17G12G04G05G27G02
 -24591413.16046 -19145193.72445  22653778.4694                   22653778.4064
 -71064916.03346 -55361475.46843  23999764.7974                   23999765.6294
 -28034204.17048 -21828313.67446  21065756.8674                   21065755.0944
 -62461601.38347 -48654483.67845  22406233.8754                   22406232.5944
 -14631092.01047 -11385240.79745  22177114.0004                   22177111.8674
 -51163704.99648 -39849946.24046  20611248.8054                   20611247.2034
  -4415740.71647  -3424741.57345  23192449.2344                   23192448.8014
 -35357704.28347 -27535681.44744  23019487.3284                   23019487.6454
 -37223595.57648 -28988445.38246  20600198.8364                   20600194.5904
 11  8  3  0 56 30.0000000  0  9G09G28G10G17G12G04G05G27G02
 -24602534.67146 -19153859.90244  22651662.3284                   22651661.8444
 -71036981.50046 -55339708.39542  24005081.0394                   24005080.7114
 -28150626.48448 -21919032.32746  21043602.3834                   21043600.4384
 -62488857.29147 -48675722.10345  22401047.1414                   22401045.7344
 -14785582.60447 -11505623.05545  22147715.7274                   22147713.4414
 -51174976.92847 -39858729.57946  20609104.0634                   20609102.2934
  -4592529.46747  -3562498.90645  23158807.1644                   23158808.3134
 -35376701.69647 -27550484.71044  23015871.4454                   23015871.9964
 -37319056.06248 -29062830.15046  20582033.6724                   20582029.2074
 11  8  3  0 57  0.0000000  0  9G09G28G10G17G12G04G05G27G02
 -23037799.40146 -17934585.71744  22949421.4924                   22949421.0704
 -69433371.56446 -54090142.28643  24310237.5634                   24310238.6954
 -26691034.72548 -20781688.06646  21321353.7504                   21321352.0474
 -60940523.79147 -47469228.47945  22695684.9384                   22695684.2664
 -13364329.47747 -10398153.04545  22418170.5634                   22418168.9344
 -49610480.18347 -38639641.22346  20906817.9064                   20906816.1214
  -3193746.24547  -2472537.81145  23424986.7734                   23424986.6214
 -33819980.01947 -26337454.89144  23312106.3204                   23312106.8444
 -35838689.58748 -27909297.81046  20863738.0084                   20863733.8324
 11  8  3  0 57 30.0000000  0  9G09G28G10G17G12G04G05G27G02
 -23048055.64446 -17942577.65745  22947469.5864                   22947469.8794
 -69404930.57846 -54067980.62443  24315649.8834                   24315650.2504
 -26806278.28448 -20871488.20546  21299423.5314                   21299421.4384
 -60967446.00147 -47490206.84745  22690561.9304                   22690560.2704
 -13518184.08848 -10518039.72845  22388893.0944                   22388890.8364
 -49621061.63348 -38647886.52746  20904804.1804                   20904802.8594
  -3370243.72047  -2610068.16945  23391399.7814                   23391399.9964
 -33838386.88347 -26351797.96444  23308603.3834                   23308604.0084
 -35933347.07648 -27983056.86446  20845725.3984                   20845721.0664
 11  8  3  0 58  0.0000000  0  9G09G28G10G17G12G04G05G27G02
 -23057880.71847 -17950233.59545  22945600.5944                   22945600.7274
 -69376236.04346 -54045621.30943  24321110.2814                   24321111.3674
 -26920925.96448 -20960824.02246  21277606.6804                   21277604.8794
 -60994197.62247 -47511052.27845  22685470.8914                   22685470.0904
 -13671713.79147 -10637673.22745  22359677.2114                   22359675.1564
 -49631298.38148 -38655863.22946  20902856.2034                   20902854.6804
  -3546587.93447  -2747479.11045  23357842.9924                   23357843.3164
 -33856499.43647 -26365911.75444  23305156.7584                   23305157.0314
 -36027600.83948 -28056501.33346  20827789.6724                   20827785.3444
 11  8  3  0 58 30.0000000  0  9G09G28G10G17G12G04G05G27G02
 -23067285.55647 -17957562.12045  22943810.8284                   22943811.3054
 -69347297.48046 -54023071.96043  24326616.3284                   24326619.2774
 -27034983.18548 -21049699.74846  21255902.1484                   21255900.2034
 -61020785.79247 -47531770.36145  22680411.9534                   22680410.0234
 -13824923.70647 -10757057.54246  22330522.4924                   22330520.1954
 -49641200.21248 -38663578.95546  20900971.8284                   20900970.0864
  -3722783.77647  -2884774.44345  23324313.6094                   23324313.6804
 -33874327.74147 -26379804.01244  23301764.8754                   23301764.5744
 -36121459.39348 -28129637.85346  20809928.6644                   20809924.7304
 11  8  3  0 59  0.0000000  0  9G09G28G10G17G12G04G05G27G02
 -23076270.97447 -17964563.79745  22942101.1954                   22942100.6334
 -69318114.81746 -54000332.30943  24332170.2584                   24332172.2154
 -27148445.98548 -21138112.28246  21234310.9304                   21234309.5434
 -61047207.34247 -47552358.61145  22675384.3364                   22675382.4414
 -13977809.00147 -10876188.92146  22301429.5234                   22301427.3874
 -49650767.55948 -38671034.04946  20899151.5474                   20899149.5434
  -3898826.06447  -3021950.11145  23290813.7114                   23290814.2114
 -33891872.20147 -26393475.12644  23298425.8054                   23298426.0204
 -36214921.15348 -28202465.18946  20792143.5004                   20792139.8754
 11  8  3  0 59 30.0000000  0  9G09G28G10G17G12G04G05G27G02
 -23084835.41246 -17971237.42745  22940471.3364                   22940471.1884
 -69288685.75746 -53977400.62543  24337771.4614                   24337772.0124
 -27261307.58348 -21226056.35546  21212834.1564                   21212832.5704
 -61073457.21547 -47572813.07245  22670389.3054                   22670387.6214
 -14130362.15447 -10995061.48046  22272399.5164                   22272397.0084
 -49659997.92048 -38678226.54246  20897394.9774                   20897393.3874
  -4074706.96047  -3159000.03045  23257345.2504                   23257344.9144
 -33909130.83847 -26406923.46444  23295141.9924                   23295142.4654
 -36307981.64248 -28274979.83146  20774434.5704                   20774430.3284
 11  8  3  1  0  0.0000000  0  9G09G28G10G17G12G04G05G27G02
 -23092985.98246 -17977588.57845  22938920.2274                   22938920.2974
 -69259015.73946 -53954281.27743  24343417.0944                   24343418.5354
 -27373569.45248 -21313533.10546  21191471.5864                   21191469.5434
 -61099538.76547 -47593136.37845  22665425.2274                   22665424.1484
 -14282584.81047 -11113676.51745  22243432.2504                   22243430.2934
 -49668897.58648 -38685161.36446  20895701.4774                   20895699.8594
  -4250427.45047  -3295924.94345  23223906.2894                   23223906.7584
 -33926110.22847 -26420154.23144  23291911.4614                   23291911.4534
 -36400645.64448 -28347185.52346  20756801.1094                   20756797.1134
 11  8  3  1  0 30.0000000  0  9G09G28G10G17G12G04G05G27G02
 -23100725.30047 -17983619.24245  22937447.7974                   22937447.3874
 -69229105.76646 -53930974.86043  24349108.2814                   24349110.6174
 -27485228.58048 -21400540.17746  21170223.4064                   21170221.6914
 -61125450.44647 -47613327.32645  22660494.7114                   22660493.4454
 -14434473.17347 -11232031.05946  22214529.0084                   22214526.6214
 -49677467.61948 -38691839.32746  20894070.5474                   20894068.9184
  -4425983.44447  -3432721.68645  23190499.2734                   23190498.3404
 -33942812.00447 -26433168.70144  23288733.3444                   23288733.2234
 -36492912.58248 -28419081.81846  20739243.3834                   20739238.7734
 11  8  3  1  1  0.0000000  0  8G09G10G17G12G04G05G27G02
 -23108059.36547 -17989334.14745  22936052.3134                   22936052.2854
 -27596285.97348 -21487078.39146  21149089.6484                   21149087.6254
 -61151194.55647 -47633387.70945  22655596.3054                   22655594.6524
 -14586027.61147 -11350125.40946  22185689.2034                   22185686.9494
 -49685713.61448 -38698264.78846  20892501.4144                   20892499.9414
  -4601375.25747  -3569390.50545  23157123.1334                   23157121.9574
 -33959241.71947 -26445971.17344  23285606.2034                   23285607.0234
 -36584786.18748 -28490671.63546  20721760.3444                   20721756.1414
 11  8  3  1  1 30.0000000  0  8G09G10G17G12G04G05G27G02
 -23114988.43347 -17994733.48445  22934732.9844                   22934733.7544
 -27706736.77148 -21573143.92746  21128071.9534                   21128070.0514
 -61176767.80247 -47653314.91945  22650729.5634                   22650728.2544
 -14737242.54047 -11467955.20046  22156913.9774                   22156911.6294
 -49693634.90648 -38704437.24246  20890994.1804                   20890992.4304
  -4776597.02747  -3705926.84645  23123779.3054                   23123779.1214
 -33975399.26247 -26458561.53644  23282531.5474                   23282532.8484
 -36676264.62248 -28561953.51846  20704352.7034                   20704348.7544
 11  8  3  1  2  0.0000000  0  8G09G10G17G12G04G05G27G02
 -23121503.13947 -17999809.92044  22933493.7424                   22933493.7734
 -27816566.26348 -21658725.35746  21107171.7584                   21107169.6484
 -61202156.70247 -47673098.51145  22645897.9844                   22645896.6524
 -14888103.02547 -11585508.81845  22128206.0004                   22128203.5594
 -49701221.20748 -38710348.66346  20889550.7424                   20889548.9414
  -4951632.77147  -3842318.19745  23090470.7894                   23090469.6804
 -33991274.43947 -26470931.92244  23279510.8834                   23279511.0204
 -36767335.42148 -28632917.76346  20687022.5394                   20687018.3244
 11  8  3  1  2 30.0000000  0  8G09G10G17G12G04G05G27G02
 -23127602.51447 -18004562.73745  22932332.8984                   22932333.4414
 -27925768.22048 -21743817.75646  21086391.1094                   21086389.8364
 -61227355.85647 -47692734.22245  22641103.3674                   22641101.9224
 -15038601.74147 -11702780.52845  22099566.7974                   22099564.3834
 -49708470.45748 -38715997.43946  20888171.2504                   20888169.4224
  -5126475.49747  -3978559.15945  23057199.3444                   23057199.0664
 -34006865.70446 -26483081.06944  23276544.0004                   23276544.3984
 -36857995.17448 -28703561.71346  20669770.2734                   20669766.4264
 11  8  3  1  3  0.0000000  0  8G09G10G17G12G04G05G27G02
 -23133297.00347 -18009000.05044  22931249.5084                   22931248.7774
 -28034347.91948 -21828425.29446  21065729.2034                   21065727.7274
 -61252373.08947 -47712228.19945  22636342.1334                   22636340.8914
 -15188743.74847 -11819774.27545  22070996.0704                   22070993.5904
 -49715392.43048 -38721391.19746  20886853.8674                   20886852.3714
  -5301129.36047  -4114652.94645  23023963.9144                   23023962.4774
 -34022182.78647 -26495016.55744  23273629.1954                   23273629.8284
 -36948251.60848 -28773891.39146  20652595.1804                   20652591.4734
 11  8  3  1  3 30.0000000  0  8G09G10G17G12G04G05G27G02
 -23138591.00947 -18013125.31545  22930242.4844                   22930242.0664
 -28142304.41848 -21912547.23046  21045186.0314                   21045184.3984
 -61277208.59847 -47731580.56045  22631616.7114                   22631614.8524
 -15338527.53348 -11936488.88445  22042493.3524                   22042490.7664
 -49721990.26848 -38726532.38746  20885598.3914                   20885596.1604
  -5475592.50247  -4250598.11545  22990764.2974                   22990763.4884
 -34037229.46447 -26506741.34444  23270765.2664                   23270766.8094
 -37038106.76048 -28843908.38346  20635496.2894                   20635492.2304
 11  8  3  1  4  0.0000000  0  8G09G10G17G12G04G05G27G02
 -23143489.20046 -18016942.12745  22929309.5634                   22929310.8364
 -28249637.74748 -21996183.57046  21024761.0634                   21024759.6294
 -61301863.10847 -47750791.89745  22626925.1024                   22626923.5084
 -15487951.86047 -12052923.41245  22014058.7814                   22014056.4494
 -49728267.92348 -38731424.07946  20884403.9924                   20884401.9614
  -5649863.28747  -4386393.41845  22957601.9384                   22957601.4964
 -34052010.01747 -26518258.77644  23267953.6414                   23267954.3484
 -37127562.54648 -28913614.18146  20618473.3984                   20618469.3834
 11  8  3  1  4 30.0000000  0  8G09G10G17G12G04G05G27G02
 -23147996.97047 -18020454.74944  22928452.7974                   22928451.7464
 -28356347.63848 -22079334.11446  21004455.1334                   21004452.9494
 -61326337.85947 -47769863.14545  22622267.4454                   22622266.3054
 -15637015.92248 -12169077.20246  21985692.8754                   21985690.4774
 -49734229.56548 -38736069.52946  20883269.6414                   20883267.4224
  -5823940.85847  -4522038.11845  22924475.6564                   22924475.4304
 -34066529.18247 -26529572.49444  23265190.1254                   23265191.8014
 -37216621.84148 -28983011.01646  20601525.8524                   20601521.9384
 11  8  3  1  5  0.0000000  0  8G09G10G17G12G04G05G27G02
 -23152118.79947 -18023666.60444  22927668.1954                   22927668.6564
 -28462433.37348 -22161998.30346  20984267.4844                   20984265.7624
 -61350633.30647 -47788794.68545  22617644.4144                   22617642.9614
 -15785718.24048 -12284949.11446  21957395.6174                   21957393.1294
 -49739878.79348 -38740471.54546  20882194.7974                   20882193.2584
  -5997823.24747  -4657530.76345  22891386.9924                   22891386.5554
 -34080790.74146 -26540685.52544  23262476.2274                   23262477.6024
 -37305286.61548 -29052100.43546  20584653.7274                   20584649.0984
 11  8  3  1  5 30.0000000  0  8G09G10G17G12G04G05G27G02
 -23155860.37947 -18026582.19644  22926956.3524                   22926956.1484
 -28567895.68748 -22244176.69846  20964198.6334                   20964196.5664
 -61374751.60647 -47807588.17345  22613054.7344                   22613053.1524
 -15934058.97248 -12400539.25846  21929167.2034                   21929164.5864
 -49745220.33948 -38744633.80046  20881177.8834                   20881176.1214
  -6171510.08047  -4792871.03045  22858335.3204                   22858334.3914
 -34094799.76746 -26551601.73744  23259810.2734                   23259811.5904
 -37393559.77648 -29120884.70346  20567855.9924                   20567851.9184
 11  8  3  1  6  0.0000000  0  8G09G10G17G12G04G05G27G02
 -23159221.96146 -18029201.70544  22926315.8364                   22926316.6804
 -28672729.78448 -22325865.58346  20944249.1254                   20944247.5634
 -61398688.92147 -47826240.64045  22608499.7664                   22608498.2234
 -16082032.51248 -12515843.29846  21901008.6484                   21901006.7074
 -49750253.26248 -38748555.56446  20880219.7034                   20880218.5744
  -6344995.43747  -4928054.31545  22825322.1254                   22825321.0944
 -34108555.72847 -26562320.77144  23257193.1254                   23257194.1414
 -37481439.20248 -29189362.16246  20551133.0164                   20551128.8164
 11  8  3  1  6 30.0000000  0  8G09G10G17G12G04G05G27G02
 -23162209.21146 -18031529.50844  22925748.4614                   22925748.3054
 -28776936.16147 -22407065.33246  20924419.3594                   20924417.4774
 -61422446.89547 -47844753.37645  22603978.8834                   22603977.1094
 -16229638.65047 -12630861.02546  21872919.9774                   21872917.7664
 -49754982.49448 -38752240.69546  20879320.3364                   20879318.5744
  -6518278.55247  -5063079.98745  22792347.3364                   22792346.9104
 -34122063.79146 -26572846.63044  23254622.9694                   23254623.8284
 -37568928.19848 -29257535.38746  20534484.3284                   20534479.8984
 11  8  3  1  7  0.0000000  0  8G09G10G17G12G04G05G27G02
 -23164823.17346 -18033566.41444  22925250.9304                   22925250.9224
 -28880511.02248 -22487772.99846  20904709.5394                   20904708.1764
 -61446023.25847 -47863124.56945  22599492.6564                   22599490.2544
 -16376872.18647 -12745588.43046  21844902.7814                   21844900.4024
 -49759408.09748 -38755689.21446  20878478.4224                   20878476.4654
  -6691354.21747  -5197944.03245  22759411.7894                   22759411.5124
 -34135324.47046 -26583179.72944  23252099.4774                   23252100.4494
 -37656024.98148 -29325403.00446  20517910.1174                   20517906.1994
 11  8  3  1  7 30.0000000  0  8G09G10G17G12G04G05G27G02
 -23167072.16647 -18035318.96644  22924823.3204                   22924822.8094
 -28983457.58748 -22567991.06646  20885120.0474                   20885118.2544
 -61469422.16847 -47881357.50845  22595039.6094                   22595037.9224
 -16523735.73747 -12860027.53346  21816955.2974                   21816953.1024
 -49763537.23048 -38758906.72646  20877692.0634                   20877690.9454
  -6864224.24947  -5332647.82745  22726515.3204                   22726514.9414
 -34148345.36146 -26593325.98043  23249621.7114                   23249621.9924
 -37742735.33848 -29392969.49746  20501409.8364                   20501405.9924
 11  8  3  1  8  0.0000000  0  8G09G10G17G12G04G05G27G02
 -21593535.16346 -16809186.34944  23224256.6644                   23224257.0824
 -27510346.21348 -21420112.04546  21165443.3364                   21165442.1524
 -59917217.85847 -46671847.68445  22890413.6804                   22890412.2194
 -15094797.66547 -11746569.25946  22088873.1884                   22088870.9774
 -48191947.68648 -37534291.50646  21176755.9304                   21176754.5314
  -5461455.78947  -4239581.38945  22993453.6954                   22993452.7774
 -32585704.55846 -25375683.86244  23546982.8524                   23546983.6454
 -36253632.70848 -28232629.78346  20784776.6094                   20784772.2664
 11  8  3  1  8 30.0000000  0  8G09G10G17G12G04G05G27G02
 -21595059.75546 -16810374.42644  23223967.0704                   23223966.6134
 -27612026.47248 -21499343.39546  21146094.3524                   21146092.4924
 -59940255.31647 -46689798.96845  22886030.3444                   22886028.4024
 -15240908.84148 -11860422.09146  22061069.1174                   22061067.1844
 -48195486.12548 -37537048.74046  21176082.3134                   21176080.9184
  -5633901.16847  -4373954.31145  22960638.2344                   22960637.7894
 -32598249.41846 -25385459.16644  23544595.7114                   23544596.5634
 -36339568.12348 -28299592.42546  20768423.4534                   20768419.4264
 11  8  3  1  9  0.0000000  0  8G09G10G17G12G04G05G27G02
 -21596230.81447 -16811287.01444  23223744.4144                   23223745.0704
 -27713074.93148 -21578082.41846  21126865.3284                   21126863.2344
 -59963115.21547 -46707611.89145  22881679.6564                   22881679.0594
 -15386644.03947 -11973981.95746  22033336.5314                   22033334.2544
 -48198736.76848 -37539581.72446  21175463.7504                   21175462.3874
  -5806133.81747  -4508161.47045  22927863.4694                   22927862.7934
 -32610564.33146 -25395055.30144  23542252.0864                   23542253.4024
 -36425121.11848 -28366257.07346  20752143.2114                   20752139.2544
 11  8  3  1  9 30.0000000  0  8G09G10G17G12G04G05G27G02
 -21597050.67647 -16811925.96844  23223587.9694                   23223588.7464
 -27813488.62048 -21656326.81246  21107757.1644                   21107755.5044
 -59985795.82947 -46725285.12045  22877363.9694                   22877363.2894
 -15531999.53747 -12087245.95646  22005676.0004                   22005673.8404
 -48201700.65948 -37541891.25546  21174899.8054                   21174898.4454
  -5978149.57647  -4642199.60045  22895129.8834                   22895129.8284
 -32622650.89846 -25404473.50244  23539951.6564                   23539953.0634
 -36510291.38748 -28432623.49846  20735936.2274                   20735931.7194
 11  8  3  1 10  0.0000000  0  8G09G10G17G12G04G05G27G02
 -21597522.46747 -16812293.69644  23223498.3984                   23223498.6334
 -27913265.90247 -21734075.31546  21088769.8444                   21088768.1374
 -60008296.39347 -46742818.05145  22873082.2114                   22873080.8204
 -15676972.46348 -12200211.84546  21978088.8674                   21978086.9064
 -48204379.49448 -37543978.67746  21174389.9384                   21174388.8364
  -6149944.95547  -4776066.05845  22862438.3444                   22862437.2304
 -32634511.56146 -25413715.64644  23537694.8914                   23537695.9304
 -36595079.40748 -28498692.07446  20719801.3984                   20719797.1764
 11  8  3  1 10 30.0000000  0  8G09G10G17G12G04G05G27G02
 -21597650.80347 -16812393.79044  23223473.5234                   23223474.4384
 -28012406.51548 -21811327.70446  21069904.0474                   21069902.5354
 -60030617.14647 -46760210.87245  22868835.0164                   22868833.5944
 -15821561.26647 -12312878.43346  21950574.5704                   21950572.2664
 -48206776.73748 -37545846.67046  21173934.2274                   21173932.9494
  -6321517.99447  -4909759.23845  22829789.2194                   22829788.2734
 -32646150.17747 -25422784.77444  23535480.6254                   23535482.1684
 -36679486.85548 -28564464.09646  20703739.5944                   20703734.8364
 11  8  3  1 11  0.0000000  0  8G09G10G17G12G04G05G27G02
 -21597439.25147 -16812229.06744  23223514.5314                   23223515.5944
 -28110908.86148 -21888082.75146  21051159.7734                   21051158.8484
 -60052757.91347 -46777463.44645  22864621.4534                   22864620.7624
 -15965763.80147 -12425244.01246  21923133.8984                   21923131.3834
 -48208894.94748 -37547497.24746  21173530.8444                   21173529.3874
  -6492866.21247  -5043277.26345  22797182.9614                   22797181.7384
 -32657569.58046 -25431683.11044  23533307.2034                   23533308.7584
 -36763515.11448 -28629940.64846  20687749.1724                   20687744.8404
 11  8  3  1 11 30.0000000  0  8G09G10G17G12G04G05G27G02
 -21596892.39347 -16811803.04344  23223618.9384                   23223618.8364
 -28208772.55748 -21964340.15046  21032537.3594                   21032535.8204
 -60074719.12147 -46794576.09445  22860443.5084                   22860441.4774
 -16109578.30147 -12537307.23946  21895767.1094                   21895764.3444
 -48210737.70948 -37548933.18346  21173179.8984                   21173178.7154
  -6663987.50947  -5176618.43245  22764619.3204                   22764618.3714
 -32668773.57346 -25440413.58144  23531175.2344                   23531176.6884
 -36847166.28748 -28695123.37346  20671831.1334                   20671826.5824
 11  8  3  1 12  0.0000000  0  8G09G10G17G12G04G05G27G02
 -21596015.21947 -16811119.60844  23223786.2504                   23223785.8524
 -28305998.02048 -22040100.22546  21014035.3914                   21014033.7774
 -60096501.94447 -46811549.76345  22856297.3444                   22856296.8484
 -16253003.91347 -12649067.43246  21868473.8594                   21868470.9024
 -48212309.04848 -37550157.63246  21172881.1254                   21172879.6174
  -6834880.92647  -5309782.03345  22732098.7894                   22732098.6294
 -32679766.66147 -25448979.72144  23529083.7814                   23529085.0474
 -36930443.11448 -28760014.39246  20655983.8834                   20655979.6764
 11  8  3  1 12 30.0000000  0  8G09G10G17G12G04G05G27G02
 -21594808.63047 -16810179.50044  23224014.9694                   23224015.1374
 -28402581.46248 -22115360.02546  20995656.4144                   20995654.7424
 -60118103.36047 -46828382.05745  22852187.0944                   22852185.5354
 -16396036.29048 -12760521.21046  21841255.7344                   21841253.2894
 -48213608.50648 -37551170.21946  21172633.6954                   21172632.1294
  -7005540.70847  -5442763.60345  22699623.8834                   22699622.2544
 -32690548.93446 -25457381.57644  23527031.9064                   23527032.7814
 -37013343.53148 -28824612.09947  20640208.4454                   20640204.3484
 11  8  3  1 13  0.0000000  0  8G09G10G17G12G04G05G27G02
 -21593275.29747 -16808984.78644  23224307.4844                   23224307.5744
 -28498520.68948 -22190117.84946  20977399.6414                   20977398.1094
 -60139522.24647 -46845072.14345  22848111.9454                   22848110.2114
 -16538671.71548 -12871665.67546  21814112.5084                   21814110.4924
 -48214637.72748 -37551972.24246  21172437.9774                   21172436.4494
  -7175963.49047  -5575560.49545  22667192.9844                   22667192.6484
 -32701122.49246 -25465620.85944  23525019.8594                   23525020.9064
 -37095867.82348 -28888916.73446  20624504.6334                   20624500.5594
 11  8  3  1 13 30.0000000  0  8G09G10G17G12G04G05G27G02
 -21591419.19647 -16807538.56744  23224660.6414                   23224659.9614
 -28593814.58348 -22264372.81846  20959265.8914                   20959263.6294
 -60160758.45647 -46861619.86745  22844070.2664                   22844069.3324
 -16680908.26947 -12982499.33646  21787046.1254                   21787043.6134
 -48215399.58048 -37552565.91146  21172293.5084                   21172291.5474
  -7346146.77247  -5708170.75345  22634807.8444                   22634807.0124
 -32711491.06846 -25473700.35544  23523047.0864                   23523048.1134
 -37178017.35148 -28952929.34746  20608872.0944                   20608867.9414
 11  8  3  1 14  0.0000000  0  8G09G10G17G12G04G05G27G02
 -21589245.94447 -16805845.19244  23225074.6024                   23225075.2074
 -28688464.46148 -22338125.94546  20941254.9534                   20941252.6524
 -60181813.38147 -46878026.32645  22840063.5084                   22840062.0354
 -16822745.76848 -13093022.04546  21760055.7584                   21760053.0864
 -48215898.67248 -37552954.83946  21172198.3984                   21172196.5354
  -7516089.89947  -5840593.89145  22602469.4064                   22602468.8404
 -32721659.49746 -25481623.90444  23521112.2114                   23521112.9844
 -37259795.39048 -29016652.49146  20593310.2814                   20593305.9024
 11  8  3  1 14 30.0000000  0  8G09G10G17G12G04G05G27G02
 -21586756.76447 -16803905.66344  23225548.0004                   23225549.5744
 -28782466.61248 -22411374.35746  20923366.3204                   20923364.5204
 -60202685.05547 -46894290.01645  22836092.4304                   22836091.0514
 -16964179.69148 -13203230.27546  21733141.8284                   21733139.0784
 -48216134.97548 -37553138.97746  21172153.6724                   21172152.0084
  -7685787.44147  -5972825.66745  22570176.3364                   22570176.0864
 -32731628.39547 -25489391.98244  23519215.3134                   23519216.0044
 -37341200.83548 -29080085.28146  20577819.0004                   20577814.9224
 11  8  3  1 15  0.0000000  0  8G09G10G17G12G04G05G27G02
 -21583960.51847 -16801726.83644  23226080.3204                   23226080.7974
 -28875825.02948 -22484121.15646  20905601.0234                   20905599.3364
 -60223377.84447 -46910414.28745  22832154.6564                   22832153.6174
 -17105212.31948 -13313125.81646  21706303.8364                   21706301.7194
 -48216115.84148 -37553124.08946  21172156.8834                   21172155.1954
  -7855241.76847  -6104867.92045  22537930.7734                   22537929.9574
 -32741405.70146 -25497010.80044  23517355.1884                   23517356.1764
 -37422239.70648 -29143232.45547  20562398.0474                   20562393.8524
 11  8  3  1 15 30.0000000  0  8G09G10G17G12G04G05G27G02
 -21580855.99247 -16799307.82444  23226671.1804                   23226671.3914
 -28968533.91048 -22556361.83346  20887959.0554                   20887956.8484
 -60243886.58647 -46926395.13645  22828251.8524                   22828249.8874
 -17245836.92047 -13422703.42446  21679543.7584                   21679541.2464
 -48215839.20848 -37552908.54446  21172209.8284                   21172207.7934
  -8024445.69346  -6236715.05045  22505732.0314                   22505731.2034
 -32750989.65046 -25504478.85044  23515531.1254                   23515532.4574
 -37502908.38348 -29206091.13446  20547047.3674                   20547043.0984
 11  8  3  1 16  0.0000000  0  9G09G25G10G17G12G04G05G27G02
 -21577446.22547 -16796650.93744  23227319.5004                   23227319.8014
  10771865.43357   8409187.82654  24572546.8054                   24572549.1884
 -29060591.69948 -22628095.15146  20870441.0474                   20870439.3014
 -60264210.43547 -46942231.94845  22824383.6804                   22824382.1374
 -17386050.78548 -13531960.96046  21652862.3984                   21652859.7934
 -48215306.98348 -37552493.83846  21172311.1094                   21172308.8484
  -8193395.43747  -6368364.12345  22473581.9694                   22473580.9534
 -32760382.70046 -25511798.22144  23513743.7664                   23513744.7304
 -37583207.57248 -29268661.92746  20531766.8834                   20531762.4224
 11  8  3  1 16 30.0000000  0  9G09G25G10G17G12G04G05G27G02
 -21573744.18147 -16793766.31544  23228024.4774                   23228024.6564
  10598099.42746   8273785.76544  24539480.9454                   24539481.6884
 -29152006.31848 -22699327.30046  20853045.2194                   20853044.1054
 -60284358.04347 -46957931.40945  22820550.3914                   22820548.3834
 -17525860.23047 -13640903.35846  21626257.0554                   21626254.9654
 -48214530.52048 -37551888.80946  21172459.0944                   21172457.4964
  -8362097.68447  -6499820.34345  22441478.9774                   22441477.7114
 -32769597.02446 -25518978.34444  23511990.9614                   23511992.2034
 -37663147.41148 -29330952.69947  20516555.1334                   20516550.8244
 11  8  3  1 17  0.0000000  0  9G09G25G10G17G12G04G05G27G02
 -21569756.82847 -16790659.34444  23228783.2894                   23228783.4064
  10424472.54346   8138492.14943  24506439.5704                   24506442.6564
 -29242780.71348 -22770060.56846  20835771.7974                   20835769.9384
 -60304332.82147 -46973496.18445  22816749.0554                   22816747.0124
 -17665267.13847 -13749532.10446  21599728.6954                   21599726.3984
 -48213515.94748 -37551098.25946  21172652.0314                   21172650.3284
  -8530552.90247  -6631084.08545  22409423.2424                   22409421.3954
 -32778639.07846 -25526024.21843  23510269.6024                   23510271.1724
 -37742732.72148 -29392967.20646  20501410.3834                   20501405.7114
 11  8  3  1 17 30.0000000  0  9G09G25G10G17G12G04G05G27G02
 -21565486.33747 -16787331.76944  23229595.5164                   23229596.2934
  10250988.44846   8003309.79143  24473426.7504                   24473428.6644
 -29332912.36748 -22840293.00846  20818620.2034                   20818618.0274
 -60324132.88446 -46988924.81245  22812981.5864                   22812979.5514
 -17804267.72947 -13857844.24446  21573277.6724                   21573275.1414
 -48212264.21848 -37550122.89346  21172890.1724                   21172888.6644
  -8698757.55247  -6762152.55645  22377414.5864                   22377413.5044
 -32787510.39146 -25532937.02144  23508581.9924                   23508583.0474
 -37821962.99548 -29454705.06546  20486333.3914                   20486328.9144
 11  8  3  1 18  0.0000000  0  9G09G25G10G17G12G04G05G27G02
 -21560935.78447 -16783785.94944  23230461.9064                   23230461.5744
  10077650.00446   7868240.97843  24440442.2504                   24440443.4344
 -29422399.58948 -22910023.28846  20801591.1484                   20801589.5744
 -60343757.29247 -47004216.59245  22809246.3834                   22809245.1954
 -17942858.70448 -13965837.19946  21546904.9224                   21546902.6724
 -48210777.21948 -37548964.21946  21173173.0084                   21173171.7664
  -8866707.70047  -6893022.75145  22345454.3674                   22345453.0784
 -32796213.30046 -25539718.60044  23506925.2274                   23506927.2584
 -37900838.96948 -29516166.86446  20471323.5084                   20471319.0744
 11  8  3  1 18 30.0000000  0  9G09G25G10G17G12G04G05G27G02
 -21556107.27047 -16780023.57144  23231380.4534                   23231381.6914
   9904461.08746   7733288.68643  24407484.4064                   24407486.3054
 -29511240.22048 -22979249.72846  20784685.3984                   20784683.4694
 -60363204.22147 -47019370.04045  22805546.4304                   22805544.7274
 -18081036.57148 -14073508.24646  21520610.5394                   21520608.0474
 -48209055.73548 -37547622.81546  21173500.8134                   21173498.8834
  -9034399.27847  -7023691.43445  22313544.4384                   22313542.8054
 -32804749.24147 -25546370.09444  23505301.5554                   23505303.3874
 -37979360.32348 -29577352.31347  20456381.7664                   20456377.0394
 11  8  3  1 19  0.0000000  0  9G09G25G10G17G12G04G05G27G02
 -19975584.95147 -15548447.83344  23532144.4534                   23532145.0204
  11306849.39646   8826058.88443  24674350.5004                   24674352.9964
 -28024010.70748 -21820369.56846  21067695.7584                   21067693.8794
 -58807052.89147 -45806784.62345  23101672.5704                   23101671.0554
 -16643374.74447 -12953252.26846  21794188.2034                   21794186.1644
 -46631682.45748 -36318500.78746  21473664.8914                   21473664.0124
  -7626404.19547  -5926552.33845  22581476.2274                   22581475.2274
 -31237701.31946 -24325293.88643  23803500.9064                   23803502.5274
 -36482105.71748 -28410660.41147  20741299.6884                   20741295.0904
 11  8  3  1 19 30.0000000  0  9G09G25G10G17G12G04G05G27G02
 -19970205.56547 -15544256.15344  23533167.8364                   23533169.2664
  11133972.02546   8691349.26143  24641453.2584                   24641454.0124
 -28111549.25348 -21888581.39646  21051038.1254                   21051035.9454
 -58826137.63547 -45821655.86144  23098040.1804                   23098037.9384
 -16780713.84247 -13060269.73746  21768053.8444                   21768051.0784
 -46629493.56548 -36316795.16746  21474081.5394                   21474080.1954
  -7793564.36347  -6056806.93945  22549667.1644                   22549666.5044
 -31245906.64146 -24331687.75744  23801939.1414                   23801940.7304
 -36559914.97948 -28471290.99146  20726492.9844                   20726488.8244
 11  8  3  1 20  0.0000000  0  9G09G25G10G17G12G04G05G27G02
 -19964550.42247 -15539849.66044  23534243.9144                   23534244.7114
  10961259.70146   8556768.27143  24608587.5084                   24608589.1914
 -28198429.65348 -21956280.40046  21034505.1024                   21034503.1414
 -58845035.17547 -45836381.24544  23094444.5314                   23094442.7074
 -16917623.90047 -13166952.87446  21742000.3674                   21741998.0864
 -46627068.43447 -36314905.47146  21474542.7344                   21474540.9494
  -7960448.73947  -6186846.65045  22517909.4534                   22517909.0864
 -31253945.16847 -24337951.61944  23800409.9774                   23800411.6254
 -36637364.35848 -28531641.14746  20711754.7424                   20711750.4224
 11  8  3  1 20 30.0000000  0  9G09G25G10G17G12G04G05G27G02
 -19958621.24847 -15535229.58344  23535372.7974                   23535372.5944
  10788716.64047   8422319.16143  24575753.2584                   24575754.5394
 -28284649.37248 -22023464.58046  21018097.8284                   21018096.1374
 -58863743.27547 -45850958.98645  23090883.9224                   23090882.9964
 -17054101.36748 -13273298.94046  21716029.9534                   21716027.4734
 -46624407.84448 -36312832.31046  21475049.1804                   21475047.4964
  -8127052.82347  -6316667.93745  22486205.9774                   22486205.3874
 -31261818.13446 -24344086.50543  23798911.3134                   23798913.7664
 -36714453.26348 -28591710.41546  20697085.7034                   20697081.0824
 11  8  3  1 21  0.0000000  0  9G09G25G10G17G12G04G05G27G02
 -19952421.76147 -15530398.90044  23536551.9924                   23536552.5164
  10616344.92647   8288003.55443  24542952.2424                   24542954.0044
 -28370207.74648 -22090133.42546  21001816.5084                   21001814.8984
 -58882261.56647 -45865388.82444  23087360.3754                   23087358.8054
 -17190143.56547 -13379305.82046  21690142.0314                   21690139.6524
 -46621513.96448 -36310577.35846  21475599.9454                   21475598.7034
  -8293374.21547  -6446268.93745  22454555.9384                   22454554.4344
 -31269528.65447 -24350094.78144  23797444.6564                   23797446.3914
 -36791182.75348 -28651499.62947  20682484.2894                   20682479.8984
 11  8  3  1 21 30.0000000  0  9G09G25G10G17G12G04G05G27G02
 -19945957.57347 -15525361.98244  23537782.8914                   23537782.7814
  10444145.10247   8153821.89544  24510183.4694                   24510185.8484
 -28455105.72748 -22156287.68146  20985660.9454                   20985659.3054
 -58900591.64447 -45879672.01945  23083871.8364                   23083870.1334
 -17325750.50547 -13484973.53746  21664336.2274                   21664334.0554
 -46618391.32948 -36308144.16946  21476194.2344                   21476192.4494
  -8459411.64547  -6575648.68445  22422960.1024                   22422959.3284
 -31277081.40947 -24355980.15744  23796007.9694                   23796008.6094
 -36867555.90548 -28711011.18546  20667950.9224                   20667946.5274
 11  8  3  1 22  0.0000000  0  9G09G25G10G17G12G04G05G27G02
 -19939229.10946 -15520119.13544  23539063.2034                   23539063.3054
  10272122.61547   8019778.35644  24477449.1724                   24477450.1764
 -28539339.57748 -22221924.42846  20969631.9384                   20969629.8134
 -58918730.12847 -45893805.89445  23080420.4064                   23080418.6054
 -17460916.78047 -13590297.88746  21638615.4384                   21638612.6524
 -46615039.10648 -36305532.08146  21476832.1804                   21476830.3284
  -8625159.23847  -6704802.57745  22391418.8524                   22391418.6994
 -31284476.21247 -24361742.46643  23794599.7894                   23794601.8634
 -36943570.76448 -28770243.52947  20653485.8444                   20653481.6524
 11  8  3  1 22 30.0000000  0  9G09G25G10G17G12G04G05G27G02
 -19932243.17146 -15514675.63544  23540392.9064                   23540392.5984
  10100276.65447   7885872.45344  24444748.0234                   24444749.4654
 -28622911.66548 -22287045.51946  20953729.0864                   20953726.8914
 -58936679.60847 -45907792.50545  23077004.8204                   23077004.1724
 -17595643.22347 -13695279.49546  21612977.8364                   21612975.5744
 -46611462.61348 -36302745.22446  21477512.5234                   21477511.4344
  -8790617.30647  -6833730.86945  22359933.0474                   22359933.1454
 -31291719.29947 -24367386.53344  23793221.3524                   23793223.5664
 -37019231.71048 -28829200.10146  20639087.8914                   20639083.5594
 11  8  3  1 23  0.0000000  0  9G09G25G10G17G12G04G05G27G02
 -19924999.52146 -15509031.29844  23541771.3834                   23541771.6254
   9928613.33147   7752108.84944  24412081.0084                   24412082.1994
 -28705817.89048 -22351647.75546  20937952.2894                   20937949.8834
 -58954435.47247 -45921628.28144  23073625.7034                   23073625.2194
 -17729923.74447 -13799913.62646  21587425.0394                   21587422.5634
 -46607660.42148 -36299782.49446  21478235.9224                   21478234.6884
  -8955779.55747  -6962428.65445  22328504.2814                   22328503.9144
 -31298809.88646 -24372911.73943  23791872.7504                   23791874.4574
 -37094536.09148 -28887878.82946  20624757.9694                   20624753.6214
 11  8  3  1 23 30.0000000  0  9G09G25G10G17G12G04G05G27G02
 -19917506.62046 -15503192.74344  23543196.5864                   23543197.4064
   9757129.83946   7618485.33344  24379449.3284                   24379451.4184
 -28788062.35648 -22415734.33546  20922301.7274                   20922299.5234
 -58972003.19547 -45935317.40445  23070283.2114                   23070281.8634
 -17863761.12947 -13904202.46046  21561956.7584                   21561953.7274
 -46603640.04848 -36296649.76045  21479001.2504                   21478999.8364
  -9120648.17947  -7090897.64145  22297130.7194                   22297129.3324
 -31305755.89846 -24378324.36443  23790551.5944                   23790552.0124
 -37169490.34648 -28946284.73747  20610494.4224                   20610490.0554
 11  8  3  1 24  0.0000000  0  9G09G25G10G17G12G04G05G27G02
 -19909766.81647 -15497161.85744  23544670.3834                   23544670.7934
   9585830.10846   7485005.10244  24346851.8524                   24346854.2774
 -28869643.28748 -22479303.87846  20906777.1254                   20906775.1374
 -58989381.05447 -45948858.58945  23066976.4694                   23066975.3134
 -17997151.95047 -14008143.33446  21536573.2974                   21536570.2424
 -46599402.27348 -36293347.61046  21479807.3594                   21479806.5514
  -9285219.07247  -7219134.61845  22265814.2974                   22265812.5784
 -31312558.80746 -24383625.44544  23789257.0864                   23789258.2304
 -37244094.10348 -29004417.52147  20596297.8054                   20596293.9694
 11  8  3  1 24 30.0000000  0  9G09G25G10G17G12G04G05G27G02
 -19901782.35747 -15490940.29344  23546189.6564                   23546190.2664
   9414717.83046   7351670.87844  24314289.8674                   24314290.7704
 -28950558.78148 -22542354.89746  20891379.6174                   20891377.3134
 -59006566.87747 -45962250.18845  23063705.7194                   23063705.0554
 -18130092.59448 -14111733.41346  21511275.3984                   21511272.5354
 -46594948.13848 -36289876.87245  21480655.3834                   21480653.3794
  -9449487.93247  -7347136.27645  22234554.6414                   22234553.6214
 -31319220.34347 -24388816.36043  23787988.7664                   23787990.7734
 -37318347.31448 -29062277.16146  20582168.2504                   20582163.7034
 11  8  3  1 25  0.0000000  0  9G09G25G10G17G12G04G05G27G02
 -19893559.88847 -15484533.28944  23547753.8594                   23547755.0354
   9243792.38446   7218482.26844  24281763.6334                   24281765.3834
 -29030810.89048 -22604888.99146  20876107.8984                   20876106.3204
 -59023563.22247 -45975494.10145  23060471.7664                   23060470.5744
 -18262583.76747 -14214973.25246  21486063.1724                   21486060.0514
 -46590282.65048 -36286241.43645  21481543.2584                   21481541.9104
  -9613455.18747  -7474902.88645  22203352.2344                   22203351.7344
 -31325746.35246 -24393901.69444  23786748.0704                   23786749.5084
 -37392254.01948 -29119866.79646  20568104.1094                   20568099.7074
 11  8  3  1 25 30.0000000  0  9G09G25G10G17G12G04G05G27G02
 -19885100.29247 -15477941.47044  23549363.1804                   23549364.7234
   9073058.75246   7085443.09943  24249273.9384                   24249275.5904
 -29110396.50948 -22666903.74146  20860963.3984                   20860961.0084
 -59040367.26447 -45988588.16045  23057274.0314                   23057272.5354
 -18394620.86647 -14317859.27446  21460937.4304                   21460934.8014
 -46585405.60648 -36282441.15545  21482471.1804                   21482469.9064
  -9777115.45947  -7602430.30245  22172209.0314                   22172207.6334
 -31332137.13846 -24398881.63243  23785531.5084                   23785533.0664
 -37465812.84048 -29177185.34746  20554106.1804                   20554101.9064
 11  8  3  1 26  0.0000000  0  9G09G25G10G17G12G04G05G27G02
 -19876410.87847 -15471170.58444  23551017.2034                   23551017.9024
   8902515.53646   6952552.32343  24216821.3524                   24216822.4264
 -29189318.93148 -22728401.71246  20845945.1724                   20845942.7274
 -59056982.67747 -46001535.26045  23054112.1174                   23054111.1174
 -18526205.19147 -14420392.49046  21435897.4694                   21435895.0824
 -46580323.12948 -36278480.80945  21483438.4064                   21483437.2664
  -9940469.63147  -7729719.19545  22141123.3594                   22141122.2344
 -31338399.59946 -24403761.62543  23784339.6024                   23784341.0744
 -37539028.79548 -29234236.73046  20540173.7664                   20540169.2814
 11  8  3  1 26 30.0000000  0  9G09G25G10G17G12G04G05G27G02
 -19867489.02747 -15464218.58844  23552715.3524                   23552716.5554
   8732171.41846   6819816.69844  24184405.7504                   24184407.4344
 -29267571.33148 -22789377.58546  20831054.2114                   20831052.1484
 -59073402.67647 -46014330.08745  23050987.6484                   23050986.6914
 -18657328.25247 -14522566.28246  21410945.3444                   21410942.8594
 -46575031.11848 -36274357.16345  21484445.3444                   21484443.6524
 -10103508.77147  -7856762.61345  22110098.2344                   22110096.7664
 -31344530.21746 -24408538.86043  23783172.9534                   23783175.3954
 -37611896.49748 -29291016.75746  20526307.2274                   20526303.0274
 11  8  3  1 27  0.0000000  0  9G09G25G10G17G12G04G05G27G02
 -19858341.03247 -15457090.37544  23554456.5084                   23554457.3364
   8562026.17446   6687236.07643  24152027.6644                   24152029.4144
 -29345155.97947 -22849833.12746  20816289.8984                   20816287.8324
 -59089629.70147 -46026974.54345  23047899.3054                   23047898.8714
 -18787990.78547 -14624381.21246  21386081.1254                   21386078.5354
 -46569534.61948 -36270074.19846  21485490.9924                   21485489.8794
 -10266232.75247  -7983560.45545  22079132.3984                   22079131.8954
 -31350534.61146 -24413217.75043  23782030.6954                   23782032.8834
 -37684420.39248 -29347528.86046  20512506.4534                   20512502.2814
 11  8  3  1 27 30.0000000  0  9G09G25G10G17G12G04G05G27G02
 -19848981.27147 -15449797.12844  23556236.2734                   23556238.2304
   8392071.56947   6554803.92743  24119687.1094                   24119687.4224
 -29422083.17348 -22909776.36146  20801651.0634                   20801649.3954
 -59105673.56247 -46039476.25445  23044846.6644                   23044845.8244
 -18918200.83848 -14725843.57046  21361302.8984                   21361300.6134
 -46563846.26648 -36265641.71445  21486573.7194                   21486572.1724
 -10428649.30047  -8110118.73645  22048225.9224                   22048224.7034
 -31356426.36346 -24417808.88043  23780909.0784                   23780911.4884
 -37756612.24848 -29403782.25447  20498769.0704                   20498765.0314
 11  8  3  1 28  0.0000000  0  9G09G25G10G17G12G04G05G27G02
 -19839407.15647 -15442336.85644  23558059.5314                   23558059.7304
   8222316.11747   6422527.01444  24087383.0314                   24087384.6724
 -29498346.64648 -22969202.41746  20787139.0004                   20787136.6994
 -59121528.31147 -46051830.59945  23041829.8284                   23041828.7894
 -19047950.30848 -14826947.04046  21336612.4924                   21336610.3094
 -46557962.16248 -36261056.69246  21487693.3054                   21487691.8834
 -10590749.52447  -8236430.53546  22017379.0164                   22017378.0664
 -31362202.20846 -24422309.66343  23779809.6644                   23779811.5864
 -37828467.21548 -29459773.13347  20485095.3204                   20485090.7624
 11  8  3  1 28 30.0000000  0  9G09G25G10G17G12G04G05G27G02
 -19829622.32847 -15434712.42144  23559921.1954                   23559922.6724
   8052761.85747   6290406.89144  24055118.1644                   24055119.7934
 -29573946.13948 -23028111.07346  20772752.6804                   20772750.2234
 -59137193.90747 -46064037.59245  23038848.7504                   23038846.8794
 -19177237.49448 -14927690.27946  21312010.2894                   21312007.5434
 -46551885.16848 -36256321.37445  21488850.1254                   21488848.4844
 -10752531.45347  -8362494.31146  21986593.0944                   21986591.7194
 -31367865.47746 -24426722.71043  23778732.7894                   23778734.7974
 -37899986.60748 -29515502.51147  20471485.5234                   20471481.4224
 11  8  3  1 29  0.0000000  0  9G09G25G10G17G12G04G05G27G02
 -19819629.61847 -15426926.02544  23561823.5234                   23561822.8634
   7883412.33847   6158446.29244  24022892.4924                   24022893.3524
 -29648880.30548 -23086501.30746  20758493.2114                   20758491.0084
 -59152668.62947 -46076095.83145  23035903.6954                   23035902.4414
 -19306058.91848 -15028070.59846  21287496.0704                   21287493.5234
 -46545616.09948 -36251436.40345  21490042.6644                   21490041.5944
 -10913991.00547  -8488306.88846  21955868.6804                   21955867.0354
 -31373417.86346 -24431049.34943  23777675.8754                   23777678.4774
 -37971170.50748 -29570970.48447  20457939.6174                   20457935.0664
 11  8  3  1 29 30.0000000  0  9G09G25G10G17G12G04G05G27G02
 -19809434.46447 -15418981.82244  23563763.6954                   23563763.9304
   7714268.17147   6026645.67544  23990705.1174                   23990706.4304
 -29723150.75848 -23144374.36346  20744359.8284                   20744357.7464
 -59167954.04247 -46088006.54745  23032995.6804                   23032993.6724
 -19434414.28247 -15128087.74746  21263070.7114                   21263068.1884
 -46539159.30948 -36246405.15345  21491271.2504                   21491270.2234
 -11075127.74547  -8613867.91846  21925205.1334                   21925203.7814
 -31378864.34946 -24435293.52143  23776640.0704                   23776642.0274
 -38042022.17647 -29626179.57547  20444457.5084                   20444453.1334
 11  8  3  1 30  0.0000000  0  9G09G25G10G17G12G04G05G27G02
 -18223620.99847 -14183283.09544  23865533.2274                   23865534.0474
   9120757.05847   7122611.03144  24258351.4304                   24258352.3484
 -28221334.78648 -21974128.13146  21030145.7194                   21030143.6134
 -57607629.79847 -44872169.50345  23329915.0234                   23329913.6884
 -17986878.28948 -14000137.59646  21538527.6954                   21538525.4344
 -44957097.24848 -35013629.54745  21792328.2894                   21792326.4264
  -9660512.92947  -7511570.59446  22194396.8524                   22194395.8204
 -29808787.97746 -23211857.48843  24075416.5634                   24075418.8634
 -36537120.76348 -28453529.11747  20730830.3364                   20730826.5084
 11  8  3  1 30 30.0000000  0  9G09G25G10G17G12G04G05G27G02
 -18213029.44847 -14175030.07244  23867549.1094                   23867550.2584
   8952032.76147   6991137.59144  24226244.3364                   24226244.5824
 -28294274.63247 -22030964.35346  21016266.3834                   21016264.2624
 -57622533.60747 -44883782.89544  23327079.0234                   23327076.6684
 -18114293.94048 -14099422.51746  21514281.3524                   21514279.1884
 -44950268.91748 -35008308.76745  21793627.3284                   21793625.8524
  -9820992.31247  -7636619.40446  22163858.9064                   22163858.1174
 -29814029.37746 -23215941.81943  24074418.9614                   24074421.5554
 -36607309.61048 -28508221.71147  20717473.7194                   20717469.4064
 11  8  3  1 31  0.0000000  0  9G09G25G10G17G12G04G05G27G02
 -18202246.55947 -14166627.91544  23869601.6334                   23869602.4654
   8783520.37647   6859829.28144  24194176.8674                   24194177.8404
 -28366550.58848 -22087283.27046  21002512.0164                   21002510.2304
 -57637247.86647 -44895248.54544  23324278.4924                   23324277.3714
 -18241238.15948 -14198340.06446  21490124.6724                   21490122.7424
 -44943260.19548 -35002847.44745  21794961.1174                   21794959.6134
  -9981141.06947  -7761410.59446  22133383.7344                   22133382.6684
 -29819174.30646 -23219951.01343  24073440.0864                   24073441.3794
 -36677170.57248 -28562658.82247  20704179.6724                   20704175.4534
 11  8  3  1 31 30.0000000  0  9G09G25G10G17G12G04G05G27G02
 -18191273.94347 -14158077.90544  23871689.6024                   23871690.3404
   8615224.46347   6728689.65244  24162150.8444                   24162152.4454
 -28438160.37648 -22143083.07246  20988885.7734                   20988883.5784
 -57651770.10147 -44906564.57344  23321514.8594                   23321513.1024
 -18367706.55548 -14296886.84346  21466058.5784                   21466056.1684
 -44936070.87448 -34997245.37445  21796329.1024                   21796327.6414
 -10140954.35147  -7885940.35446  22102971.5634                   22102970.8134
 -29824223.65746 -23223885.64943  24072478.8284                   24072480.7624
 -36746703.15948 -28616840.04746  20690948.3364                   20690944.0274
 11  8  3  1 32  0.0000000  0  9G09G25G10G17G12G04G05G27G02
 -18180116.88447 -14149384.19544  23873812.4454                   23873813.3364
   8447145.78347   6597719.25344  24130167.0554                   24130168.0634
 -28509105.42248 -22198364.91046  20975385.2424                   20975383.2114
 -57666101.68747 -44917732.03944  23318787.3134                   23318786.5354
 -18493698.69448 -14395062.51846  21442082.8524                   21442080.8984
 -44928704.71648 -34991505.52245  21797730.8914                   21797729.2304
 -10300431.27647  -8010208.01446  22072624.5784                   22072623.1644
 -29829181.72146 -23227749.21443  24071535.0634                   24071536.6804
 -36815909.73948 -28670767.23647  20677778.8914                   20677774.5824
 11  8  3  1 32 30.0000000  0  9G09G25G10G17G12G04G05G27G02
 -18168782.05947 -14140551.97944  23875969.9844                   23875970.3914
   8279283.79947   6466917.75144  24098223.7114                   24098225.0744
 -28579388.64747 -22253131.04646  20962010.7814                   20962008.5744
 -57680245.34147 -44928753.11544  23316096.5634                   23316094.9534
 -18619215.47848 -14492867.78546  21418197.8524                   21418195.5434
 -44921166.95348 -34985631.93945  21799165.3984                   21799163.7624
 -10459571.63747  -8134213.43546  22042341.3134                   22042339.4804
 -29834054.71146 -23231546.51243  24070607.5084                   24070610.0904
 -36884794.88848 -28724443.96246  20664670.1564                   20664666.2774
 11  8  3  1 33  0.0000000  0  9G09G25G10G17G12G04G05G27G02
 -18157271.06747 -14131582.49644  23878160.1024                   23878161.7194
   8111642.71047   6336288.36844  24066322.3134                   24066323.8204
 -28649008.31347 -22307380.11546  20948762.3594                   20948760.1054
 -57694198.92247 -44939626.05644  23313441.0784                   23313439.8364
 -18744253.33148 -14590299.86146  21394403.9144                   21394401.6334
 -44913457.92148 -34979624.91045  21800632.3594                   21800631.5124
 -10618371.23047  -8257953.31046  22012122.3364                   22012121.7074
 -29838843.77546 -23235278.31643  24069695.9454                   24069698.0744
 -36953358.00048 -28777869.75146  20651623.0084                   20651619.0864
 11  8  3  1 33 30.0000000  0  9G09G25G10G17G12G04G05G27G02
 -18145587.42347 -14122478.46544  23880383.4694                   23880385.5124
   7944225.09146   6205833.08544  24034463.6804                   24034465.4454
 -28717963.75847 -22361111.62246  20935640.3594                   20935638.3674
 -57707961.72647 -44950350.30644  23310821.8134                   23310820.5904
 -18868809.80048 -14687356.82846  21370701.6884                   21370699.2424
 -44905579.73148 -34973486.07945  21802131.2114                   21802130.2194
 -10776827.34747  -8381425.55146  21981969.1334                   21981967.7704
 -29843551.59646 -23238946.90843  24068801.0944                   24068803.3134
 -37021600.13348 -28831045.42747  20638636.9534                   20638632.5474
 11  8  3  1 34  0.0000000  0  9G09G25G10G17G12G04G05G27G02
 -18133734.33847 -14113242.39944  23882639.0234                   23882640.5234
   7777033.71047   6075554.11244  24002647.8834                   24002649.8364
 -28786255.16248 -22414325.68846  20922645.3594                   20922642.8404
 -57721533.67747 -44960925.84444  23308239.5084                   23308238.6724
 -18992882.75848 -14784037.03946  21347091.7114                   21347088.9344
 -44897534.39448 -34967216.99045  21803662.6334                   21803661.2114
 -10934936.96647  -8504627.79446  21951882.0784                   21951880.5274
 -29848181.00746 -23242554.37443  24067920.3594                   24067922.7344
 -37089522.70147 -28883972.08747  20625711.7734                   20625707.2734
 11  8  3  1 34 30.0000000  0  9G09G25G10G17G12G04G05G27G02
 -18121717.89247 -14103879.08644  23884925.7194                   23884925.7274
   7610068.52147   5945451.40743  23970875.7114                   23970877.4264
 -28853885.39348 -22467024.56746  20909775.5394                   20909773.6294
 -57734916.83047 -44971354.29444  23305693.7504                   23305691.7894
 -19116472.62648 -14880340.82946  21323573.0634                   21323570.7154
 -44889326.34448 -34960821.12145  21805224.3914                   21805223.0434
 -11092700.08847  -8627560.04446  21921860.6804                   21921859.1884
 -29852737.42646 -23246104.92443  24067053.1884                   24067056.1214
 -37157129.22448 -28936652.47946  20612846.8594                   20612842.4184
 11  8  3  1 35  0.0000000  0  9G09G25G10G17G12G04G05G27G02
 -18109540.91046 -14094390.60444  23887243.4304                   23887244.1684
   7443332.80947   5815527.52844  23939146.7114                   23939148.6954
 -28920853.21948 -22519207.26346  20897032.1564                   20897029.9144
 -57748109.44847 -44981634.23544  23303182.8364                   23303180.5234
 -19239576.50648 -14976265.91246  21300146.9304                   21300144.7424
 -44880956.80648 -34954299.41345  21806817.0004                   21806816.0004
 -11250113.09447  -8750219.46946  21891905.8524                   21891904.4184
 -29857222.74046 -23249600.13543  24066200.8594                   24066201.8984
 -37224420.15048 -28989086.94646  20600041.4844                   20600037.0904
 11  8  3  1 35 30.0000000  0  9G09G25G10G17G12G04G05G27G02
 -18097210.21047 -14084782.38644  23889589.4774                   23889590.8554
   7276825.77547   5685781.82744  23907462.3134                   23907463.2734
 -28987161.90047 -22570876.34246  20884413.9224                   20884412.0004
 -57761115.51547 -44991768.83644  23300707.8364                   23300705.6684
 -19362195.53048 -15071813.18846  21276813.4454                   21276810.8204
 -44872431.24748 -34947656.14045  21808439.5864                   21808437.9264
 -11407176.40347  -8872606.40346  21862017.8134                   21862016.5164
 -29861643.20546 -23253044.70043  24065359.0084                   24065361.1644
 -37291400.12648 -29041279.12446  20587295.8134                   20587291.5314
 11  8  3  1 36  0.0000000  0  9G09G25G10G17G12G04G05G27G02
 -18084731.18547 -14075058.60543  23891964.6954                   23891965.6684
   7110548.17547   5556214.91244  23875820.5084                   23875821.8094
 -29052813.05747 -22622033.07046  20871920.7424                   20871919.1214
 -57773935.99647 -45001758.80245  23298268.4844                   23298267.0474
 -19484329.76448 -15166982.72046  21253571.8914                   21253569.5234
 -44863753.48148 -34940894.24645  21810090.9064                   21810089.3244
 -11563889.34247  -8994720.32046  21832196.4304                   21832194.9534
 -29866003.35446 -23256442.40444  24064529.8984                   24064532.1254
 -37358072.14448 -29093231.33747  20574608.6094                   20574604.3754
 11  8  3  1 36 30.0000000  0  9G09G25G10G17G12G04G05G27G02
 -18072101.88346 -14065217.69843  23894366.7894                   23894367.9184
   6944507.84447   5426832.90744  23844224.3444                   23844225.6914
 -29117801.64948 -22672673.50946  20859553.9534                   20859552.0474
 -57786565.28347 -45011599.83345  23295865.1884                   23295863.7854
 -19605971.92148 -15261768.80546  21230424.6724                   21230421.7464
 -44854920.13948 -34934011.12145  21811771.7424                   21811770.5204
 -11720243.69547  -9116554.81246  21802443.0864                   21802441.9454
 -29870301.14346 -23259791.44243  24063711.4064                   24063713.2894
 -37424432.21148 -29144940.46546  20561980.8674                   20561976.6214
 11  8  3  1 37  0.0000000  0  9G09G25G10G17G12G04G05G27G02
 -18059327.22346 -14055263.52044  23896798.8444                   23896799.9734
   6778705.73947   5297636.51544  23812673.2194                   23812674.1374
 -29182129.37148 -22722798.97346  20847312.6804                   20847310.8754
 -57799004.38947 -45021292.62845  23293497.4614                   23293496.3794
 -19727121.47148 -15356171.04646  21207370.3834                   21207367.7974
 -44845934.86948 -34927009.61145  21813481.4924                   21813479.8754
 -11876238.65847  -9238109.26946  21772757.8754                   21772756.2584
 -29874540.67546 -23263095.12243  24062905.3524                   24062907.0204
 -37490483.07748 -29196408.65547  20549411.7194                   20549407.4844
 11  8  3  1 37 30.0000000  0  9G09G25G10G17G12G04G05G27G02
 -18046414.04846 -14045201.40344  23899256.2664                   23899258.1994
   6613141.08747   5168625.18044  23781166.9224                   23781168.0944
 -29245799.45047 -22772411.99346  20835196.5704                   20835194.6724
 -57811256.33047 -45030839.61545  23291166.3134                   23291164.1524
 -19847779.44448 -15450190.23046  21184410.0164                   21184407.1884
 -44836803.03348 -34919893.91845  21815219.2734                   21815218.0514
 -12031874.63247  -9359383.99646  21743141.5554                   21743139.6214
 -29878728.09746 -23266358.14843  24062108.4774                   24062110.9774
 -37556228.99848 -29247639.23246  20536900.5394                   20536896.2154
 11  8  3  1 38  0.0000000  0  9G09G25G10G17G12G04G05G27G02
 -18033361.79546 -14035030.91943  23901739.6644                   23901741.3524
   6447820.63447   5039804.10644  23749707.4534                   23749707.4414
 -29308808.11848 -22821509.62446  20823206.3594                   20823204.4694
 -57823316.65947 -45040237.28644  23288871.5474                   23288870.1054
 -19967939.93548 -15543821.77346  21161544.3284                   21161542.1484
 -44827522.42548 -34912662.28545  21816985.2194                   21816983.9924
 -12187144.63647  -9480373.53746  21713594.1484                   21713592.6414
 -29882862.04246 -23269579.55743  24061321.2734                   24061323.8794
 -37621667.65248 -29298630.37646  20524447.8134                   20524443.4184
 11  8  3  1 38 30.0000000  0  9G09G25G10G17G12G04G05G27G02
 -18020181.46846 -14024760.63743  23904247.6024                   23904249.5084
   6282739.26447   4911169.34944  23718293.2504                   23718293.7384
 -29371163.13348 -22870097.92046  20811340.4924                   20811338.6054
 -57835192.61247 -45049491.27144  23286611.8204                   23286609.7154
 -20087608.41248 -15637069.93446  21138772.0084                   21138769.8914
 -44818102.74248 -34905322.29745  21818777.5784                   21818776.4454
 -12342053.87447  -9601081.97646  21684116.1804                   21684114.1764
 -29886952.96446 -23272767.39443  24060543.4534                   24060545.2464
 -37686807.60048 -29349388.76847  20512052.1254                   20512048.1954
 11  8  3  1 39  0.0000000  0  9G09G25G10G17G12G04G05G27G02
 -18006873.31147 -14014390.76844  23906780.6094                   23906781.8244
   6117902.85747   4782725.47944  23686926.1484                   23686927.1174
 -29432861.47748 -22918174.50346  20799599.9064                   20799597.8874
 -57846880.78047 -45058598.93845  23284386.5944                   23284385.4534
 -20206779.82948 -15729930.76246  21116094.3914                   21116091.7234
 -44808542.37248 -34897872.66845  21820597.0944                   21820596.1054
 -12496596.42847  -9721504.67846  21654707.4694                   21654706.1094
 -29891000.37446 -23275921.34143  24059774.0234                   24059775.7464
 -37751646.71948 -29399912.73747  20499713.7664                   20499708.9964
 11  8  3  1 39 30.0000000  0  9G09G25G10G17G12G04G05G27G02
 -17993444.04847 -14003926.48743  23909336.3524                   23909338.0434
   5953310.49847   4654471.79044  23655605.0474                   23655605.1564
 -29493906.71848 -22965742.20546  20787983.5944                   20787981.2304
 -57858383.73047 -45067562.30344  23282197.9064                   23282197.2894
 -20325455.38548 -15822405.19846  21093511.1954                   21093508.7974
 -44798847.12547 -34890317.93645  21822441.8594                   21822440.7814
 -12650772.83547  -9841642.07546  21625368.9774                   21625367.1844
 -29895010.34746 -23279046.16843  24059010.6414                   24059012.0164
 -37816189.61248 -29450205.89046  20487431.8284                   20487426.8404
 11  8  3  1 40  0.0000000  0  9G09G25G10G17G12G04G05G27G02
 -17979892.66146 -13993367.11243  23911914.9224                   23911917.1524
   5788969.26547   4526413.76244  23624331.8914                   23624332.8954
 -29554294.32248 -23012797.44946  20776491.7894                   20776489.7584
 -57869697.19047 -45076377.99944  23280045.0864                   23280044.2584
 -20443628.69548 -15914488.27746  21071023.7734                   21071020.8324
 -44789014.15747 -34882655.89245  21824313.1484                   21824312.1844
 -12804575.73148  -9961488.42246  21596101.1094                   21596099.6684
 -29898981.39246 -23282140.57343  24058254.9224                   24058257.1644
 -37880433.12148 -29500265.75646  20475206.2894                   20475201.8554
 11  8  3  1 40 30.0000000  0  9G09G25G10G17G12G04G05G27G02
 -17966225.04046 -13982717.03543  23914515.9384                   23914517.6024
   5624879.20447   4398551.43744  23593106.3674                   23593106.9454
 -29614027.37448 -23059342.66046  20765125.5314                   20765123.0084
 -57880822.99347 -45085047.44944  23277928.2814                   23277927.0824
 -20561300.14148 -16006180.29546  21048631.2734                   21048629.7114
 -44779048.03047 -34874890.08345  21826210.0084                   21826207.9304
 -12958005.39047 -10081043.93846  21566904.2664                   21566902.4844
 -29902918.88646 -23285208.84243  24057505.9224                   24057509.0164
 -37944381.02548 -29550095.27746  20463037.5634                   20463033.2424
 11  8  3  1 41  0.0000000  0  9G09G25G10G17G12G04G05G27G02
 -17952445.52247 -13971979.83343  23917138.2584                   23917139.5554
   5461041.95147   4270886.09844  23561929.6564                   23561930.4964
 -29673107.19748 -23105378.87046  20753882.5394                   20753880.3164
 -57891761.90546 -45093571.29044  23275846.3284                   23275845.4804
 -20678468.88848 -16097480.59546  21026334.6884                   21026332.6564
 -44768951.51948 -34867022.67145  21828131.0944                   21828129.9844
 -13111059.84647 -10200307.09346  21537778.7664                   21537777.3674
 -29906826.43046 -23288253.85843  24056761.9454                   24056764.9844
 -38008035.58148 -29599696.21146  20450924.6094                   20450919.8484
 11  8  3  1 41 30.0000000  0  9G09G25G10G17G12G04G05G27G02
 -16363136.18747 -12733557.10344  24219573.5084                   24219576.1054
   6872887.45047   5371025.51644  23830593.8364                   23830595.6524
 -28156110.04447 -21923303.14146  21042557.5314                   21042555.0354
 -56327091.33647 -43874347.46144  23573593.1564                   23573592.5394
 -19219707.17548 -14960783.12946  21303928.0004                   21303925.6684
 -43183305.16147 -33631454.09545  22129868.9614                   22129868.2734
 -11688309.57748  -9091670.46346  21808519.4384                   21808518.0634
 -28335284.77046 -22063676.06443  24355815.7814                   24355819.2304
 -36495973.93948 -28421466.34647  20738660.0234                   20738655.5744
 11  8  3  1 42  0.0000000  0  9G09G25G10G17G12G04G05G27G02
 -16349139.60047 -12722650.73744  24222237.4384                   24222239.3754
   6709567.35347   5243763.18644  23799515.3444                   23799516.7664
 -28213880.63647 -21968319.16246  21031564.0864                   21031561.5984
 -56337651.58447 -43882576.24944  23571583.7424                   23571582.3244
 -19335861.15047 -15051292.70246  21281824.7584                   21281822.0234
 -43172949.85347 -33623385.02345  22131839.6564                   22131838.8714
 -11840602.26347  -9210340.02946  21779538.9384                   21779537.4224
 -28339137.13646 -22066677.98743  24355083.0084                   24355086.4694
 -36559041.50848 -28470609.89346  20726659.0784                   20726654.1414
 11  8  3  1 42 30.0000000  0  9G09G25G10G17G12G04G05G27G02
 -16335041.65046 -12711665.40743  24224919.5784                   24224921.7934
   6546507.41847   5116703.50944  23768486.0634                   23768487.3984
 -28270999.39048 -22012827.27346  21020695.0784                   21020692.7704
 -56348024.37247 -43890658.92244  23569609.7814                   23569609.4414
 -19451507.19448 -15141406.48446  21259818.0944                   21259815.4534
 -43162470.25247 -33615219.12145  22133834.2114                   22133833.3634
 -11992512.25547  -9328711.39146  21750631.1334                   21750629.8324
 -28342968.20546 -22069663.40143  24354354.9064                   24354356.2664
 -36621819.76548 -28519527.99946  20714712.7194                   20714708.5554
 11  8  3  1 43  0.0000000  0  9G09G25G10G17G12G04G05G27G02
 -16320845.10346 -12700603.26843  24227621.6644                   24227623.3794
   6383711.20247   4989849.37344  23737507.3524                   23737508.3754
 -28327465.60347 -22056826.90546  21009949.7894                   21009947.3634
 -56358208.13147 -43898594.31444  23567672.2504                   23567670.3874
 -19566642.36448 -15231122.17846  21237908.4534                   21237905.5864
 -43151867.50347 -33606957.24045  22135851.7504                   22135850.6884
 -12144036.08147  -9446781.85346  21721797.3284                   21721795.8244
 -28346779.89546 -22072633.69543  24353629.0784                   24353631.8204
 -36684309.10048 -28568220.96446  20702821.5474                   20702816.7664
 11  8  3  1 43 30.0000000  0  9G09G25G10G17G12G04G05G27G02
 -16306556.27946 -12689469.23343  24230340.3594                   24230342.4264
   6221178.54147   4863200.57044  23706577.8054                   23706579.5664
 -28383282.43747 -22100320.52946  20999327.8674                   20999326.1054
 -56368205.70647 -43906384.64344  23565769.1564                   23565768.7734
 -19681267.54448 -15320440.48546  21216095.9384                   21216093.5474
 -43141146.09547 -33598602.90045  22137892.2344                   22137890.7774
 -12295173.74947  -9564551.39746  21693036.4924                   21693034.6214
 -28350577.66246 -22075593.11543  24352906.2734                   24352910.1724
 -36746513.40348 -28616691.84247  20690984.5394                   20690979.5004
 11  8  3  1 44  0.0000000  0  9G09G25G10G17G12G04G05G27G02
 -16292177.01647 -12678264.75144  24233077.5314                   24233079.6174
   6058913.17647   4736760.05844  23675700.3134                   23675701.6054
 -28438449.27247 -22143307.64946  20988830.3524                   20988827.9884
 -56378015.17247 -43914028.36044  23563903.1724                   23563900.9884
 -19795379.53747 -15409358.88846  21194381.2584                   21194378.7234
 -43130306.69647 -33590156.62345  22139955.1174                   22139954.0824
 -12445922.01647  -9682017.52346  21664350.5554                   21664348.7274
 -28354363.34646 -22078543.10743  24352185.1724                   24352189.5904
 -36808432.65548 -28664940.58246  20679201.3524                   20679196.7114
 11  8  3  1 44 30.0000000  0  9G09G25G10G17G12G04G05G27G02
 -16277711.31746 -12666992.83443  24235829.6724                   24235831.6174
   5896916.95647   4610529.25644  23644873.4304                   23644874.1334
 -28492967.68148 -22185789.51446  20978455.6334                   20978453.2854
 -56387637.22447 -43921526.07644  23562072.6644                   23562071.3954
 -19908977.60848 -15497876.83846  21172764.0864                   21172761.4844
 -43119351.95147 -33581620.44045  22142039.3674                   22142037.8284
 -12596278.20947  -9799178.13946  21635738.2274                   21635736.8014
 -28358140.29646 -22081486.32143  24351468.3674                   24351471.1134
 -36870069.06048 -28712968.92546  20667472.3594                   20667467.5824
 11  8  3  1 45  0.0000000  0  9G09G25G10G17G12G04G05G27G02
 -16263161.13246 -12655655.15044  24238598.6174                   24238600.9734
   5735194.07647   4484511.47244  23614098.3674                   23614099.8754
 -28546836.48348 -22227765.18346  20968204.8914                   20968202.3204
 -56397070.11047 -43928876.34144  23560276.2034                   23560276.0354
 -20022058.06548 -15585991.44946  21151245.9384                   21151243.0354
 -43108282.01147 -33572994.51645  22144146.4924                   22144144.7504
 -12746238.47748  -9916030.23046  21607202.1564                   21607200.1134
 -28361909.80346 -22084423.72043  24350750.6094                   24350754.0864
 -36931422.44348 -28760776.73646  20655797.1254                   20655792.4694
 11  8  3  1 45 30.0000000  0  9G09G25G10G17G12G04G05G27G02
 -16248533.55846 -12644257.14843  24241382.6484                   24241384.9414
   5573743.24847   4358705.65944  23583375.4614                   23583376.9344
 -28600059.87048 -22269237.93746  20958076.2664                   20958074.5984
 -56406317.29147 -43936081.93644  23558517.2894                   23558516.0474
 -20134623.22448 -15673704.53746  21129825.3204                   21129822.4454
 -43097102.67247 -33564283.34945  22146273.6564                   22146271.8874
 -12895804.32348 -10032574.99346  21578740.3674                   21578738.7774
 -28365678.49146 -22087360.46543  24350032.9924                   24350036.2034
 -36992497.31848 -28808367.54346  20644174.7344                   20644170.2304
 11  8  3  1 46  0.0000000  0  9G09G25G10G17G12G04G05G27G02
 -16233832.69446 -12632802.01143  24244180.0634                   24244182.3054
   5412566.51147   4233113.42644  23552704.1484                   23552706.0944
 -28652639.24048 -22310208.85846  20948070.8364                   20948069.1454
 -56415378.74847 -43943142.83044  23556792.7664                   23556791.4264
 -20246671.91648 -15761015.18046  21108503.0634                   21108499.8984
 -43085816.34947 -33555488.83445  22148421.2734                   22148419.8054
 -13044973.64847 -10148810.76746  21550354.4144                   21550352.2074
 -28369449.64146 -22090299.16943  24349316.0474                   24349318.5514
 -37053295.88648 -28855743.02646  20632605.2114                   20632600.5784
 11  8  3  1 46 30.0000000  0  9G09G25G10G17G12G04G05G27G02
 -16219062.73346 -12621293.10643  24246990.8674                   24246993.3984
   5251665.66947   4107736.17244  23522085.5474                   23522086.3874
 -28704575.69148 -22350678.81046  20938187.9454                   20938185.7074
 -56424255.31446 -43950059.67244  23555103.7664                   23555102.5664
 -20358202.54548 -15847922.14146  21087279.5864                   21087276.5314
 -43074425.55447 -33546612.89245  22150588.9694                   22150587.4024
 -13193744.72447 -10264736.21846  21522043.9924                   21522042.3754
 -28373226.71246 -22093242.47743  24348597.3134                   24348600.7734
 -37113820.13248 -28902904.77046  20621088.0394                   20621083.6254
 11  8  3  1 47  0.0000000  0  9G09G25G10G17G12G04G05G27G02
 -16204222.23146 -12609729.20343  24249815.7664                   24249816.5514
   5091048.02147   3982579.59044  23491521.4844                   23491522.3524
 -28755865.35448 -22390644.74546  20928427.6954                   20928425.9804
 -56432942.06446 -43956828.56044  23553450.4774                   23553448.9884
 -20469209.52448 -15934421.05946  21066155.3284                   21066152.8014
 -43062927.33147 -33537653.24745  22152776.7584                   22152775.1954
 -13342109.99247 -10380345.46546  21493811.2194                   21493809.5314
 -28377007.50846 -22096188.70343  24347878.1254                   24347881.4574
 -37174066.56048 -28949850.03347  20609623.4844                   20609618.5514
 11  8  3  1 47 30.0000000  0  9G09G25G10G17G12G04G05G27G02
 -16189318.95646 -12598116.38044  24252651.3134                   24252653.0474
   4930711.60647   3857642.16744  23461010.4844                   23461011.9104
 -28806513.35248 -22430110.70546  20918789.5164                   20918787.8484
 -56441442.94946 -43963452.64644  23551832.7114                   23551832.1564
 -20579695.01248 -16020513.61946  21045130.5164                   21045127.8954
 -43051328.16847 -33528614.93345  22154983.5944                   22154982.4344
 -13490071.85448 -10495640.36146  21465654.6724                   21465653.0984
 -28380799.34646 -22099143.49443  24347156.8134                   24347160.1254
 -37234041.20448 -28996583.50346  20598210.7344                   20598205.7974
 11  8  3  1 48  0.0000000  0  9G09G25G10G17G12G04G05G27G02
 -16174356.90046 -12586457.74943  24255498.4384                   24255499.7894
   4770658.67047   3732925.62544  23430553.0394                   23430554.8524
 -28856521.01848 -22469077.69246  20909273.2814                   20909271.1604
 -56449758.16246 -43969932.05844  23550250.7424                   23550249.5824
 -20689657.43848 -16106198.59946  21024205.6564                   21024202.9454
 -43039630.07647 -33519499.53645  22157210.3754                   22157208.8324
 -13637627.96048 -10610619.09246  21437575.9384                   21437573.7854
 -28384605.39746 -22102109.32743  24346432.4304                   24346435.3054
 -37293745.55848 -29043106.36546  20586849.2734                   20586844.6954
 11  8  3  1 48 30.0000000  0  9G09G25G10G17G12G04G05G27G02
 -16159338.81246 -12574755.47343  24258356.8054                   24258357.7814
   4610891.93647   3608432.09644  23400150.5004                   23400151.0664
 -28905888.54947 -22507545.86246  20899879.7894                   20899877.2734
 -56457887.24247 -43976266.40744  23548703.9534                   23548702.3324
 -20799095.44748 -16191474.93246  21003379.9614                   21003377.0984
 -43027834.75047 -33510308.37345  22159454.8444                   22159453.3984
 -13784775.45148 -10725279.42746  21409574.5944                   21409572.9344
 -28388428.18846 -22105088.31843  24345704.5234                   24345707.9774
 -37353180.56048 -29089419.33446  20575538.9454                   20575534.5044
 11  8  3  1 49  0.0000000  0  9G09G25G10G17G12G04G05G27G02
 -16144268.43346 -12563012.43043  24261224.2114                   24261225.7664
   4451413.85447   3484163.52844  23369802.5944                   23369803.4184
 -28954617.32248 -22545516.30746  20890606.1484                   20890604.1844
 -56465830.19246 -43982455.71444  23547192.6804                   23547190.6954
 -20908007.27948 -16276341.25046  20982654.7814                   20982652.0944
 -43015944.04547 -33501042.88545  22161717.3444                   22161715.9614
 -13931512.42848 -10839619.87246  21381651.4304                   21381649.6914
 -28392270.72546 -22108082.54443  24344973.7114                   24344976.6134
 -37412347.74448 -29135523.62646  20564279.9774                   20564275.6804
 11  8  3  1 49 30.0000000  0  9G09G25G10G17G12G04G05G27G02
 -16129149.23546 -12551231.29743  24264100.8914                   24264104.0234
   4292226.95447   3360121.82344  23339510.4774                   23339511.6024
 -29002708.01548 -22582989.54246  20881455.0784                   20881452.7814
 -56473586.59446 -43988499.68344  23545716.2194                   23545715.6414
 -21016391.90548 -16360796.78746  20962029.8054                   20962027.3134
 -43003959.78747 -33491704.50345  22163997.6094                   22163996.1914
 -14077836.32148 -10953638.42946  21353806.7274                   21353804.4574
 -28396135.75046 -22111094.39043  24344237.2814                   24344242.3554
 -37471248.41648 -29181420.25046  20553071.7734                   20553067.3634
 11  8  3  1 50  0.0000000  0  9G09G25G10G17G12G04G05G27G02
 -16113984.56346 -12539414.83243  24266987.0864                   24266989.6024
   4133333.81947   3236309.03644  23309274.5004                   23309275.9264
 -29050161.31848 -22619966.13146  20872424.9774                   20872423.2274
 -56481156.27946 -43994398.13244  23544275.9844                   23544274.7424
 -21124247.13348 -16444839.81246  20941505.6644                   20941503.3984
 -42991883.79447 -33482294.64345  22166296.0234                   22166294.5784
 -14223744.64148 -11067333.18446  21326041.5234                   21326039.4574
 -28400025.90046 -22114125.86943  24343498.4774                   24343501.1484
 -37529884.07648 -29227110.37646  20541913.4064                   20541908.8094
 11  8  3  1 50 30.0000000  0  9G09G25G10G17G12G04G05G27G02
 -16098777.13046 -12527564.98743  24269881.6884                   24269883.0354
   3974737.34647   3112727.40944  23279094.6724                   23279095.3984
 -29096977.96747 -22656446.60646  20863515.8754                   20863514.3284
 -56488538.96246 -44000150.86444  23542870.9924                   23542870.0514
 -21231571.17148 -16528468.90946  20921082.4534                   20921080.0164
 -42979717.56247 -33472814.45645  22168611.4614                   22168609.6844
 -14369234.58748 -11180701.91846  21298355.3204                   21298353.2424
 -28403943.93246 -22117179.00143  24342753.0704                   24342754.8984
 -37588255.38048 -29272594.49846  20530805.8364                   20530801.1844
 11  8  3  1 51  0.0000000  0  9G09G25G10G17G12G04G05G27G02
 -16083532.98546 -12515686.56143  24272782.1884                   24272784.0554
   3816437.52747   2989376.97444  23248970.9304                   23248971.5824
 -29143161.42147 -22692433.69446  20854727.7274                   20854725.5204
 -56495736.84546 -44005759.62844  23541501.1174                   23541500.1374
 -21338364.81648 -16611684.71246  20900760.6024                   20900757.3794
 -42967465.24047 -33463267.20745  22170942.6094                   22170940.7624
 -14514306.22648 -11293744.70446  21270749.0394                   21270747.0314
 -28407894.77546 -22120257.66243  24342001.1414                   24342004.7154
 -37646366.42248 -29317875.81846  20519747.6414                   20519743.1724
 11  8  3  1 51 30.0000000  0  9G09G25G10G17G12G04G05G27G02
 -16068252.03746 -12503779.40043  24275690.0784                   24275692.3524
   3658440.49547   2866262.46345  23218905.0394                   23218905.8484
 -29188708.81448 -22727925.15546  20846060.3914                   20846058.1454
 -56502746.18146 -44011221.44044  23540167.7664                   23540165.2234
 -21444622.93348 -16694483.23346  20880539.9304                   20880537.2624
 -42955125.30147 -33453651.66845  22173290.7424                   22173289.5164
 -14658953.79548 -11406457.04546  21243223.6484                   21243221.7624
 -28411877.67946 -22123361.36743  24341243.1174                   24341246.8554
 -37704214.68948 -29362952.38346  20508739.5864                   20508734.9734
 11  8  3  1 52  0.0000000  0  9G09G25G10G17G12G04G05G27G02
 -16052943.32546 -12491850.64343  24278602.6414                   24278605.4024
   3500742.71147   2743381.13844  23188895.4614                   23188897.0314
 -29233627.41147 -22762926.64446  20837512.4454                   20837510.2934
 -56509572.65946 -44016540.76444  23538867.5554                   23538867.0554
 -21550350.23448 -16776868.12646  20860421.3364                   20860418.5204
 -42942705.18347 -33443973.64845  22175654.2664                   22175652.7504
 -14803180.82148 -11518841.69046  21215778.2504                   21215776.1094
 -28415901.47246 -22126496.90343  24340477.2504                   24340480.3714
 -37761807.41948 -29407829.82846  20497779.9774                   20497775.4924
 11  8  3  1 52 30.0000000  0  9G09G25G10G17G12G04G05G27G02
 -16037606.97346 -12479900.33543  24281521.8754                   24281524.2384
   3343350.01047   2620737.56044  23158944.9694                   23158946.2424
 -29277914.62847 -22797436.13246  20829084.6174                   20829082.1294
 -56516212.93247 -44021714.96244  23537605.1484                   23537603.7384
 -21655541.99448 -16858835.71646  20840403.4694                   20840400.8914
 -42930203.36347 -33434231.96745  22178033.2664                   22178031.3834
 -14946981.71348 -11630894.27946  21188413.6484                   21188411.7734
 -28419965.39246 -22129663.73643  24339704.3754                   24339707.7774
 -37819142.83648 -29452506.75147  20486869.5164                   20486865.0984
 11  8  3  1 53  0.0000000  0  8G09G25G10G17G12G04G05G02
 -14446825.36646 -11240330.36543  24584237.3914                   24584239.5704
   4761691.50247   3725938.79144  23428846.9924                   23428847.4144
 -27746148.67347 -21603852.25346  21120569.9924                   21120568.3914
 -54947245.25047 -42799142.74744  23836169.2424                   23836168.4454
 -20184771.74748 -15712780.97246  21120281.8594                   21120279.3364
 -41342200.90547 -32196827.46745  22480220.2734                   22480218.1334
 -13514927.95248 -10515008.18746  21460924.3284                   21460922.4064
 -36300799.04748 -28269381.71546  20775800.6174                   20775796.0204
 11  8  3  1 53 30.0000000  0  8G09G25G10G17G12G04G05G02
 -14431439.87246 -11228341.78143  24587166.0234                   24587167.3634
   4604920.24147   3603779.46244  23399013.3444                   23399015.0864
 -27789172.70447 -21637377.45046  21112382.7664                   21112380.4064
 -54953508.79447 -42804023.44344  23834977.1804                   23834976.4144
 -20288883.74448 -15793907.19146  21100470.3754                   21100467.7584
 -41329537.60647 -32186959.96245  22482629.3674                   22482628.1604
 -13657865.62948 -10626388.13346  21433724.1804                   21433722.7384
 -36357620.30448 -28313658.00746  20764987.8444                   20764983.6844
 11  8  3  1 54  0.0000000  0  8G09G25G10G17G12G04G05G02
 -14416029.47646 -11216333.76343  24590097.0784                   24590100.8364
   4448469.05047   3481869.49445  23369242.4224                   23369243.3834
 -27831561.46147 -21670407.65146  21104316.7504                   21104314.3164
 -54959578.23546 -42808752.84644  23833822.2734                   23833821.1604
 -20392448.25248 -15874606.79246  21080762.1414                   21080759.9344
 -41316790.49147 -32177027.15845  22485055.4924                   22485053.8284
 -13800362.98348 -10737424.98346  21406607.6724                   21406605.8054
 -36414180.85148 -28357731.13946  20754224.7664                   20754219.8874
 11  8  3  1 54 30.0000000  0  8G09G25G10G17G12G04G05G02
 -14400594.82346 -11204306.81343  24593035.1954                   24593037.7734
   4292342.81747   3360212.77345  23339532.3524                   23339532.7504
 -27873313.68847 -21702941.83746  21096371.2424                   21096369.1844
 -54965450.97547 -42813329.02344  23832704.9534                   23832702.5434
 -20495461.44347 -15954876.80246  21061159.3524                   21061157.2384
 -41303958.84847 -32167028.50245  22487497.5554                   22487496.5164
 -13942414.97448 -10848114.79546  21379576.4924                   21379574.5204
 -36470479.51548 -28401600.21446  20743511.6024                   20743506.7344
 11  8  3  1 55  0.0000000  0  8G09G25G10G17G12G04G05G02
 -14385139.32546 -11192263.69243  24595976.1174                   24595979.3204
   4136544.09347   3238811.24045  23309884.3524                   23309885.3524
 -27914430.46547 -21734980.86846  21088547.2274                   21088544.8984
 -54971126.87747 -42817751.81244  23831625.5004                   23831624.0704
 -20597921.91248 -16034716.11546  21041662.2114                   21041659.3484
 -41291044.29247 -32156965.21045  22489954.9144                   22489953.7934
 -14084019.25748 -10958455.73946  21352629.7344                   21352627.3244
 -36526517.55048 -28445266.20446  20732847.6724                   20732843.1484
 11  8  3  1 55 30.0000000  0  8G09G25G10G17G12G04G05G02
 -14369673.19546 -11180212.29343  24598919.0394                   24598921.9884
   3981068.69047   3117661.65144  23280298.4694                   23280299.7894
 -27954919.53247 -21766530.77546  21080842.3444                   21080840.5554
 -54976612.39446 -42822026.20544  23830580.7344                   23830579.5594
 -20699834.82848 -16114128.76646  21022268.7034                   21022266.5634
 -41278055.45247 -32146844.03645  22492426.6724                   22492425.3054
 -14225180.57048 -11068451.52846  21325767.6334                   21325765.5664
 -36582303.43448 -28488735.70546  20722231.9614                   20722227.6764
 11  8  3  1 56  0.0000000  0  8G09G25G10G17G12G04G05G02
 -14354203.35346 -11168158.00443  24601863.7504                   24601865.8524
   3825915.26147   2996762.91845  23250773.7974                   23250774.2584
 -27994786.04347 -21797595.58446  21073256.3284                   21073253.8754
 -54981911.60246 -42826155.46244  23829572.0314                   23829571.6374
 -20801202.97248 -16193116.91546  21002978.8754                   21002976.4344
 -41264997.69447 -32136669.15645  22494911.2734                   22494909.7544
 -14365900.34048 -11178103.24846  21298989.1564                   21298987.4414
 -36637841.95348 -28532012.46246  20711663.3754                   20711658.8444
 11  8  3  1 56 30.0000000  0  8G09G25G10G17G12G04G05G02
 -14338729.91846 -11156100.87943  24604808.2194                   24604811.2464
   3671089.43147   2876119.47845  23221311.0394                   23221312.1914
 -28034027.75047 -21828173.51946  21065788.5314                   21065786.2894
 -54987020.89446 -42830136.71044  23828599.3594                   23828599.3794
 -20902021.63448 -16271676.90246  20983793.8984                   20983791.1214
 -41251869.63847 -32126439.49445  22497409.4384                   22497408.2154
 -14506173.26848 -11287406.77346  21272296.5784                   21272294.5744
 -36693131.26948 -28575095.03147  20701141.9694                   20701137.6914
 11  8  3  1 57  0.0000000  0  8G09G25G10G17G12G04G05G02
 -14323259.11846 -11144045.84943  24607752.4694                   24607755.2424
   3516590.51847   2755730.78445  23191911.3524                   23191912.2504
 -28072649.52648 -21858268.39046  21058439.5944                   21058437.1764
 -54991943.37946 -42833972.40844  23827663.1414                   23827661.9964
 -21002292.54248 -16349810.06746  20964712.7504                   20964710.1524
 -41238676.03547 -32116158.76245  22499920.3984                   22499919.0004
 -14645999.93648 -11396362.56446  21245688.0554                   21245686.4344
 -36748175.84448 -28617986.89546  20690667.6414                   20690663.0824
 11  8  3  1 57 30.0000000  0  8G09G25G10G17G12G04G05G02
 -14307795.70046 -11131996.54043  24610694.1174                   24610697.2934
   3362419.95647   2635597.93744  23162573.1954                   23162574.3244
 -28110653.68747 -21887882.01546  21051206.8674                   21051205.2384
 -54996680.34346 -42837663.59444  23826761.6254                   23826759.9304
 -21102015.63248 -16427516.35646  20945736.1414                   20945733.6214
 -41225419.70347 -32105829.14845  22502442.7114                   22502441.4024
 -14785379.60048 -11504970.04446  21219165.0864                   21219163.4884
 -36802978.27448 -28660690.07046  20680238.9064                   20680234.4734
 11  8  3  1 58  0.0000000  0  8G09G25G10G17G12G04G05G02
 -14292345.42046 -11119957.53543  24613633.5554                   24613638.3524
   3208577.61347   2515720.85945  23133298.5084                   23133298.6844
 -28148043.91047 -21917017.24446  21044091.9614                   21044089.9694
 -55001234.00946 -42841211.89344  23825895.5314                   23825894.6914
 -21201192.19147 -16504796.78546  20926863.1644                   20926861.0164
 -41212104.87547 -32095453.95444  22504976.6644                   22504975.2974
 -14924312.59848 -11613229.47546  21192726.8914                   21192724.5984
 -36857542.55748 -28703207.68246  20669855.8204                   20669851.4844
 11  8  3  1 58 30.0000000  0  8G09G25G10G17G12G04G05G02
 -14276907.09946 -11107927.80843  24616572.5554                   24616575.8594
   3055070.22147   2396104.75345  23104086.3054                   23104087.6454
 -28184817.68147 -21945672.11846  21037094.3914                   21037091.4884
 -55005600.12146 -42844614.07944  23825065.6724                   23825063.1684
 -21299816.92248 -16581647.20746  20908095.7974                   20908093.1294
 -41198728.96247 -32085031.19845  22507521.9224                   22507520.7974
 -15062792.50548 -11721135.85046  21166375.5004                   21166373.4654
 -36911865.42648 -28745537.18046  20659518.5474                   20659513.6844
 11  8  3  1 59  0.0000000  0  8G09G25G10G17G12G04G05G02
 -14261488.64346 -11095913.50043  24619506.5234                   24619510.1884
   2901895.56747   2276747.90445  23074937.7344                   23074938.8364
 -28220981.17447 -21973851.45146  21030212.3204                   21030209.7384
 -55009783.38646 -42847873.78144  23824268.9924                   23824267.7344
 -21397893.10048 -16658070.19046  20889432.6484                   20889430.1684
 -41185298.36547 -32074565.79945  22510077.5084                   22510076.4534
 -15200821.91848 -11828691.19246  21140108.5554                   21140106.8404
 -36965953.13948 -28787683.42947  20649225.8444                   20649221.6374
 11  8  3  1 59 30.0000000  0  8G09G25G10G17G12G04G05G02
 -14246089.12946 -11083913.94343  24622437.3364                   24622439.2114
   2749060.41647   2157655.64445  23045854.9144                   23045855.9614
 -28256531.26648 -22001552.81446  21023447.3204                   21023445.2034
 -55013779.23546 -42850987.47044  23823508.4694                   23823506.4804
 -21495414.80948 -16734061.11946  20870874.7584                   20870871.9734
 -41171810.39947 -32064055.69444  22512644.9304                   22512642.7894
 -15338394.15648 -11935890.29246  21113929.6884                   21113927.5204
 -37019802.74848 -28829644.15046  20638978.4534                   20638974.1214
 11  8  3  2  0  0.0000000  0  8G09G25G10G17G12G04G05G02
 -14230717.21346 -11071935.98243  24625362.4534                   24625365.7344
   2596561.85947   2038825.63845  23016835.3754                   23016836.2384
 -28291474.65947 -22028781.42246  21016797.4694                   21016795.5234
 -55017593.17046 -42853959.36244  23822783.3444                   23822781.0004
 -21592386.97348 -16809623.84246  20852421.4224                   20852418.9304
 -41158271.99347 -32053506.30845  22515220.9924                   22515219.9534
 -15475512.74048 -12042735.90246  21087837.0084                   21087834.5664
 -37073420.88648 -28871424.51046  20628775.3364                   20628770.7854
 11  8  3  2  0 30.0000000  0  8G09G25G10G17G12G04G05G02
 -14215370.50146 -11059977.64443  24628283.0004                   24628286.5274
   2444408.03347   1920264.26545  22987881.2974                   22987882.0314
 -28325807.09248 -22055533.95146  21010264.6094                   21010262.6684
 -55021219.29046 -42856784.90544  23822092.1954                   23822091.0274
 -21688802.44648 -16884752.75746  20834074.1564                   20834071.3284
 -41144679.01647 -32042914.34045  22517806.8914                   22517805.3794
 -15612169.73048 -12149221.83446  21061832.1804                   21061830.1644
 -37126803.33548 -28913021.21546  20618617.0474                   20618612.3484
 11  8  3  2  1  0.0000000  0  8G09G25G10G17G12G04G05G02
 -14200054.75846 -11048043.41143  24631197.5784                   24631200.3754
   2292598.67547   1801971.28745  22958993.1644                   22958993.8954
 -28359533.02748 -22081813.89346  21003846.9694                   21003844.8554
 -55024660.44846 -42859466.37144  23821438.3914                   23821435.8484
 -21784662.97648 -16959449.26946  20815832.6334                   20815830.0984
 -41131035.77947 -32032283.24145  22520403.6174                   22520402.2424
 -15748365.91348 -12255348.66946  21035914.5634                   21035912.1804
 -37179954.16748 -28954437.42946  20608503.0234                   20608498.8874
 11  8  3  2  1 30.0000000  0  8G09G25G10G17G12G04G05G02
 -14184775.45646 -11036137.58943  24634105.9614                   24634108.7424
   2141133.92047   1683946.85145  22930170.3834                   22930171.1484
 -28392656.22448 -22107624.16146  20997544.0634                   20997540.8714
 -55027918.96946 -42862005.49843  23820818.0004                   23820815.9264
 -21879969.49948 -17033714.07246  20797696.1644                   20797693.4224
 -41117346.35147 -32021616.14444  22523008.3444                   22523007.1294
 -15884101.53148 -12361116.64646  21010085.2344                   21010083.0824
 -37232876.75248 -28995675.79546  20598431.9454                   20598427.1564
 11  8  3  2  2  0.0000000  0  8G09G25G10G17G12G04G05G02
 -14169533.66646 -11024260.99343  24637005.9844                   24637008.5234
   1990018.61447   1566194.70045  22901414.2194                   22901415.0944
 -28425175.80048 -22132964.07646  20991355.2034                   20991353.1414
 -55030992.07346 -42864400.14744  23820232.8524                   23820230.9494
 -21974718.61848 -17107544.55146  20779666.3754                   20779663.5594
 -41103609.90147 -32010912.41144  22525622.1414                   22525621.5234
 -16019371.82348 -12466522.02246  20984343.7664                   20984341.5554
 -37285570.19048 -29036735.59746  20588404.5704                   20588400.7624
 11  8  3  2  2 30.0000000  0  8G09G25G10G17G12G04G05G02
 -14154332.70546 -11012416.16243  24639898.6804                   24639901.8674
   1839254.77647   1448716.42645  22872724.5474                   22872725.2544
 -28457093.88448 -22157835.31846  20985281.3054                   20985279.0594
 -55033880.59746 -42866650.97844  23819683.2034                   23819681.5474
 -22068909.37348 -17180939.93446  20761742.3204                   20761739.9414
 -41089828.26147 -32000173.50045  22528244.6484                   22528244.1374
 -16154175.50948 -12571563.81446  20958691.6884                   20958689.8164
 -37338036.38848 -29077618.34746  20578420.5634                   20578416.2304
 11  8  3  2  3  0.0000000  0  8G09G25G10G17G12G04G05G02
 -14139176.47546 -11000606.16343  24642783.1644                   24642785.0864
   1688844.25547   1331513.46145  22844101.8134                   22844103.1684
 -28488412.33148 -22182239.29246  20979322.0394                   20979319.9454
 -55036584.95046 -42868758.25243  23819168.4924                   23819166.7664
 -22162541.63648 -17253900.12046  20743924.8134                   20743922.0904
 -41076003.69947 -31989401.11745  22530875.9304                   22530874.7464
 -16288511.06948 -12676240.82446  20933128.5084                   20933126.4024
 -37390277.03948 -29118325.32646  20568479.6644                   20568475.0314
 11  8  3  2  3 30.0000000  0  8G09G25G10G17G12G04G05G02
 -14124067.34446 -10988832.96343  24645657.1094                   24645661.3444
   1538790.40147   1214588.41845  22815548.2034                   22815548.8404
 -28519131.63848 -22206176.41546  20973476.3674                   20973473.6294
 -55039104.07646 -42870721.21043  23818689.3674                   23818687.1294
 -22255613.37648 -17326423.54346  20726213.5474                   20726211.1884
 -41062136.91547 -31978595.82745  22533514.9304                   22533513.1884
 -16422375.38348 -12780550.64146  20907654.7424                   20907652.8484
 -37442292.62948 -29158856.93846  20558581.4844                   20558577.0824
 11  8  3  2  4  0.0000000  0  8G09G25G10G17G12G04G05G02
 -14109009.76546 -10977099.93943  24648524.5474                   24648526.0704
   1389094.26047   1097942.12945  22787061.4144                   22787062.3954
 -28549255.25048 -22229649.35646  20967743.9774                   20967741.9344
 -55041439.30246 -42872540.85643  23818244.0164                   23818242.8484
 -22348125.24948 -17398510.71146  20708609.4384                   20708606.6954
 -41048230.71447 -31967759.85545  22536160.9064                   22536159.6724
 -16555767.94148 -12884492.85746  20882271.0394                   20882269.0634
 -37494085.94848 -29199215.35446  20548725.3834                   20548721.1454
 11  8  3  2  4 30.0000000  0  8G09G25G10G17G12G04G05G02
 -12518587.15946  -9737809.71443  24951171.1254                   24951173.1844
   2815183.42247   2209180.47945  23058437.2894                   23058437.7854
 -27003363.71148 -21025058.54246  21261917.2034                   21261914.8834
 -53468170.46046 -41646617.13643  24117628.7814                   24117627.7894
 -20864652.76148 -16242558.11746  20990904.5634                   20990901.5314
 -39458866.87147 -30729294.52445  22838606.6414                   22838605.5274
 -15113262.16548 -11760462.34046  21156770.9144                   21156768.7074
 -35970236.18048 -28011799.93746  20838704.2274                   20838700.3164
 11  8  3  2  5  0.0000000  0  8G09G25G10G17G12G04G05G02
 -12503640.02646  -9726162.70043  24954015.4614                   24954018.5204
   2666211.73647   2093098.70245  23030089.0554                   23030089.5474
 -27032299.08848 -21047605.57046  21256411.5784                   21256408.7584
 -53470136.39246 -41648149.01143  24117254.1954                   24117251.9614
 -20956039.44348 -16313768.50346  20973514.2974                   20973511.8754
 -39444884.71747 -30718399.33545  22841267.1334                   22841266.1484
 -15245703.49348 -11863663.33946  21131568.0474                   21131565.6524
 -36021586.82148 -28051813.40946  20828932.9534                   20828928.3984
 11  8  3  2  5 30.0000000  0  8G09G25G10G17G12G04G05G02
 -12488753.06746  -9714562.60343  24956848.1094                   24956851.5664
   2517605.94047   1977302.02345  23001810.2034                   23001811.2504
 -27060642.76348 -21069691.54746  21251017.1254                   21251014.8794
 -53471917.65246 -41649537.03343  24116914.8524                   24116913.5744
 -21046861.90148 -16384539.23046  20956231.5554                   20956228.6484
 -39430866.79847 -30707476.27644  22843934.8204                   22843934.0274
 -15377666.49348 -11966491.60346  21106456.3204                   21106454.4224
 -36072718.20748 -28091656.03246  20819202.6334                   20819198.2544
 11  8  3  2  6  0.0000000  0  8G09G25G10G17G12G04G05G02
 -12473930.74746  -9703012.84143  24959669.5784                   24959671.4924
   2369367.02747   1861791.25245  22973601.0084                   22973601.8634
 -27088397.94848 -21091318.95346  21245735.9144                   21245734.0084
 -53473515.67846 -41650782.26743  24116610.3284                   24116610.0434
 -21137121.16248 -16454871.11046  20939055.6414                   20939052.4844
 -39416815.93547 -30696527.55044  22846608.5634                   22846607.0234
 -15509150.45848 -12068946.60946  21081435.7664                   21081433.4104
 -36123632.87648 -28131329.78846  20809514.0004                   20809508.9264
 11  8  3  2  6 30.0000000  0  7G25G10G17G12G04G05G02
   2221499.43347   1746569.79345  22945463.1334                   22945464.2034
 -27115564.70548 -21112487.85446  21240565.9534                   21240564.3364
 -53474928.48546 -41651883.20444  24116342.3674                   24116341.0274
 -21226814.11548 -16524761.71146  20921987.3984                   20921985.1524
 -39402731.70347 -30685552.81744  22849288.8754                   22849287.7154
 -15640151.32548 -12171025.15446  21056507.2194                   21056504.6724
 -36174330.52248 -28170834.42946  20799866.2664                   20799861.8674
 11  8  3  2  7  0.0000000  0  7G25G10G17G12G04G05G02
   2074004.45947   1631638.69945  22917395.8204                   22917396.3554
 -27142145.36648 -21133200.05046  21235507.8444                   21235505.8054
 -53476157.12946 -41652840.61444  24116108.1334                   24116107.5744
 -21315940.96648 -16594211.19746  20905027.4534                   20905024.6294
 -39388616.48247 -30674553.95045  22851975.2274                   22851973.4884
 -15770668.49948 -12272726.80646  21031670.4694                   21031668.1254
 -36224813.42648 -28210171.75546  20790259.7194                   20790255.4654
 11  8  3  2  7 30.0000000  0  7G25G10G17G12G04G05G02
   1926890.54047   1517004.53045  22889400.4384                   22889402.1914
 -27168135.85447 -21153452.36846  21230562.6094                   21230559.5124
 -53477195.68446 -41653649.85244  24115910.5634                   24115908.7304
 -21404494.38948 -16663213.84346  20888176.0554                   20888173.7464
 -39374465.91147 -30663527.55144  22854667.4384                   22854666.2934
 -15900693.66948 -12374045.07846  21006927.3204                   21006925.5164
 -36275076.44948 -28249337.73146  20780695.2664                   20780690.5984
 11  8  3  2  8  0.0000000  0  7G25G10G17G12G04G05G02
   1780165.22147   1402673.17845  22861480.0314                   22861480.4064
 -27193532.78648 -21173242.18046  21225729.3284                   21225727.1994
 -53478038.91146 -41654306.91544  24115749.6414                   24115748.3094
 -21492468.34648 -16731764.95546  20871435.5164                   20871432.3204
 -39360276.24547 -30652470.67444  22857368.1254                   22857366.5704
 -16030220.26048 -12474974.84746  20982279.3754                   20982277.3794
 -36325115.83148 -28288329.45446  20771173.0944                   20771168.3754
 11  8  3  2  8 30.0000000  0  7G25G10G17G12G04G05G02
   1633826.80847   1288643.29145  22833632.5234                   22833632.8524
 -27218342.20448 -21192574.18246  21221008.1334                   21221005.9384
 -53478690.76847 -41654814.86244  24115626.2194                   24115624.7074
 -21579866.96148 -16799867.76346  20854803.8134                   20854801.5084
 -39346052.80747 -30641387.46044  22860074.5394                   22860072.8484
 -16159250.39248 -12575517.76746  20957725.7814                   20957723.7464
 -36374936.99848 -28327151.13946  20761691.9384                   20761687.7154
 11  8  3  2  9  0.0000000  0  7G25G10G17G12G04G05G02
   1487874.28247   1174914.13845  22805858.2424                   22805858.5784
 -27242569.07848 -21211452.24646  21216398.1804                   21216395.5594
 -53479154.65247 -41655176.32744  24115538.3754                   24115536.8244
 -21666692.19648 -16867523.77746  20838281.4924                   20838278.4144
 -39331800.61847 -30630281.84744  22862786.4064                   22862785.0704
 -16287785.56948 -12675675.00646  20933266.0164                   20933264.0984
 -36424544.86748 -28365806.60046  20752252.1024                   20752247.4454
 11  8  3  2  9 30.0000000  0  7G25G10G17G12G04G05G02
   1342310.73347   1061488.05045  22778158.4774                   22778158.9184
 -27266214.67548 -21229877.37846  21211898.4924                   21211896.4454
 -53479430.53047 -41655391.30844  24115485.1024                   24115484.5594
 -21752942.56548 -16934731.83746  20821868.6954                   20821865.8244
 -39317520.22347 -30619154.23844  22865504.2584                   22865503.0864
 -16415823.21448 -12775444.55846  20908901.5164                   20908899.2934
 -36473939.60848 -28404296.00046  20742852.9304                   20742848.0904
 11  8  3  2 10  0.0000000  0  7G25G10G17G12G04G05G02
   1197133.97647    948363.35645  22750532.4614                   22750532.7074
 -27289285.77948 -21247854.84446  21207507.9454                   21207505.8164
 -53479522.79147 -41655463.18244  24115467.9384                   24115466.5784
 -21838622.14848 -17001495.13546  20805564.3134                   20805561.4964
 -39303217.57847 -30608009.30844  22868225.6724                   22868224.3364
 -16543366.20948 -12874828.66646  20884630.9064                   20884628.5234
 -36523127.10348 -28442623.90746  20733492.5864                   20733487.8484
 11  8  3  2 10 30.0000000  0  7G25G10G17G12G04G05G02
   1052345.73747    835541.41945  22722979.4924                   22722980.8244
 -27311784.62048 -21265386.39546  21203226.6094                   21203224.5744
 -53479431.93647 -41655392.39244  24115484.8524                   24115483.8554
 -21923730.71848 -17067813.48046  20789368.5784                   20789366.0904
 -39288894.84947 -30596848.75944  22870951.0314                   22870949.5314
 -16670413.19148 -12973826.27346  20860454.1174                   20860452.5554
 -36572109.79648 -28480792.23446  20724171.3284                   20724167.3794
 11  8  3  2 11  0.0000000  0  7G25G10G17G12G04G05G02
    907947.62047    723023.45745  22695501.8594                   22695502.5634
 -27333713.98248 -21282474.18546  21199053.6414                   21199051.2274
 -53479158.77347 -41655179.50744  24115537.1414                   24115536.2584
 -22008268.15748 -17133686.78746  20773281.7034                   20773279.3324
 -39274553.97747 -30585674.02244  22873680.0394                   22873679.1954
 -16796963.25348 -13072436.66846  20836372.4614                   20836370.2344
 -36620889.37348 -28518802.28846  20714889.3284                   20714884.2464
 11  8  3  2 11 30.0000000  0  7G25G10G17G12G04G05G02
    763941.29547    610810.80345  22668097.9614                   22668098.3984
 -27355076.75948 -21299120.50446  21194988.5784                   21194985.8754
 -53478704.06447 -41654825.24844  24115623.8984                   24115622.4964
 -22092234.64248 -17199115.20046  20757303.8204                   20757301.1174
 -39260197.22047 -30574486.92244  22876412.3054                   22876411.0044
 -16923015.33948 -13170659.03046  20812385.7974                   20812383.8874
 -36669467.58548 -28556655.42146  20705644.6804                   20705640.2304
 11  8  3  2 12  0.0000000  0  7G25G10G17G12G04G05G02
    620329.36047    498905.44845  22640769.8134                   22640770.5044
 -27375874.28548 -21315326.34546  21191030.3984                   21191028.7854
 -53478067.92047 -41654329.53144  24115744.6024                   24115743.1214
 -22175628.94948 -17264097.75846  20741434.1024                   20741431.1054
 -39245825.28547 -30563287.99544  22879146.4774                   22879144.6764
 -17048567.56048 -13268491.89046  20788493.8364                   20788491.5984
 -36717845.64848 -28594352.61246  20696438.9844                   20696434.2114
 11  8  3  2 12 30.0000000  0  7G25G10G17G12G04G05G02
    477113.42747    387308.68345  22613516.5554                   22613517.7234
 -27396109.64247 -21331094.15046  21187179.9844                   21187178.4024
 -53477251.00646 -41653692.95044  24115900.2424                   24115898.6174
 -22258451.21048 -17328634.56846  20725673.3914                   20725670.4964
 -39231440.76847 -30552079.29244  22881884.1334                   22881882.9654
 -17173618.69248 -13365934.28746  20764697.4304                   20764694.9454
 -36766025.51848 -28631895.35946  20687270.1804                   20687266.1604
 11  8  3  2 13  0.0000000  0  7G25G10G17G12G04G05G02
    334297.88047    276023.89445  22586340.0394                   22586340.6724
 -27415782.41347 -21346423.56346  21183436.5164                   21183434.4064
 -53476251.20146 -41652913.88343  24116090.0864                   24116089.4344
 -22340699.24548 -17392723.92146  20710022.1884                   20710019.4734
 -39217042.62247 -30540859.94644  22884624.4144                   22884623.1024
 -17298165.27548 -13462983.53846  20740997.0944                   20740994.5164
 -36814006.34148 -28669283.00946  20678139.8134                   20678135.2734
 11  8  3  2 13 30.0000000  0  7G25G10G17G12G04G05G02
    191885.75347    165053.48345  22559239.5164                   22559240.1844
 -27434894.38347 -21361315.98045  21179799.5164                   21179797.1294
 -53475068.05846 -41651991.97644  24116315.6334                   24116314.1884
 -22422371.30348 -17456364.46746  20694480.2664                   20694477.9414
 -39202631.43547 -30529630.44644  22887366.6254                   22887365.2664
 -17422205.07248 -13559637.87546  20717392.8754                   20717390.4924
 -36861788.15748 -28706515.58146  20669047.2114                   20669043.0044
 11  8  3  2 14  0.0000000  0  7G25G10G17G12G04G05G02
     49876.49747     54396.98045  22532215.7894                   22532215.9494
 -27453450.01747 -21375774.91345  21176268.6094                   21176265.9064
 -53473704.29846 -41650929.30343  24116575.9844                   24116574.6254
 -22503470.07348 -17519558.29846  20679047.9924                   20679045.0824
 -39188211.47747 -30518394.11344  22890111.2274                   22890109.7934
 -17545738.82648 -13655897.90346  20693885.2664                   20693882.7384
 -36909376.05048 -28743597.05046  20659991.9454                   20659987.3324
 11  8  3  2 14 30.0000000  0  7G25G10G17G12G04G05G02
    -91726.55347    -55943.02145  22505269.8834                   22505270.3594
 -27471450.37948 -21389801.15646  21172843.2584                   21172840.5394
 -53472159.25946 -41649725.37644  24116868.9534                   24116869.1684
 -22583993.57648 -17582303.87346  20663724.7664                   20663722.3054
 -39173782.84647 -30507151.02344  22892856.2114                   22892854.7774
 -17668763.88748 -13751761.54346  20670474.1954                   20670471.6024
 -36956770.02648 -28780527.41246  20650973.3054                   20650968.6684
 11  8  3  2 15  0.0000000  0  7G25G10G17G12G04G05G02
   -232921.93947   -165965.34745  22478401.1254                   22478401.8204
 -27488898.74147 -21403397.25546  21169522.4384                   21169520.7114
 -53470433.95146 -41648381.00843  24117197.2814                   24117195.9804
 -22663942.10948 -17644601.41346  20648511.2034                   20648508.3054
 -39159347.76047 -30495902.87744  22895603.7114                   22895602.3134
 -17791279.74148 -13847228.41246  20647159.9694                   20647157.9804
 -37003971.90048 -28817308.07246  20641990.9534                   20641985.8364
 11  8  3  2 15 30.0000000  0  7G25G10G17G12G04G05G02
   -373708.64447   -275669.21345  22451610.5634                   22451610.7114
 -27505798.22947 -21416565.69646  21166307.0784                   21166304.2544
 -53468529.53146 -41646897.00043  24117559.8204                   24117559.0664
 -22743316.39348 -17706451.48546  20633406.5704                   20633404.0204
 -39144908.86847 -30484651.77044  22898350.8204                   22898349.7774
 -17913285.91948 -13942298.12046  20623943.2974                   20623940.4384
 -37050983.85448 -28853940.74346  20633044.6644                   20633040.0744
 11  8  3  2 16  0.0000000  0  8G29G25G10G17G12G04G05G02
  20262390.55756  15802028.22453  24790309.1334                   24790309.1254
   1061339.60647    842550.23445  22724690.7194                   22724691.2194
 -25946731.22347 -20201708.27746  21462987.5164                   21462984.8754
 -51891026.98646 -40417674.23743  24417748.8284                   24417747.1644
 -21246694.41848 -16540252.53546  20918204.7734                   20918201.5634
 -37555048.46447 -29245799.50744  23200891.3594                   23200890.1884
 -16459357.56648 -12809366.90646  20900616.8914                   20900614.0634
 -35522386.57648 -27662825.96046  20923927.0554                   20923922.2544
 11  8  3  2 16 30.0000000  0  8G29G25G10G17G12G04G05G02
  20114209.36746  15686562.47843  24762111.7734                   24762110.4654
    921372.41747    733484.94345  22698056.1484                   22698056.1804
 -25962543.93847 -20214029.86445  21459978.7274                   21459976.2074
 -51888769.29746 -40415915.02743  24418178.3364                   24418175.2504
 -21324923.97748 -16601210.61346  20903317.8524                   20903315.1564
 -37540610.06546 -29234548.72944  23203638.3524                   23203637.6764
 -16580344.36248 -12903642.28746  20877593.7274                   20877591.0234
 -35569027.84547 -27699169.79546  20915051.4534                   20915046.9614
 11  8  3  2 17  0.0000000  0  8G29G25G10G17G12G04G05G02
  19965943.81946  15571030.95143  24733897.1254                   24733897.1174
    781811.77047    624736.43845  22671498.3754                   22671499.3204
 -25977823.54647 -20225936.03845  21457070.5784                   21457068.9304
 -51886342.15346 -40414023.72343  24418639.7114                   24418638.7424
 -21402587.01247 -16661727.25146  20888539.2114                   20888536.4884
 -37526180.58747 -29223305.04144  23206384.9064                   23206383.4534
 -16700825.78848 -12997523.87846  20854666.6724                   20854664.4924
 -35615491.97447 -27735375.59646  20906209.7504                   20906205.2194
 11  8  3  2 17 30.0000000  0  8G29G25G10G17G12G04G05G02
  19817594.39046  15455434.07943  24705666.6954                   24705667.3404
    642660.22447    516306.70945  22645018.5944                   22645019.4184
 -25992571.64247 -20237428.03245  21454264.0864                   21454261.9884
 -51883745.37246 -40412000.25143  24419134.6644                   24419133.5634
 -21479682.85848 -16721801.91946  20873867.9224                   20873865.4024
 -37511760.79046 -29212068.82144  23209128.5554                   23209127.1134
 -16820800.10248 -13091010.31846  20831836.2034                   20831833.7424
 -35661780.26047 -27771444.38046  20897401.2194                   20897396.9924
 11  8  3  2 18  0.0000000  0  8G29G25G10G17G12G04G05G02
  19669167.47546  15339776.77843  24677421.4304                   24677421.2814
    503926.16547    408202.29245  22618618.3134                   22618619.4924
 -26006784.32747 -20248502.84145  21451560.0704                   21451557.3204
 -51880972.90246 -40409839.85943  24419661.5554                   24419660.1134
 -21556205.07948 -16781429.62046  20859306.4924                   20859303.4304
 -37497346.02046 -29200836.55644  23211871.8914                   23211870.4774
 -16940259.68048 -13184095.66246  20809103.8204                   20809101.3484
 -35707887.36448 -27807371.97046  20888627.4454                   20888622.7894
 11  8  3  2 18 30.0000000  0  8G29G25G10G17G12G04G05G02
  19520667.38546  15224062.44143  24649164.5944                   24649164.1174
    365615.44247    300427.76245  22592298.9924                   22592298.9224
 -26020460.35747 -20259159.49045  21448957.3914                   21448954.9774
 -51878021.18146 -40407539.74543  24420223.0314                   24420222.2704
 -21632149.52148 -16840607.09446  20844854.7034                   20844851.4804
 -37482933.48146 -29189605.97644  23214614.1094                   23214613.2704
 -17059199.29548 -13276775.84146  20786470.4844                   20786468.0784
 -35753811.03748 -27843156.63146  20879888.2974                   20879884.1914
 11  8  3  2 19  0.0000000  0  8G29G25G10G17G12G04G05G02
  19372094.26546  15108291.27043  24620890.6334                   24620890.5084
    227730.39647    192984.90445  22566060.1024                   22566060.3874
 -26033601.81648 -20269399.57645  21446456.4454                   21446454.3054
 -51874890.17946 -40405100.03044  24420819.8524                   24420818.7194
 -21707515.38248 -16899333.72446  20830513.5314                   20830510.2274
 -37468524.26446 -29178377.99844  23217357.0004                   23217354.8914
 -17177617.36248 -13369049.62746  20763936.3364                   20763933.7114
 -35799552.47648 -27878799.29246  20871183.9534                   20871179.5554
 11  8  3  2 19 30.0000000  0  8G29G25G10G17G12G04G05G02
  19223451.87846  14992466.13243  24592604.9614                   24592603.8984
     90276.35147     85877.90545  22539903.4064                   22539903.5904
 -26046207.35247 -20279222.06245  21444057.7734                   21444055.8554
 -51871577.18946 -40402518.46043  24421449.8364                   24421448.0234
 -21782300.04347 -16957607.47546  20816282.1174                   20816278.8874
 -37454116.47646 -29167151.13344  23220098.5084                   23220096.5354
 -17295509.35548 -13460913.47546  20741501.9534                   20741498.9184
 -35845109.46147 -27914298.22946  20862514.7734                   20862510.2464
 11  8  3  2 20  0.0000000  0  8G29G25G10G17G12G04G05G02
  19074740.16946  14876587.01743  24564305.8914                   24564305.6804
    -46744.83947    -20891.83345  22513829.2894                   22513829.5274
 -26058279.94147 -20288629.28145  21441760.4534                   21441758.0984
 -51868082.79146 -40399795.57243  24422115.3984                   24422113.0594
 -21856503.53648 -17015428.36646  20802161.6724                   20802158.8444
 -37439711.75046 -29155926.69644  23222839.0784                   23222837.4384
 -17412874.10148 -13552366.48546  20719168.3674                   20719166.2074
 -35890483.86447 -27949654.89346  20853880.3914                   20853875.9654
 11  8  3  2 20 30.0000000  0  8G29G25G10G17G12G04G05G02
  18925957.93046  14760652.76343  24535993.3204                   24535993.2584
   -183332.74447   -127323.91945  22487837.6024                   22487838.0044
 -26069823.70547 -20297624.41945  21439563.6644                   21439561.6914
 -51864408.88146 -40396932.77744  24422814.2424                   24422812.0314
 -21930127.00147 -17072797.28546  20788151.5394                   20788148.6914
 -37425312.91446 -29144706.83644  23225578.4844                   23225577.7894
 -17529712.04148 -13643408.98646  20696934.7504                   20696932.1254
 -35935678.67847 -27984871.61246  20845279.8984                   20845275.4884
 11  8  3  2 21  0.0000000  0  8G29G25G10G17G12G04G05G02
  18777103.90446  14644662.71643  24507668.1024                   24507667.4734
   -319486.92547   -233418.06045  22461928.0944                   22461928.6024
 -26080843.00947 -20306210.88645  21437466.9614                   21437464.1764
 -51860557.38947 -40393931.63544  24423546.9924                   24423545.2304
 -22003171.84248 -17129715.32846  20774251.3754                   20774248.7234
 -37410923.03147 -29133493.93344  23228317.5864                   23228316.2664
 -17646023.51048 -13734041.26346  20674800.9304                   20674798.4184
 -35980696.46548 -28019950.38446  20836713.3284                   20836709.2344
 11  8  3  2 21 30.0000000  0  8G29G25G10G17G12G04G05G02
  18628184.73146  14528621.79543  24479328.8594                   24479328.3954
   -455198.98347   -339167.66545  22436103.1884                   22436102.6524
 -26091333.31347 -20314385.13945  21435470.1564                   21435468.4614
 -51856522.19546 -40390787.31444  24424315.1724                   24424312.7854
 -22075631.74548 -17186177.59046  20760462.8984                   20760460.1454
 -37396536.87646 -29122283.95344  23231055.2734                   23231053.8794
 -17761801.25048 -13824257.64446  20652769.3054                   20652767.0824
 -36025532.32448 -28054887.40746  20828181.6254                   20828176.9534
 11  8  3  2 22  0.0000000  0  8G29G25G10G17G12G04G05G02
  18479197.52347  14412527.96043  24450977.7424                   24450976.7464
   -590470.02347   -444573.63545  22410361.6804                   22410362.1254
 -26101300.69547 -20322151.92345  21433573.5554                   21433571.4144
 -51852306.99646 -40387502.74744  24425116.8524                   24425115.3364
 -22147509.88348 -17242186.51146  20746785.0474                   20746782.0784
 -37382158.90546 -29111080.29444  23233790.8984                   23233789.5904
 -17877046.82948 -13914059.36146  20630838.8914                   20630836.1374
 -36070190.48348 -28089685.96146  20819683.3754                   20819678.9924
 11  8  3  2 22 30.0000000  0  8G29G25G10G17G12G04G05G02
  18330140.22247  14296379.48943  24422613.3524                   24422613.5594
   -725300.90847   -549636.61545  22384704.1884                   22384704.2114
 -26110750.18147 -20329515.16745  21431775.8594                   21431773.3594
 -51847914.73046 -40384080.24544  24425951.9144                   24425952.1054
 -22218808.53448 -17297743.88946  20733217.3914                   20733214.6604
 -37367793.20546 -29099886.24744  23236524.3524                   23236522.5824
 -17991762.21048 -14003447.93047  20609009.1954                   20609007.0354
 -36114675.19948 -28124349.36046  20811218.0474                   20811213.6914
 11  8  3  2 23  0.0000000  0  8G29G25G10G17G12G04G05G02
  18181016.30147  14180179.09144  24394235.8914                   24394236.1884
   -859686.02847   -654352.24745  22359131.9384                   22359131.4574
 -26119681.05047 -20336474.28745  21430076.3594                   21430073.8554
 -51843342.44746 -40380517.42843  24426823.0944                   24426821.6764
 -22289524.80548 -17352847.47146  20719760.3444                   20719757.5904
 -37353437.31046 -29088699.85944  23239256.9844                   23239255.3674
 -18105942.63148 -14092419.65746  20587281.4924                   20587279.6564
 -36158984.61348 -28158876.17746  20802786.2344                   20802781.8834
 11  8  3  2 23 30.0000000  0  8G29G25G10G17G12G04G05G02
  18031824.69547  14063925.99344  24365845.8674                   24365846.2934
   -993625.08248   -758720.30145  22333643.9224                   22333644.2464
 -26128097.33747 -20343032.43245  21428475.0394                   21428472.4064
 -51838591.79946 -40376815.66743  24427726.9144                   24427725.5204
 -22359660.22447 -17407498.44446  20706414.2424                   20706410.9654
 -37339094.28446 -29077523.46444  23241985.5554                   23241983.7274
 -18219588.07548 -14180974.51946  20565655.2974                   20565652.8094
 -36203121.50148 -28193268.54246  20794387.3754                   20794382.6954
 11  8  3  2 24  0.0000000  0  8G29G25G10G17G12G04G05G02
  17882565.99847  13947620.53644  24337442.3834                   24337443.3164
  -1127115.73447   -862738.95645  22308241.1024                   22308241.1454
 -26136001.12247 -20349191.23145  21426970.6174                   21426968.6094
 -51833663.34246 -40372975.29243  24428664.9384                   24428663.1804
 -22429214.53448 -17461696.59646  20693178.1024                   20693175.4024
 -37324764.89047 -29066357.68444  23244712.8594                   23244711.8134
 -18332697.58448 -14269111.76547  20544131.5704                   20544129.4304
 -36247086.82248 -28227527.22546  20786020.9454                   20786016.1294
 11  8  3  2 24 30.0000000  0  8G29G25G10G17G12G04G05G02
  17733239.78247  13831262.48944  24309027.0704                   24309027.3874
  -1260156.69447   -966407.17545  22282924.0474                   22282924.4184
 -26143395.83747 -20354953.33446  21425563.5784                   21425561.0474
 -51828557.82346 -40368996.95843  24429636.1884                   24429634.0274
 -22498188.33348 -17515442.41546  20680053.1024                   20680049.9654
 -37310451.05647 -29055204.03344  23247437.1954                   23247435.2034
 -18445270.78548 -14356831.11047  20522709.2034                   20522706.8984
 -36290882.21748 -28261653.49446  20777687.2814                   20777682.8364
 11  8  3  2 25  0.0000000  0  7G29G25G10G12G04G05G02
  17583851.67946  13714856.24044  24280598.8284                   24280599.0664
  -1392740.85847  -1069719.46545  22257694.5634                   22257694.4304
 -26150278.79447 -20360316.65945  21424253.8524                   21424251.0204
 -22566576.62348 -17568731.98646  20667038.8444                   20667036.1484
 -37296148.99247 -29044059.58344  23250158.1884                   23250156.0354
 -18557301.11848 -14444127.44846  20501390.6094                   20501388.3524
 -36334503.80748 -28295644.33546  20769385.9144                   20769381.4884
 11  8  3  2 25 30.0000000  0  7G29G25G10G12G04G05G02
  17434397.38647  13598398.45044  24252158.6484                   24252159.0394
  -1524871.26847  -1172678.18345  22232550.6094                   22232550.8984
 -26156657.43647 -20365287.02345  21423039.9304                   21423037.4964
 -22634384.42648 -17621569.22246  20654135.7274                   20654132.7114
 -37281864.60347 -29032928.91844  23252876.0944                   23252874.0434
 -18668792.78748 -14531004.03747  20480174.1564                   20480171.8444
 -36377958.19748 -28329504.89546  20761117.2194                   20761113.0434
 11  8  3  2 26  0.0000000  0  7G29G25G10G12G04G05G02
  17284887.77046  13481897.50743  24223707.9774                   24223708.0434
  -1656535.44247  -1275273.58845  22207495.5474                   22207496.3984
 -26162523.86647 -20369858.26545  21421923.1334                   21421921.2194
 -22701601.49048 -17673946.15746  20641344.7974                   20641341.3364
 -37267588.49947 -29021804.66444  23255593.3834                   23255591.8524
 -18779734.18048 -14617451.85346  20459062.5864                   20459060.7814
 -36421235.89948 -28363227.76846  20752881.3594                   20752877.1954
 11  8  3  2 26 30.0000000  0  7G29G25G10G12G04G05G02
  17135322.26946  13365353.01743  24195246.4384                   24195247.2114
  -1787732.19447  -1377504.77945  22182529.8054                   22182529.8754
 -26167881.43947 -20374032.99745  21420903.6724                   21420901.5234
 -22768228.82547 -17725863.56246  20628665.6954                   20628662.8444
 -37253322.60447 -29010688.38244  23258306.9844                   23258305.7194
 -18890124.78948 -14703470.47546  20438056.0394                   20438053.6454
 -36464338.78848 -28396814.42346  20744679.4454                   20744674.7504
 11  8  3  2 27  0.0000000  0  7G29G25G10G12G04G05G02
  16985698.70046  13248763.31643  24166773.1884                   24166773.7584
  -1918462.48347  -1479372.47545  22157652.7274                   22157653.1374
 -26172736.02347 -20377815.79245  21419980.2114                   21419978.1954
 -22834269.44647 -17777323.76846  20616098.9454                   20616095.6334
 -37239071.24047 -28999583.45544  23261019.8674                   23261018.6524
 -18999966.78748 -14789061.61646  20417153.7734                   20417151.6954
 -36507271.11748 -28430268.18046  20736509.5394                   20736504.9884
 11  8  3  2 27 30.0000000  0  7G29G25G10G12G04G05G02
  18411441.20946  14359731.58844  24438084.3984                   24438083.5554
   -473301.44448   -353272.92545  22432657.7894                   22432658.3284
 -24601671.18447 -19153609.40545  21718944.3594                   21718941.7504
 -21324302.59548 -16600726.22846  20903435.6564                   20903432.9844
 -35649417.01147 -27760891.84844  23563520.9694                   23563519.3444
 -17533836.71348 -13646622.56446  20696149.2664                   20696146.6334
 -34974614.03548 -27235989.93046  21028164.8524                   21028160.2774
 11  8  3  2 28  0.0000000  0  7G29G25G10G12G04G05G02
  18261698.45046  14243049.02743  24409589.2194                   24409589.0984
   -603097.78848   -454412.87845  22407958.6644                   22407958.9224
 -24605531.62047 -19156617.53345  21718209.4774                   21718206.7734
 -21389174.86048 -16651276.04346  20891091.1094                   20891088.3954
 -35635202.10147 -27749815.28844  23566225.8444                   23566224.0824
 -17642582.99148 -13731359.88046  20675455.6334                   20675453.1334
 -35017213.66548 -27269184.43846  21020058.1724                   21020053.8054
 11  8  3  2 28 30.0000000  0  7G29G25G10G12G04G05G02
  18111893.80746  14126318.21143  24381081.1024                   24381082.1374
   -732427.17147   -555188.98545  22383347.5004                   22383348.0204
 -24608901.89447 -19159243.72045  21717568.0474                   21717565.6524
 -21453465.97148 -16701373.00046  20878857.0314                   20878854.0744
 -35621010.02647 -27738756.57844  23568926.6644                   23568925.0594
 -17750783.03448 -13815671.56847  20654866.0084                   20654863.6454
 -35059651.66548 -27302253.01046  21011982.5164                   21011977.9024
 11  8  3  2 29  0.0000000  0  7G29G25G10G12G04G05G02
  17962023.82146  14009536.46543  24352561.3674                   24352561.7734
   -861291.62947   -655602.81445  22358825.4224                   22358825.8484
 -24611788.61847 -19161493.11045  21717018.5864                   21717016.2974
 -21517180.00248 -16751020.28746  20866732.3984                   20866729.6174
 -35606845.71547 -27727719.45244  23571621.1804                   23571620.6644
 -17858439.43748 -13899559.64947  20634379.1564                   20634376.6844
 -35101932.81548 -27335199.36146  21003936.8524                   21003932.0084
 11  8  3  2 29 30.0000000  0  7G29G25G10G12G04G05G02
  17812094.71046  13892708.64243  24324032.4774                   24324031.3324
   -989683.74747   -755648.57145  22334393.1564                   22334393.5354
 -24614189.02147 -19163363.54645  21716561.8364                   21716559.1024
 -21580312.35348 -16800214.32546  20854718.4774                   20854715.8484
 -35592704.83046 -27716700.58544  23574313.2194                   23574311.4574
 -17965546.11348 -13983019.36147  20613997.5004                   20613994.8054
 -35144052.94248 -27368020.22046  20995921.4844                   20995916.8524
 11  8  3  2 30  0.0000000  0  7G29G25G10G12G04G05G02
  17662104.91946  13775833.58943  24295489.1724                   24295489.0864
  -1117603.67748   -855326.39846  22310051.1724                   22310051.3164
 -24616107.64547 -19164858.57645  21716196.6334                   21716194.5554
 -21642864.94648 -16848956.59346  20842815.5004                   20842812.6564
 -35578590.31446 -27705702.28044  23576998.5864                   23576997.0864
 -18072104.15648 -14066051.57347  20593720.5314                   20593717.7034
 -35186015.49548 -27400718.30946  20987936.2424                   20987932.0124
 11  8  3  2 30 30.0000000  0  7G29G25G10G12G04G05G02
  17512054.31046  13658911.11343  24266935.1484                   24266935.7154
  -1245050.44147   -954635.54245  22285798.8284                   22285798.9184
 -24617548.14647 -19165981.02545  21715922.3364                   21715920.3524
 -21704839.20448 -16897248.21646  20831022.1334                   20831019.2544
 -35564504.02346 -27694726.01844  23579678.1094                   23579677.5204
 -18178113.46148 -14148656.19247  20573547.4144                   20573544.7384
 -35227822.17848 -27433294.93946  20979980.4844                   20979975.9924
 11  8  3  2 31  0.0000000  0  7G29G25G10G12G04G05G02
  17361942.62146  13541941.00544  24238371.1174                   24238369.9104
  -1372022.76848  -1053574.97446  22261636.3444                   22261636.8134
 -24618513.77647 -19166733.47045  21715739.0004                   21715736.6414
 -21766235.85348 -16945089.74746  20819338.5864                   20819335.7344
 -35550447.68146 -27683772.99043  23582353.7504                   23582351.9454
 -18283573.68448 -14230832.96547  20553479.1334                   20553476.4224
 -35269474.86948 -27465751.56746  20972054.5234                   20972049.5354
 11  8  3  2 31 30.0000000  0  7G29G25G10G12G04G05G02
  17211772.89246  13424925.71244  24209793.3914                   24209793.2544
  -1498516.49048  -1152141.48246  22237565.6484                   22237565.9774
 -24619004.71747 -19167116.01645  21715645.2274                   21715643.3874
 -21827052.83648 -16992479.60046  20807765.7894                   20807762.6334
 -35536419.90446 -27672842.29643  23585023.5864                   23585022.2034
 -18388481.65248 -14312579.40647  20533515.6334                   20533513.4264
 -35310972.39048 -27498087.27746  20964157.6724                   20964152.6604
 11  8  3  2 32  0.0000000  0  7G29G25G10G12G04G05G02
  17061545.21146  13307865.28944  24181206.8594                   24181205.4024
  -1624530.52948  -1250334.20746  22213586.0864                   22213586.1024
 -24619024.43647 -19167131.40445  21715641.5554                   21715639.6094
 -21887291.58148 -17039418.87546  20796303.0314                   20796299.7154
 -35522422.36946 -27661935.14143  23587687.1174                   23587686.1094
 -18492837.63448 -14393895.73447  20513657.2034                   20513654.7234
 -35352316.25148 -27530303.26246  20956290.2894                   20956285.3524
 11  8  3  2 32 30.0000000  0  7G29G25G10G12G04G05G02
  16911259.59146  13190759.66044  24152608.5084                   24152607.1564
  -1750063.38048  -1348152.00146  22189697.8284                   22189697.8014
 -24618575.99947 -19166781.95945  21715726.8444                   21715724.6484
 -21946952.85348 -17085908.18146  20784949.1254                   20784946.6764
 -35508456.49447 -27651052.60243  23590345.0164                   23590342.6724
 -18596640.91548 -14474781.37847  20493904.3594                   20493902.0944
 -35393508.31648 -27562400.95746  20948451.5864                   20948446.9924
 11  8  3  2 33  0.0000000  0  7G29G25G10G12G04G05G02
  16760917.04646  13073609.70244  24123999.5864                   24123998.2154
  -1875112.96748  -1445593.21646  22165901.9694                   22165902.0204
 -24617661.90247 -19166069.67445  21715901.3444                   21715898.5824
 -22006036.46648 -17131947.35146  20773705.7814                   20773703.0314
 -35494522.82747 -27640195.22843  23592996.1484                   23592995.3754
 -18699890.31248 -14555235.43947  20474256.4774                   20474253.8244
 -35434549.12348 -27594380.79346  20940641.8914                   20940637.0204
 11  8  3  2 33 30.0000000  0  7G29G25G10G12G04G05G02
  16610516.50847  12956414.57544  24095378.4844                   24095377.5824
  -1999679.30848  -1542657.88846  22142197.3284                   22142197.6174
 -24616286.72047 -19164998.11545  21716162.1724                   21716160.2624
 -22064544.99148 -17177538.40346  20762572.0554                   20762569.4184
 -35480624.14847 -27629365.10143  23595641.0164                   23595639.5634
 -18802586.94148 -14635258.75347  20454713.8204                   20454711.4184
 -35475442.00348 -27626245.36146  20932860.3524                   20932855.3164
 11  8  3  2 34  0.0000000  0  7G29G25G10G12G04G05G02
  16460060.28447  12839176.05844  24066748.1024                   24066747.3134
  -2123758.53148  -1639342.98346  22118585.7424                   22118586.1484
 -24614450.88848 -19163567.57645  21716511.8984                   21716508.9884
 -22122476.62948 -17222679.92946  20751548.3834                   20751545.5704
 -35466759.21047 -27618561.22244  23598280.2274                   23598278.2424
 -18904728.17748 -14714849.30847  20435277.0004                   20435274.4304
 -35516185.78948 -27657993.74646  20925106.7274                   20925102.2504
 11  8  3  2 34 30.0000000  0  7G29G25G10G12G04G05G02
  16309547.61947  12721893.56544  24038105.5004                   24038105.4534
  -2247350.81448  -1735648.64946  22095067.2114                   22095067.4734
 -24612159.28747 -19161781.91945  21716947.9064                   21716945.7974
 -22179833.90048 -17267373.90846  20740633.4774                   20740631.3014
 -35452931.16847 -27607786.07444  23600910.9774                   23600909.4184
 -19006315.01848 -14794007.85347  20415945.9844                   20415943.2664
 -35556783.33847 -27689628.18146  20917381.6564                   20917376.6294
 11  8  3  2 35  0.0000000  0  7G29G25G10G12G04G05G02
  16158981.25047  12604569.22644  24009454.3284                   24009454.2304
  -2370452.29948  -1831571.85746  22071641.6024                   22071641.6644
 -24609412.64447 -19159641.67345  21717470.9694                   21717468.0904
 -22236615.40448 -17311619.22246  20729828.4534                   20729825.3794
 -35439138.47947 -27597038.53343  23603535.1414                   23603533.7194
 -19107344.59848 -14872732.17647  20396720.4454                   20396717.5904
 -35597233.54248 -27721147.80046  20909684.1884                   20909679.0434
 11  8  3  2 35 30.0000000  0  7G29G25G10G12G04G05G02
  16008361.20546  12487203.12944  23980791.7424                   23980791.3244
  -2493061.88448  -1927111.77746  22048309.9064                   22048310.3204
 -24606214.36847 -19157149.51545  21718079.4534                   21718077.1374
 -22292821.96748 -17355416.54946  20719133.0084                   20719129.5594
 -35425382.79647 -27586319.80844  23606152.7664                   23606151.4024
 -19207817.04748 -14951022.36547  20377601.2194                   20377598.5044
 -35637538.36448 -27752554.12946  20902014.1334                   20902009.4344
 11  8  3  2 36  0.0000000  0  7G29G25G10G12G04G05G02
  15857687.90846  12369795.47044  23952119.9774                   23952118.7584
  -2615178.02248  -2022267.19646  22025071.9304                   22025072.4964
 -24602567.41447 -19154307.71245  21718773.5234                   21718770.8444
 -22348454.57948 -17398766.62846  20708546.2734                   20708543.4064
 -35411665.20447 -27575630.77044  23608763.8754                   23608761.8554
 -19307732.11948 -15028878.24347  20358587.9534                   20358585.5354
 -35677698.81048 -27783847.96146  20894371.8594                   20894366.5864
 11  8  3  2 36 30.0000000  0  7G29G25G10G12G04G05G02
  15706963.47946  12252347.98044  23923437.4694                   23923436.9414
  -2736797.70648  -2117035.75546  22001928.4144                   22001928.6524
 -24598473.06647 -19151117.32245  21719552.6564                   21719549.9454
 -22403511.80548 -17441668.35446  20698069.2194                   20698066.5514
 -35397985.29547 -27564971.08744  23611366.8444                   23611365.1294
 -19407087.49048 -15106297.99147  20339681.4614                   20339678.7734
 -35717714.92847 -27815029.33246  20886756.8834                   20886752.0594
 11  8  3  2 37  0.0000000  0  7G29G25G10G12G04G05G02
  15556186.96746  12134859.91844  23894745.5944                   23894744.7704
  -2857920.77248  -2211417.33246  21978879.3834                   21978879.6454
 -24593935.55647 -19147581.58945  21720415.9064                   21720413.7384
 -22457997.01148 -17484124.35546  20687701.1334                   20687698.4924
 -35384345.44947 -27554342.65943  23613961.6174                   23613960.4734
 -19505884.29747 -15183282.48447  20320880.9384                   20320877.8014
 -35757589.06047 -27846100.04946  20879168.9454                   20879164.2624
 11  8  3  2 37 30.0000000  0  7G29G25G10G12G04G05G02
  15405358.83146  12017331.63044  23866043.1484                   23866043.7154
  -2978546.01448  -2305410.99546  21955924.9924                   21955925.6884
 -24588958.30347 -19143703.19245  21721362.9694                   21721360.6174
 -22511910.99448 -17526135.24946  20677441.2194                   20677438.3484
 -35370746.77447 -27543746.24643  23616550.8754                   23616548.3404
 -19604122.47448 -15259831.68947  20302186.5864                   20302183.7854
 -35797322.66548 -27877061.28146  20871608.1024                   20871602.9574
 11  8  3  2 38  0.0000000  0  7G29G25G10G12G04G05G02
  15254482.38746  11899765.74944  23837332.0704                   23837333.1174
  -3098669.15248  -2399013.39546  21933066.3914                   21933066.7734
 -24583541.32847 -19139482.16045  21722393.6414                   21722391.8754
 -22565251.34048 -17567699.14646  20667291.5234                   20667288.3444
 -35357187.90146 -27533180.89043  23619129.5704                   23619128.9064
 -19701798.69248 -15335942.99447  20283599.5784                   20283597.1094
 -35836914.50548 -27907912.04346  20864074.1644                   20864068.9064
 11  8  3  2 38 30.0000000  0  7G29G25G10G12G04G05G02
  15103558.74746  11782163.02244  23808613.2274                   23808612.6454
  -3218288.06148  -2492222.89346  21910303.7034                   21910304.3444
 -24577686.87447 -19134920.24045  21723507.6094                   21723505.5394
 -22618018.67048 -17608816.53346  20657249.4924                   20657246.8634
 -35343669.06447 -27522646.75144  23621702.8284                   23621701.8244
 -19798911.85948 -15411615.56147  20265119.3284                   20265116.5434
 -35876364.58648 -27938652.34846  20856566.8834                   20856562.2464
 11  8  3  2 39  0.0000000  0  7G29G25G10G12G04G05G02
  16528014.45447  12892128.66244  24079677.5394                   24079677.3794
  -1761976.54548  -1357434.65646  22187430.7504                   22187430.9804
 -22995977.62247 -17902419.51945  22024497.2734                   22024494.7304
 -21094791.39848 -16421886.19146  20947110.6254                   20947107.0514
 -33754770.70146 -26284544.09843  23924060.0474                   23924058.6214
 -18320037.79048 -14259246.13147  20546539.5864                   20546537.0434
 -34340252.11448 -26741681.58546  21148879.3524                   21148874.4534
 11  8  3  2 39 30.0000000  0  7G29G25G10G12G04G05G02
  16376999.07747  12774454.49944  24050940.0634                   24050939.9804
  -1880582.33048  -1449854.69446  22164860.5314                   22164860.5204
 -22989257.40147 -17897182.98845  22025776.0234                   22025773.1954
 -21146414.66548 -16462112.10446  20937286.8204                   20937283.8914
 -33741334.17546 -26274074.10143  23926616.7894                   23926615.8634
 -18416024.10248 -14334040.63347  20528273.9224                   20528271.5124
 -34379422.59548 -26772204.02246  21141425.4694                   21141420.9414
 11  8  3  2 40  0.0000000  0  7G29G25G10G12G04G05G02
  16225937.48947  12656744.33344  24022194.1884                   24022193.6604
  -1998680.51148  -1541879.20146  22142387.0314                   22142387.1724
 -22982110.01847 -17891613.59445  22027136.2584                   22027133.6484
 -21197468.28248 -16501894.13246  20927571.9144                   20927568.6954
 -33727941.52746 -26263638.25943  23929164.7974                   23929163.8834
 -18511447.45548 -14408396.46047  20510115.6954                   20510113.3284
 -34418455.96848 -26802619.62246  21133997.6334                   21133992.7154
 11  8  3  2 40 30.0000000  0  7G29G25G10G12G04G05G02
  16074830.08947  12538998.43444  23993439.8594                   23993438.6214
  -2116270.28148  -1633507.54246  22120010.4534                   22120010.7114
 -22974538.88247 -17885713.99245  22028576.7974                   22028574.3484
 -21247954.04248 -16541233.68546  20917964.2114                   20917961.4884
 -33714594.09646 -26253237.70943  23931705.0234                   23931704.2854
 -18606308.13248 -14482313.84247  20492064.1644                   20492061.7894
 -34457353.98048 -26832929.74746  21126595.3984                   21126590.6724
 11  8  3  2 41  0.0000000  0  7G29G25G10G12G04G05G02
  15923678.51647  12421218.13344  23964676.4694                   23964675.3244
  -2233348.73948  -1724737.45446  22097731.5164                   22097731.4614
 -22966545.54047 -17879485.40645  22030097.5944                   22030095.6684
 -21297871.65948 -16580130.51946  20908465.2504                   20908462.8164
 -33701291.40447 -26242872.01543  23934236.7894                   23934235.2664
 -18700604.28148 -14555791.33747  20474120.2584                   20474117.9384
 -34496116.58948 -26863134.36546  21119219.3984                   21119214.4414
 11  8  3  2 41 30.0000000  0  7G29G25G10G12G04G05G02
  15772484.62347  12303404.83044  23935904.5634                   23935904.6054
  -2349913.71148  -1815567.24446  22075549.7274                   22075549.6524
 -22958132.19647 -17872929.55545  22031698.5864                   22031696.8874
 -21347220.91148 -16618584.47846  20899074.2344                   20899071.6844
 -33688033.53746 -26232541.21043  23936760.0164                   23936758.5664
 -18794335.01548 -14628828.24747  20456283.6024                   20456281.6214
 -34534743.58448 -26893233.31546  21111868.7344                   21111863.6724
 11  8  3  2 42  0.0000000  0  7G29G25G10G12G04G05G02
  15621251.07047  12185560.64344  23907125.9534                   23907125.1484
  -2465961.98348  -1905994.42146  22053466.1564                   22053466.8874
 -22949300.06647 -17866047.37445  22033379.7114                   22033377.5984
 -21396000.99748 -16656594.92946  20889792.0864                   20889789.3094
 -33674819.74546 -26222244.76843  23939274.5554                   23939272.5744
 -18887498.43148 -14701423.09347  20438555.6414                   20438552.7464
 -34573234.46148 -26923226.20546  21104544.1254                   21104539.4964
 11  8  3  2 42 30.0000000  0  7G29G25G10G12G04G05G02
  15469976.19546  12067684.20244  23878339.1804                   23878337.7974
  -2581494.35048  -1996019.60446  22031480.9224                   22031481.6094
 -22940054.27747 -17858842.86245  22035138.9924                   22035136.8204
 -21444214.93748 -16694164.23146  20880617.0394                   20880614.2034
 -33661652.81046 -26211984.81043  23941779.6644                   23941777.1994
 -18980096.30648 -14773577.25547  20420934.6884                   20420931.9654
 -34611592.44848 -26953115.55246  21097244.5784                   21097239.6954
 11  8  3  2 43  0.0000000  0  7G29G25G10G12G04G05G02
  15318661.82346  11949777.00444  23849544.9144                   23849544.0664
  -2696508.33148  -2085640.83246  22009594.5394                   22009595.1294
 -22930396.58047 -17851317.39345  22036976.6334                   22036974.4104
 -21491863.22448 -16731292.75746  20871549.8524                   20871547.5944
 -33648532.72446 -26201761.38143  23944277.0864                   23944274.3244
 -19072127.32048 -14845289.70847  20403421.2974                   20403419.2304
 -34649817.81648 -26982901.54046  21089970.9774                   21089965.9414
 11  8  3  2 43 30.0000000  0  7G29G25G10G12G04G05G02
  15167308.89746  11831839.71344  23820743.5944                   23820741.3674
  -2811002.22348  -2174856.81746  21987806.7664                   21987807.0354
 -22920329.90947 -17843473.24145  22038892.3754                   22038889.6844
 -21538946.16948 -16767980.76746  20862590.4224                   20862587.7934
 -33635459.75146 -26191574.64743  23946764.7114                   23946762.5824
 -19163591.00348 -14916560.09247  20386016.7814                   20386014.6844
 -34687911.20148 -27012584.69246  21082721.8834                   21082717.1604
 11  8  3  2 44  0.0000000  0  7G29G25G10G12G04G05G02
  15015919.78047  11713874.25544  23791934.7274                   23791933.3954
  -2924973.53548  -2263665.58246  21966119.0944                   21966119.1724
 -22909856.04647 -17835311.78745  22040885.4924                   22040883.3714
 -21585463.58748 -16804228.10746  20853738.3054                   20853735.4064
 -33622433.63346 -26181424.40443  23949243.1414                   23949240.8754
 -19254486.00648 -14987387.34947  20368719.8754                   20368717.6374
 -34725872.26148 -27042164.73446  21075497.6954                   21075493.6884
 11  8  3  2 44 30.0000000  0  7G29G25G10G12G04G05G02
  14864493.96047  11595880.16944  23763119.0004                   23763118.0274
  -3038422.08248  -2352067.01146  21944530.3984                   21944530.6724
 -22898979.21247 -17826836.35045  22042955.3834                   22042952.7424
 -21631418.11248 -16840036.82346  20844993.6254                   20844990.4534
 -33609456.34947 -26171312.18543  23951713.1174                   23951710.9414
 -19344813.22248 -15057772.17747  20351531.4774                   20351529.0004
 -34763703.17148 -27071643.35746  21068299.0554                   21068294.3554
 11  8  3  2 45  0.0000000  0  7G29G25G10G12G04G05G02
  14713031.50646  11477857.56344  23734296.6804                   23734295.8554
  -3151347.28548  -2440060.64346  21923041.5164                   21923041.3484
 -22887702.86847 -17818049.57645  22045100.9774                   22045099.3164
 -21676811.29148 -16875408.12846  20836355.7194                   20836352.4454
 -33596529.27747 -26161239.12243  23954172.5394                   23954170.9264
 -19434573.40048 -15127715.14947  20334450.4694                   20334447.7854
 -34801405.93048 -27101022.12746  21061124.6644                   21061119.5944
 11  8  3  2 45 30.0000000  0  7G29G25G10G12G04G05G02
  14561533.63647  11359807.35044  23705467.3674                   23705466.4844
  -3263747.52048  -2527645.19646  21901652.7664                   21901653.2384
 -22876029.52547 -17808953.48045  22047322.3204                   22047320.5124
 -21721643.81048 -16910342.55546  20827824.1414                   20827821.0824
 -33583652.99647 -26151205.60743  23956623.2274                   23956620.4144
 -19523766.17748 -15197215.99047  20317477.3834                   20317474.6604
 -34838980.87848 -27130301.29646  21053974.3364                   21053969.3984
 11  8  3  2 46  0.0000000  0  7G29G25G10G12G04G05G02
  14410003.15047  11241731.73844  23676632.3674                   23676631.2194
  -3375619.41248  -2614818.07446  21880364.1644                   21880364.1954
 -22863960.35647 -17799548.93145  22049619.3054                   22049617.2504
 -21765915.32148 -16944839.84146  20819399.7584                   20819396.6564
 -33570826.34146 -26141210.77143  23959063.6724                   23959062.7974
 -19612389.29648 -15266272.95047  20300613.0784                   20300610.5984
 -34876427.08348 -27159480.15146  21046848.3754                   21046843.1454
 11  8  3  2 46 30.0000000  0  7G29G25G10G12G04G05G02
  14258438.40847  11123629.40944  23647790.3594                   23647789.4224
  -3486964.35748  -2701580.34846  21859175.9924                   21859175.9344
 -22851501.07847 -17789840.40745  22051989.9454                   22051987.2974
 -21809629.18448 -16978902.58346  20811081.1254                   20811078.1994
 -33558052.41346 -26131257.08243  23961494.1644                   23961492.8914
 -19700445.51748 -15334888.17147  20283856.3364                   20283853.7704
 -34913748.42148 -27188561.72046  21039746.2274                   21039741.7114
 11  8  3  2 47  0.0000000  0  7G29G25G10G12G04G05G02
  14106840.56447  11005501.30144  23618942.0864                   23618941.3284
  -3597780.98348  -2787930.92746  21838088.4224                   21838088.3164
 -22838654.55947 -17779830.12345  22054434.8524                   22054432.1564
 -21852786.32148 -17012531.52246  20802868.6484                   20802865.8444
 -33545332.01846 -26121345.06343  23963914.5704                   23963914.0434
 -19787934.45248 -15403061.35947  20267207.5784                   20267205.0704
 -34950945.56348 -27217546.48946  21032667.9384                   21032663.8364
 11  8  3  2 47 30.0000000  0  7G29G25G10G12G04G05G02
  13955210.83147  10887348.34644  23590088.1644                   23590087.4224
  -3708066.97048  -2873868.03346  21817101.3594                   21817101.4734
 -22825422.80547 -17769519.67345  22056952.7894                   22056950.4414
 -21895387.15348 -17045726.97546  20794761.6724                   20794759.3794
 -33532664.53346 -26111474.37043  23966325.2504                   23966323.6454
 -19874855.05848 -15470791.67547  20250667.3444                   20250664.7234
 -34988018.21648 -27246434.25346  21025613.4384                   21025608.8244
 11  8  3  2 48  0.0000000  0  7G29G25G10G12G04G05G02
  13803550.36447  10769171.46844  23561228.1174                   23561227.3674
  -3817821.76048  -2959391.22146  21796215.5474                   21796215.7894
 -22811809.53447 -17758911.93145  22059543.1644                   22059540.5044
 -21937433.39748 -17078490.29046  20786760.6954                   20786757.7774
 -33520051.51446 -26101646.09343  23968724.7734                   23968724.5784
 -19961207.92948 -15538079.61447  20234235.0944                   20234232.6414
 -35024968.09448 -27275226.35446  21018582.0234                   21018577.4064
 11  8  3  2 48 30.0000000  0  7G29G25G10G12G04G05G02
  13651858.92747  10650970.40844  23532362.2194                   23532361.1214
  -3927045.03848  -3044500.23946  21775431.1334                   21775430.9804
 -22797818.43047 -17748009.76645  22062205.5314                   22062203.1374
 -21978927.03048 -17110822.97946  20778864.8524                   20778861.7034
 -33507494.70546 -26091861.62043  23971114.7344                   23971114.1804
 -20046993.85548 -15604925.76847  20217910.3674                   20217907.4964
 -35061797.02048 -27303924.20146  21011573.6174                   21011569.1374
 11  8  3  2 49  0.0000000  0  7G29G25G10G12G04G05G02
  13500140.07247  10532748.04144  23503490.8834                   23503490.0124
  -4035733.01048  -3129192.14646  21754748.4304                   21754748.4884
 -22783449.82347 -17736813.42745  22064939.3984                   22064937.1214
 -22019867.59548 -17142724.71946  20771074.0004                   20771071.3754
 -33494992.03446 -26082119.32543  23973493.8134                   23973493.6454
 -20132210.50048 -15671328.33547  20201694.0004                   20201691.8054
 -35098503.35148 -27332526.52146  21004588.9144                   21004583.8794
 11  8  3  2 49 30.0000000  0  7G29G25G10G12G04G05G02
  13348392.80847  10414503.49244  23474614.2894                   23474613.2624
  -4143886.55648  -3213467.61446  21734167.7194                   21734167.6484
 -22768708.99647 -17725327.09045  22067745.1024                   22067742.2894
 -22060257.92248 -17174197.69746  20763387.9064                   20763385.4694
 -33482546.09446 -26072421.22543  23975862.7974                   23975861.8284
 -20216859.96248 -15737288.93747  20185586.1644                   20185583.5474
 -35135090.21448 -27361035.76346  20997626.3364                   20997621.9144
 11  8  3  2 50  0.0000000  0  7G29G25G10G12G04G05G02
  13196617.60647  10296237.20044  23445732.4534                   23445731.8594
  -4251504.92548  -3297326.07046  21713688.4844                   21713688.1764
 -22753599.14047 -17713553.15745  22070620.5704                   22070618.2974
 -22100099.48748 -17205243.07346  20755806.4224                   20755803.9454
 -33470158.02846 -26062768.21844  23978219.8674                   23978219.1454
 -20300942.55248 -15802807.81947  20169585.6094                   20169582.9654
 -35171558.37748 -27389452.51246  20990686.7034                   20990682.2194
 11  8  3  2 50 30.0000000  0  7G29G25G10G12G04G05G02
  14620243.44647  11405556.15344  23716639.0864                   23716637.4534
  -2783160.31348  -2153161.41346  21993105.1254                   21993105.0354
 -21162700.73247 -16473892.05145  22373358.3984                   22373355.7034
 -20563968.76948 -16008258.10246  21048122.5474                   21048119.7464
 -31882405.79246 -24825558.69844  24280359.2034                   24280357.9224
 -18809032.48648 -14640280.47447  20453486.8444                   20453483.7664
 -33632485.34448 -26190174.82046  21283562.7974                   21283558.0704
 11  8  3  2 51  0.0000000  0  7G29G25G10G12G04G05G02
  14468418.87847  11287251.40844  23687747.9144                   23687746.7344
  -2889701.11648  -2236180.19346  21972831.3594                   21972831.6134
 -21146858.36847 -16461547.33845  22376372.9534                   22376370.3834
 -20602713.18348 -16038448.54946  21040749.6484                   21040746.8484
 -31870131.42646 -24815994.26544  24282695.3594                   24282693.7974
 -18891978.06848 -14704913.38147  20437702.6334                   20437700.3054
 -33668715.77748 -26218406.32946  21276668.6094                   21276663.5124
 11  8  3  2 51 30.0000000  0  7G29G25G10G12G04G05G02
  14316573.27247  11168930.24344  23658853.0164                   23658851.9614
  -2995699.54448  -2318776.35246  21952660.1334                   21952659.9384
 -21130652.45747 -16448919.33745  22379456.4384                   22379453.9144
 -20640909.24848 -16068211.71846  21033481.0704                   21033478.0664
 -31857912.98847 -24806473.38943  24285020.5394                   24285017.6024
 -18974353.28648 -14769101.84547  20422027.1484                   20422024.3094
 -33704826.74448 -26246544.74246  21269796.5084                   21269792.0274
 11  8  3  2 52  0.0000000  0  7G29G25G10G12G04G05G02
  14164707.07247  11050593.03744  23629953.4224                   23629951.8794
  -3101154.93548  -2400949.36046  21932592.4534                   21932592.4414
 -21114086.23447 -16436010.60845  22382608.9924                   22382606.8364
 -20678558.75347 -16097549.00546  21026316.4224                   21026314.3404
 -31845751.51547 -24796996.99543  24287335.2034                   24287333.1914
 -19056159.03848 -14832846.56247  20406460.2974                   20406457.5004
 -33740819.40547 -26274590.97046  21262947.0704                   21262942.6994
 11  8  3  2 52 30.0000000  0  7G29G25G10G12G04G05G02
  14012822.18547  10932241.26544  23601050.5314                   23601049.1174
  -3206065.38548  -2482697.72746  21912629.0784                   21912628.7934
 -21097161.74147 -16422822.67745  22385829.8204                   22385828.3444
 -20715662.10448 -16126460.71546  21019255.9774                   21019253.2814
 -31833646.69347 -24787564.58643  24289638.4304                   24289636.5554
 -19137394.41948 -14896146.84347  20391001.3754                   20390999.0594
 -33776694.01748 -26302545.20546  21256120.8834                   21256116.1564
 11  8  3  2 53  0.0000000  0  7G29G25G10G12G04G05G02
  13860917.66847  10813874.20444  23572143.7504                   23572143.0204
  -3310431.86748  -2564022.22846  21892768.8674                   21892768.6024
 -21079884.13547 -16409359.60145  22389117.5784                   22389115.2934
 -20752222.43847 -16154949.28446  21012299.1174                   21012296.4024
 -31821601.16946 -24778178.50943  24291930.8834                   24291928.4104
 -19218061.71348 -14959004.46147  20375651.0474                   20375648.6374
 -33812453.13447 -26330409.44646  21249316.3914                   21249311.7934
 11  8  3  2 53 30.0000000  0  7G29G25G10G12G04G05G02
  13708994.48747  10695492.59144  23543234.3284                   23543232.5864
  -3414253.61948  -2644922.28346  21873011.8054                   21873011.8484
 -21062256.90747 -16395624.11745  22392471.5164                   22392469.4614
 -20788242.20047 -16183016.64646  21005444.7344                   21005441.6884
 -31809615.73546 -24768839.17643  24294211.2194                   24294208.2624
 -19298161.43648 -15021419.81147  20360408.3754                   20360405.9924
 -33848097.83147 -26358184.52346  21242532.9304                   21242528.9104
 11  8  3  2 54  0.0000000  0  7G29G25G10G12G04G05G02
  13557053.36447  10577096.99844  23514320.3054                   23514319.4654
  -3517530.09548  -2725397.42346  21853359.1954                   21853358.9774
 -21044283.35647 -16381618.74445  22395891.6254                   22395890.0394
 -20823723.11347 -16210664.12246  20998692.8364                   20998689.7854
 -31797691.19446 -24759547.33143  24296480.6254                   24296477.6884
 -19377694.24048 -15083393.40747  20345273.4774                   20345271.1644
 -33883629.68147 -26385871.68546  21235771.7424                   21235767.0554
 11  8  3  2 54 30.0000000  0  7G29G25G10G12G04G05G02
  13405097.01947  10458689.59744  23485403.9924                   23485402.2194
  -3620258.08748  -2805445.16946  21833810.4694                   21833810.4384
 -21025964.20247 -16367344.09445  22399377.5944                   22399375.5084
 -20858664.09447 -16237890.86846  20992043.6884                   20992041.2384
 -31785826.05246 -24750301.76643  24298737.1254                   24298735.7624
 -19456658.46448 -15144923.94547  20330247.6644                   20330244.7274
 -33919047.06847 -26413469.63246  21229031.8524                   21229027.4774
 11  8  3  2 55  0.0000000  0  7G29G25G10G12G04G05G02
  13253127.80447  10340272.10544  23456485.0944                   23456484.1454
  -3722435.86948  -2885064.19846  21814366.8524                   21814366.5204
 -21007301.88347 -16352802.01445  22402929.7894                   22402926.9184
 -20893066.54548 -16264697.98246  20985496.8444                   20985494.1644
 -31774020.32346 -24741102.51543  24300983.7734                   24300983.7234
 -19535053.10148 -15206010.65647  20315329.3914                   20315326.8754
 -33954350.00948 -26440978.41546  21222314.0554                   21222309.6884
 11  8  3  2 55 30.0000000  0  7G29G25G10G12G04G05G02
  13101146.45947  10221845.17044  23427564.1804                   23427562.8014
  -3824062.97848  -2964254.11646  21795027.4694                   21795027.2034
 -20988299.91647 -16337995.28245  22406545.6094                   22406543.0594
 -20926932.04847 -16291086.69646  20979053.0394                   20979050.1054
 -31762274.68146 -24731950.08943  24303219.0554                   24303217.8484
 -19612879.17348 -15266654.33747  20300519.8134                   20300516.9774
 -33989539.54447 -26468398.82746  21215617.5394                   21215612.6214
 11  8  3  2 56  0.0000000  0  7G29G25G10G12G04G05G02
  12949152.65847  10103408.51944  23398640.1954                   23398639.0704
  -3925139.47448  -3043014.98246  21775793.3754                   21775792.8754
 -20968962.09947 -16322926.84744  22410225.3834                   22410222.8794
 -20960262.91048 -16317058.80246  20972710.1644                   20972707.4494
 -31750590.66146 -24722845.63342  24305442.2344                   24305442.0634
 -19690137.96548 -15326855.97447  20285817.8594                   20285814.9924
 -34024617.86548 -26495732.58546  21208942.3984                   21208937.6884
 11  8  3  2 56 30.0000000  0  7G29G25G10G12G04G05G02
  12797149.77647   9984964.80144  23369715.6954                   23369713.9024
  -4025662.64848  -3121344.69846  21756663.9844                   21756664.0004
 -20949289.69047 -16307597.69345  22413969.3204                   22413966.1644
 -20993059.21148 -16342614.38046  20966468.8984                   20966466.6214
 -31738966.85246 -24713788.14043  24307655.1884                   24307654.0554
 -19766828.05848 -15386614.47747  20271224.2734                   20271221.5744
 -34059583.86248 -26522978.79846  21202288.4304                   21202283.5004
 11  8  3  2 57  0.0000000  0  8G29G25G10G26G12G04G05G02
  12645136.20647   9866512.75644  23340787.9534                   23340786.6454
  -4125634.21747  -3199244.59846  21737640.4224                   21737640.1334
 -20929288.23147 -16292012.16344  22417775.5394                   22417772.4614
  24967033.85856  19469215.14453  24775252.8204                   24775252.4104
 -21025325.12148 -16367756.65846  20960329.3594                   20960327.0474
 -31727406.72146 -24704780.27243  24309854.7734                   24309853.2664
 -19842952.74248 -15445932.39547  20256737.9694                   20256735.5004
 -34094440.74648 -26550139.99746  21195655.2664                   21195651.0124
 11  8  3  2 57 30.0000000  0  8G29G25G10G26G12G04G05G02
  12493109.57447   9748050.52244  23311858.7344                   23311857.4924
  -4225056.83348  -3276716.73246  21718720.9614                   21718720.7504
 -20908964.28347 -16276175.30044  22421643.0634                   22421640.1564
  24804152.65446  19342294.80343  24744257.8984                   24744256.0784
 -21057065.92448 -16392489.75446  20954289.1254                   20954286.4844
 -31715913.93346 -24695824.83043  24312041.9384                   24312040.4224
 -19918515.30248 -15504812.29947  20242358.7894                   20242355.7234
 -34129192.81248 -26577219.51946  21189042.3674                   21189037.2504
 11  8  3  2 58  0.0000000  0  8G29G25G10G26G12G04G05G02
  12341067.68647   9629576.35345  23282926.2114                   23282924.2854
  -4323933.10648  -3353763.14846  21699905.6564                   21699904.9384
 -20888324.34047 -16260092.21244  22425569.5944                   22425568.1764
  24641131.17446  19215265.22643  24713236.3754                   24713235.2234
 -21088286.30648 -16416817.33746  20948348.5944                   20948345.2544
 -31704492.52847 -24686925.03643  24314215.3674                   24314213.1804
 -19993520.43048 -15563257.83747  20228085.8444                   20228083.4104
 -34163844.26948 -26604220.64346  21182448.0474                   21182443.4774
 11  8  3  2 58 30.0000000  0  8G29G25G10G26G12G04G05G02
  12189014.22347   9511093.22844  23253990.2584                   23253989.4534
  -4422259.81047  -3430381.32146  21681194.4614                   21681193.9804
 -20867368.99347 -16243763.38144  22429558.5554                   22429555.3954
  24477974.31046  19088130.05743  24682188.5164                   24682186.5904
 -21118985.92248 -16440739.11746  20942506.3524                   20942503.4654
 -31693140.42246 -24678079.28043  24316375.7194                   24316374.2664
 -20067965.45048 -15621266.93747  20213919.7664                   20213917.1994
 -34198393.20048 -26631141.86946  21175873.8524                   21175869.1844
 11  8  3  2 59  0.0000000  0  8G29G25G10G26G12G04G05G02
  12036954.10347   9392604.87744  23225055.0944                   23225053.5474
  -4520032.42247  -3506567.74746  21662588.8444                   21662588.9614
 -20846097.37846 -16227188.09344  22433605.8364                   22433603.0704
  24314688.96246  18960894.78543  24651115.2734                   24651113.2274
 -21149162.21548 -16464253.12646  20936763.6094                   20936760.7624
 -31681854.56946 -24669285.11743  24318523.7424                   24318521.9964
 -20141847.46448 -15678837.32247  20199860.3284                   20199857.8204
 -34232837.03848 -26657981.20846  21169319.7344                   21169315.0664
 11  8  3  2 59 30.0000000  0  8G29G25G10G26G12G04G05G02
  11884890.94547   9274114.18745  23196117.4384                   23196116.2464
  -4617247.60348  -3582319.80946  21644089.3204                   21644088.9414
 -20824510.22947 -16210366.94644  22437713.9694                   22437710.6214
  24151280.20246  18833563.38643  24620019.7344                   24620018.3484
 -21178814.88548 -16487359.12046  20931120.7894                   20931118.0234
 -31670632.87146 -24660540.94743  24320659.1954                   24320657.7074
 -20215164.30248 -15735967.30347  20185908.8054                   20185906.2034
 -34267173.69348 -26684737.03946  21162785.7424                   21162780.6564
 11  8  3  3  0  0.0000000  0  8G29G25G10G26G12G04G05G02
  11732826.80147   9155622.72144  23167181.0704                   23167179.2384
  -4713903.95048  -3657636.42346  21625696.6954                   21625696.0124
 -20802609.58847 -16193301.49944  22441881.6954                   22441878.5634
  23987751.63046  18706138.60943  24588901.3754                   24588900.2774
 -21207944.81048 -16510057.76046  20925578.0784                   20925574.9844
 -31659474.71247 -24651846.29443  24322782.4454                   24322780.4454
 -20287915.97348 -15792656.90647  20172064.4694                   20172061.4414
 -34301403.20248 -26711409.37046  21156271.3134                   21156267.0824
 11  8  3  3  0 30.0000000  0  8G29G25G10G26G12G04G05G02
  11580764.23347   9037132.46244  23138244.1024                   23138242.9694
  -4809999.37148  -3732515.94946  21607410.3524                   21607409.9614
 -20780397.43747 -16175993.33244  22446108.2424                   22446105.7344
  23824107.30346  18578623.60543  24557761.1174                   24557758.0944
 -21236552.35848 -16532349.35746  20920134.0164                   20920130.7854
 -31648379.38546 -24643200.60743  24324893.7114                   24324891.6914
 -20360101.45548 -15848905.32047  20158328.0234                   20158325.0434
 -34335525.04547 -26737997.80646  21149778.4924                   21149774.4414
 11  8  3  3  1  0.0000000  0  8G29G25G10G26G12G04G05G02
  11428706.80947   8918646.21345  23109308.5634                   23109306.6414
  -4905530.87448  -3806956.05246  21589230.9844                   21589230.8284
 -20757874.41447 -16158442.94044  22450393.8834                   22450391.5704
  23660352.46046  18451022.44942  24526600.3984                   24526597.0744
 -21264636.80448 -16554233.35946  20914789.5634                   20914786.4144
 -31637345.16246 -24634602.60043  24326993.0234                   24326992.2464
 -20431719.21748 -15904711.35947  20144699.4144                   20144696.5944
 -34369537.46547 -26764500.97846  21143305.9614                   21143301.1804
 11  8  3  3  1 30.0000000  0  8G29G25G10G26G12G04G05G02
  11276654.94847   8800164.29045  23080374.6414                   23080372.7384
  -5000498.37348  -3880956.67146  21571158.9924                   21571159.0314
 -20735043.92747 -16140652.96444  22454738.4144                   22454736.4224
  23496489.17646  18323336.88742  24495417.5394                   24495415.1604
 -21292200.71148 -16575711.73346  20909544.7734                   20909541.5314
 -31626372.75846 -24626052.66943  24329080.9384                   24329079.4734
 -20502770.24048 -15960075.77547  20131179.0474                   20131176.2234
 -34403441.83647 -26790919.96246  21136854.2424                   21136849.9774
 11  8  3  3  2  0.0000000  0  8G29G25G10G26G12G04G05G02
  12700031.07347   9909288.61444  23351233.6644                   23351232.0474
  -3519482.42948  -2726918.25846  21852987.3204                   21852987.0664
 -19136494.32147 -14895029.88744  22758932.4614                   22758930.0864
  24907941.60346  19423170.07343  24764007.8984                   24764004.7774
 -19743829.39648 -15369188.63046  21204189.3754                   21204186.9844
 -30040047.51846 -23389955.11342  24630948.8364                   24630947.5864
 -18997837.64248 -14787401.00947  20417557.7814                   20417555.1684
 -32861821.92948 -25589657.68546  21430214.9614                   21430210.8094
 11  8  3  3  2 30.0000000  0  8G29G25G10G26G12G04G05G02
  12547988.66747   9790814.09744  23322301.2734                   23322299.4774
  -3613326.13348  -2800043.19746  21835128.6884                   21835128.7304
 -19113064.70747 -14876773.06644  22763390.6094                   22763388.7114
  24743864.26646  19295317.61643  24732785.5474                   24732782.1764
 -19770363.72348 -15389864.73246  21199140.6804                   21199137.6884
 -30029206.25446 -23381507.45243  24633011.6414                   24633009.8594
 -19067763.49348 -14841888.67547  20404251.5554                   20404248.6054
 -32895518.17948 -25615914.49746  21423803.2504                   21423798.5164
 11  8  3  3  3  0.0000000  0  8G29G25G10G26G12G04G05G02
  12395954.10947   9672345.66545  23293370.1024                   23293368.1604
  -3706605.77148  -2872728.60246  21817378.4144                   21817378.1374
 -19089338.58147 -14858285.17944  22767905.9694                   22767903.0314
  24579685.29846  19167386.04343  24701542.4844                   24701540.4184
 -19796384.94348 -15410141.00946  21194188.5864                   21194185.7974
 -30018429.93146 -23373110.34543  24635062.6564                   24635061.5944
 -19137126.53448 -14895937.78847  20391051.8834                   20391049.3094
 -32929110.31147 -25642090.18646  21417410.5784                   21417405.8054
 11  8  3  3  3 30.0000000  0  8G29G25G10G26G12G04G05G02
  12243930.80146   9553886.01445  23264440.8134                   23264439.5124
  -3799318.89548  -2944972.56246  21799736.0314                   21799735.6094
 -19065316.98747 -14839567.07344  22772476.5234                   22772474.6254
  24415409.62246  19039379.13743  24670281.7814                   24670280.2894
 -19821892.55248 -15430017.07546  21189334.8524                   21189332.4104
 -30007717.14746 -23364762.55243  24637101.5234                   24637098.6914
 -19205925.32548 -14949547.22347  20377960.2274                   20377957.2854
 -32962596.88047 -25668183.60346  21411038.4304                   21411032.8674
 11  8  3  3  4  0.0000000  0  8G29G25G10G26G12G04G05G02
  12091917.80347   9435434.39945  23235513.1724                   23235511.1644
  -3891466.89448  -3016776.17846  21782200.8204                   21782200.5984
 -19041005.05447 -14820622.72744  22777103.1804                   22777101.0984
  24251038.04846  18911297.46343  24639003.5084                   24639001.4414
 -19846891.21648 -15449496.55746  21184578.0474                   21184574.6804
 -29997070.06446 -23356466.20443  24639127.4844                   24639125.9614
 -19274162.76748 -15002719.24047  20364975.2814                   20364972.8954
 -32995980.70247 -25694196.96746  21404685.2274                   21404680.3634
 11  8  3  3  4 30.0000000  0  8G29G25G10G26G12G04G05G02
  11939917.94147   9316993.04745  23206588.7664                   23206586.6564
  -3983047.74348  -3088137.87046  21764773.6954                   21764773.3164
 -19016404.37147 -14801453.38544  22781784.6954                   22781782.6844
  24086574.98046  18783144.52143  24607706.4774                   24607705.6844
 -19871380.63448 -15468579.22246  21179917.7584                   21179914.9574
 -29986487.50746 -23348220.05243  24641140.6954                   24641138.9384
 -19341838.12548 -15055453.27847  20352097.0944                   20352094.2424
 -33029260.63547 -25720129.37246  21398352.0394                   21398347.0314
 11  8  3  3  5  0.0000000  0  8G29G25G10G26G12G04G05G02
  11787931.51846   9198562.13645  23177666.7114                   23177665.4024
  -4074062.14648  -3159058.15946  21747454.1334                   21747453.9344
 -18991518.99447 -14782062.17544  22786520.6724                   22786517.7114
  23922022.12247  18654921.56343  24576394.0084                   24576391.2704
 -19895364.16148 -15487267.68646  21175353.8204                   21175351.0314
 -29975971.10646 -23340025.43943  24643142.2974                   24643140.0784
 -19408953.20348 -15107750.71947  20339325.4064                   20339322.2934
 -33062438.81547 -25745982.49446  21392038.6804                   21392033.8444
 11  8  3  3  5 30.0000000  0  8G29G25G10G26G12G04G05G02
  11635959.48946   9080142.46445  23148747.0784                   23148745.4184
  -4164509.81648  -3229536.83846  21730242.6484                   21730241.8714
 -18966352.39547 -14762451.85644  22791309.4924                   22791307.1804
  23757382.27246  18526630.85443  24545062.8524                   24545061.7624
 -19918843.96548 -15505563.65346  21170885.8754                   21170882.8244
 -29965521.39347 -23331882.78643  24645130.7034                   24645129.4804
 -19475509.18848 -15159612.51947  20326660.5084                   20326657.4574
 -33095515.72548 -25771756.72146  21385744.6254                   21385739.2854
 11  8  3  3  6  0.0000000  0  8G29G25G10G26G12G04G05G02
  11484004.48746   8961736.05545  23119830.8914                   23119829.7304
  -4254389.08248  -3299572.60846  21713139.0394                   21713139.0354
 -18940906.14346 -14742623.59644  22796151.6174                   22796149.5784
  23592659.35247  18398275.43144  24513718.0394                   24513715.6644
 -19941820.85048 -15523467.71446  21166513.4694                   21166511.2464
 -29955137.57246 -23323791.48943  24647106.6174                   24647104.9884
 -19541505.44948 -15211038.16247  20314101.6954                   20314098.6254
 -33128490.84247 -25797451.61546  21379469.3364                   21379464.5274
 11  8  3  3  6 30.0000000  0  8G29G25G10G26G12G04G05G02
  11332066.57347   8843342.98245  23090917.9224                   23090916.1644
  -4343700.91948  -3369166.23146  21696143.2974                   21696143.3834
 -18915184.69946 -14722580.91344  22801046.5474                   22801043.4884
  23427855.35447  18269856.78143  24482356.6644                   24482354.6524
 -19964297.28248 -15540981.82646  21162236.1484                   21162233.5234
 -29944821.19146 -23315752.76743  24649069.8284                   24649067.7934
 -19606944.03248 -15262029.25447  20301649.1334                   20301646.4414
 -33161366.43148 -25823068.96546  21373213.2974                   21373208.4884
 11  8  3  3  7  0.0000000  0  8G29G25G10G26G12G04G05G02
  11180148.26847   8724965.16945  23062008.9774                   23062007.1684
  -4432443.81448  -3438316.53046  21679256.4924                   21679256.0204
 -18889190.09747 -14702325.36344  22805993.2664                   22805990.5044
  23262974.21646  18141378.01244  24450980.2424                   24450978.3014
 -19986275.88748 -15558108.01446  21158053.5634                   21158051.1414
 -29934571.50246 -23307765.97943  24651019.8914                   24651019.1604
 -19671825.09548 -15312585.90947  20289302.5864                   20289300.0824
 -33194141.94647 -25848608.33246  21366976.0944                   21366971.2664
 11  8  3  3  7 30.0000000  0  8G29G25G10G26G12G04G05G02
  11028250.81047   8606603.61445  23033103.7034                   23033101.5044
  -4520617.20848  -3507023.03746  21662477.4144                   21662476.9844
 -18862925.01246 -14681859.08944  22810990.9534                   22810988.0274
  23098018.88446  18012841.42243  24419589.8984                   24419588.5274
 -20007758.08548 -15574847.39546  21153966.0554                   21153963.0984
 -29924388.85646 -23299831.44743  24652958.4844                   24652956.6994
 -19736149.20647 -15362708.58247  20277061.9774                   20277059.1254
 -33226817.70647 -25874069.94946  21360758.5784                   21360754.2894
 11  8  3  3  8  0.0000000  0  8G29G25G10G26G12G04G05G02
  10876375.18447   8488259.06045  23004202.4924                   23004201.2854
  -4608221.53448  -3575286.14546  21645806.9614                   21645806.6024
 -18836393.08746 -14661184.85644  22816039.8204                   22816037.4774
  22932991.61247  17884248.84044  24388186.6644                   24388184.4654
 -20028746.02248 -15591201.63846  21149972.2664                   21149969.4964
 -29914274.34846 -23291950.02043  24654882.3834                   24654881.4264
 -19799918.24548 -15412398.73147  20264927.1954                   20264924.1294
 -33259395.04347 -25899454.88246  21354559.2424                   21354554.5044
 11  8  3  3  8 30.0000000  0  8G29G25G10G26G12G04G05G02
  10724522.12847   8369932.09945  22975305.4694                   22975303.9654
  -4695257.25548  -3643106.16046  21629244.5394                   21629244.1994
 -18809598.08546 -14640305.63744  22821139.0004                   22821136.4774
  22767894.57146  17755601.81643  24356770.3204                   24356767.8984
 -20049242.73348 -15607173.11146  21146071.7814                   21146069.0234
 -29904228.86946 -23284122.47643  24656793.7114                   24656792.9384
 -19863133.79448 -15461657.57647  20252897.6804                   20252894.5474
 -33291875.33748 -25924764.19746  21348378.1024                   21348373.6954
 11  8  3  3  9  0.0000000  0  7G29G25G10G26G12G05G02
  10572691.99346   8251622.98745  22946413.7274                   22946412.0164
  -4781724.68548  -3710483.36646  21612790.2114                   21612789.6884
 -18782543.75646 -14619224.37044  22826287.1484                   22826284.6994
  22602730.28046  17626902.45643  24325339.7894                   24325337.7234
 -20069250.81148 -15622763.83046  21142264.3284                   21142260.9884
 -19925797.46848 -15510486.40447  20240973.2194                   20240970.0354
 -33324259.56748 -25949998.65846  21342215.9304                   21342210.8324
 11  8  3  3  9 30.0000000  0  7G29G25G10G26G12G05G02
  10420889.18747   8133335.19845  22917526.3524                   22917524.0274
  -4867620.80648  -3777415.39346  21596444.4304                   21596444.4884
 -18755230.65746 -14597941.45244  22831484.5234                   22831482.4654
  22437504.46846  17498155.11443  24293897.7584                   24293896.0784
 -20088770.02948 -15637973.61946  21138549.7114                   21138546.9224
 -19987907.20248 -15558883.58447  20229154.2114                   20229151.3244
 -33356546.06348 -25975156.95946  21336071.7584                   21336067.2114
 11  8  3  3 10  0.0000000  0  7G29G25G10G26G12G05G02
  10269122.28647   8015075.33945  22888646.1564                   22888644.1764
  -4952938.02248  -3843896.32846  21580209.4774                   21580209.1334
 -18727654.12646 -14576453.22744  22836732.4694                   22836729.8054
  22272227.28846  17369367.76643  24262446.7894                   24262444.8984
 -20107795.37248 -15652798.56846  21134929.5394                   21134927.0314
 -20049456.93648 -15606844.40347  20217441.5554                   20217438.5434
 -33388727.73647 -26000233.58246  21329948.0004                   21329943.0394
 11  8  3  3 10 30.0000000  0  7G29G25G10G26G12G05G02
  10117394.50147   7896845.99045  22859772.7344                   22859771.2734
  -5037674.58848  -3909924.79946  21564084.6254                   21564084.3204
 -18699815.96247 -14554761.16944  22842029.7814                   22842027.8794
  22106903.50846  17240544.17943  24230986.4534                   24230983.4694
 -20126326.99848 -15667238.79446  21131403.4924                   21131400.3634
 -20110445.98048 -15654368.32447  20205835.6644                   20205832.7424
 -33420803.44147 -26025227.63946  21323843.9694                   21323839.4534
 11  8  3  3 11  0.0000000  0  7G29G25G10G26G12G05G02
   9965703.40947   7778645.21345  22830907.6484                   22830905.3284
  -5121834.20148  -3975503.70646  21548069.6724                   21548068.9384
 -18671722.75447 -14532870.38244  22847375.3054                   22847373.1954
  21941532.33246  17111683.47342  24199517.8134                   24199514.1334
 -20144370.95448 -15681299.02346  21127969.6024                   21127966.8054
 -20170879.28848 -15701459.20047  20194335.3914                   20194332.6604
 -33452777.71848 -26050142.65446  21317760.0314                   21317754.9964
 11  8  3  3 11 30.0000000  0  7G29G25G10G26G12G05G02
   9814045.40447   7660470.21445  22802047.8914                   22802045.4884
  -5205421.44648  -4040636.62246  21532163.7034                   21532163.3484
 -18643382.46147 -14510787.03844  22852768.4384                   22852766.6024
  21776111.89746  16982784.49643  24168039.7504                   24168037.0784
 -20161934.42848 -15694984.85846  21124627.0004                   21124624.5554
 -20230762.83148 -15748121.69647  20182940.1644                   20182937.5124
 -33484656.19448 -26074983.02146  21311693.8984                   21311688.0634
 11  8  3  3 12  0.0000000  0  7G29G25G10G26G12G05G02
   9662423.82647   7542323.62845  22773195.0004                   22773193.0514
  -5288434.40748  -4105322.03246  21516367.0004                   21516366.3324
 -18614796.05847 -14488511.93844  22858208.6414                   22858206.4104
  21610647.25146  16853851.02143  24136551.7584                   24136550.6024
 -20179017.17548 -15708296.10146  21121376.3204                   21121373.6994
 -20290095.92748 -15794355.26447  20171649.2274                   20171646.6644
 -33516437.37148 -26099747.56346  21305645.4694                   21305640.5864
 11  8  3  3 12 30.0000000  0  7G29G25G10G26G12G05G02
   9510839.12447   7424205.74245  22744349.4774                   22744347.1524
  -5370874.20748  -4169560.83846  21500678.9844                   21500678.5124
 -18585967.91247 -14466048.44944  22863694.0784                   22863691.1374
  21445140.07246  16724884.52643  24105057.6564                   24105055.0394
 -20195623.48248 -15721236.07946  21118216.1884                   21118213.2974
 -20348880.75248 -15840161.60347  20160462.8054                   20160460.0904
 -33548122.94648 -26124437.61846  21299616.2274                   21299611.6054
 11  8  3  3 13  0.0000000  0  7G29G25G10G26G12G05G02
   9359289.15947   7306114.93745  22715509.6484                   22715508.2114
  -5452744.49748  -4233355.84746  21485099.0164                   21485098.8094
 -18556904.45047 -14443401.58244  22869224.5474                   22869221.9384
  21279589.60446  16595884.18143  24073553.5864                   24073551.6604
 -20211759.22648 -15733809.39846  21115145.9224                   21115142.8324
 -20407122.13048 -15885544.47547  20149379.7344                   20149377.1094
 -33579717.38948 -26149056.64846  21293603.7974                   21293598.8954
 11  8  3  3 13 30.0000000  0  7G29G25G10G26G12G05G02
  10783199.11647   8415655.21545  22986471.0704                   22986469.0234
  -3958623.68348  -3069105.87046  21769421.1804                   21769420.5864
 -16952191.11147 -13192975.61244  23174591.5004                   23174589.3364
  22689423.51846  17694456.10743  24341836.9224                   24341834.8404
 -18652007.43548 -14518418.38646  21411957.1254                   21411954.0664
 -18889400.63248 -14702904.33947  20438192.7424                   20438189.9924
 -32035801.06548 -24946004.95846  21587401.7664                   21587397.1884
 11  8  3  3 14  0.0000000  0  7G29G25G10G26G12G05G02
  10631721.55747   8297620.81145  22957646.1334                   22957644.0474
  -4039356.07948  -3132014.21546  21754058.1804                   21754057.8714
 -16922667.71047 -13169970.37344  23180209.6884                   23180207.4694
  22523794.88446  17565394.86443  24310318.0474                   24310316.8484
 -18667209.71848 -14530264.33246  21409063.7664                   21409061.0824
 -18946560.28148 -14747444.29847  20427315.5314                   20427312.9454
 -32067215.80148 -24970483.97446  21581423.1644                   21581418.4884
 11  8  3  3 14 30.0000000  0  7G29G25G10G26G12G05G02
  10480281.29347   8179615.47745  22928827.6174                   22928825.5474
  -4119520.78048  -3194480.20546  21738803.2194                   21738802.7154
 -16892920.11947 -13146790.44144  23185870.8364                   23185868.5744
  22358130.33146  17436305.65143  24278793.2034                   24278791.6724
 -18681950.25048 -14541750.47346  21406258.9454                   21406255.9064
 -19003182.32048 -14791565.35947  20416540.9384                   20416538.1844
 -32098542.66448 -24994894.50346  21575462.2034                   21575457.3714
 11  8  3  3 15  0.0000000  0  7G29G25G10G26G12G05G02
  10328880.07447   8061640.55845  22900017.3834                   22900015.1994
  -4199117.11848  -3256503.30946  21723656.6884                   21723656.1134
 -16862950.64846 -13123437.64544  23191574.0554                   23191571.2544
  22192433.72146  17307191.43744  24247262.2344                   24247260.6054
 -18696230.56348 -14552878.00146  21403541.3754                   21403538.4144
 -19059266.85648 -14835267.58547  20405868.3134                   20405865.6524
 -32129781.45648 -25019236.42246  21569517.7424                   21569512.7894
 11  8  3  3 15 30.0000000  0  7G29G25G10G26G12G05G02
  10177520.45847   7943698.06645  22871214.1884                   22871212.6954
  -4278144.39348  -3318082.99246  21708618.1414                   21708618.2154
 -16832761.59546 -13099913.69044  23197318.1414                   23197315.9344
  22026709.16346  17178055.45843  24215726.0314                   24215724.4924
 -18710051.94448 -14563647.90346  21400911.4454                   21400908.3134
 -19114814.56648 -14878551.50347  20395297.9384                   20395295.0234
 -32160931.89448 -25043509.48246  21563589.9224                   21563585.2344
 11  8  3  3 16  0.0000000  0  7G29G25G10G26G12G05G02
  10026208.64447   7825792.81645  22842420.3364                   22842418.2304
  -4356598.16648  -3379215.79446  21693688.8364                   21693688.7894
 -16802351.50447 -13076217.48744  23203104.8284                   23203103.0314
  21860964.22947  17048903.57544  24184186.2344                   24184184.7734
 -18723412.39848 -14574058.66346  21398368.7194                   21398366.0164
 -19169822.11148 -14921414.51247  20384830.1094                   20384827.5274
 -32191990.05848 -25067710.63546  21557679.5864                   21557675.1524
 11  8  3  3 16 30.0000000  0  7G29G25G10G26G12G05G02
   9874943.64647   7707924.05845  22813635.5314                   22813633.6644
  -4434481.05748  -3439903.75746  21678868.5944                   21678868.0434
 -16771725.77346 -13052353.32144  23208932.6254                   23208930.3364
  21695199.41846  16919736.23644  24152641.6564                   24152639.8484
 -18736317.20648 -14584114.36046  21395913.3594                   21395909.9924
 -19224293.30948 -14963859.59347  20374464.4774                   20374461.7344
 -32222959.08648 -25091842.35546  21551786.4304                   21551781.5234
 11  8  3  3 17  0.0000000  0  7G29G25G10G26G12G05G02
   9723726.13547   7590092.28645  22784859.4144                   22784857.4774
  -4511794.26548  -3500147.80646  21664156.2034                   21664155.9104
 -16740888.21947 -13028324.04743  23214800.9924                   23214799.3634
  21529416.71746  16790554.95844  24121094.7894                   24121092.9534
 -18748769.57148 -14593817.52046  21393543.8594                   21393540.6764
 -19278230.68048 -15005888.70247  20364200.5554                   20364197.7814
 -32253840.12948 -25115905.48346  21545910.0474                   21545905.1884
 11  8  3  3 17 30.0000000  0  7G29G25G10G26G12G05G02
   9572558.29947   7472299.23145  22756093.5944                   22756091.3674
  -4588537.10848  -3559947.41646  21649552.4534                   21649552.8244
 -16709841.20347 -13004131.58443  23220709.2584                   23220706.1684
  21363620.25246  16661362.88643  24089544.7974                   24089542.9654
 -18760770.78448 -14603169.11246  21391259.6644                   21391256.6484
 -19331634.76448 -15047502.25447  20354038.0784                   20354035.2464
 -32284633.03848 -25139899.96246  21540050.6804                   21540045.1604
 11  8  3  3 18  0.0000000  0  7G29G25G10G26G12G05G02
   9421442.40347   7354546.65245  22727337.1484                   22727334.9144
  -4664708.87748  -3619302.02646  21635057.4774                   21635057.2234
 -16678586.42047 -12979777.23243  23226656.7034                   23226654.4534
  21197813.88246  16532163.14543  24057992.6024                   24057990.8204
 -18772322.83348 -14612170.72446  21389061.2734                   21389058.6294
 -19384505.92448 -15088700.54947  20343977.1484                   20343974.5664
 -32315337.29548 -25163825.34846  21534207.4774                   21534202.5634
 11  8  3  3 18 30.0000000  0  7G29G25G10G26G12G05G02
   9270379.09147   7236835.06245  22698590.6174                   22698588.8164
  -4740310.99448  -3678212.75746  21620670.5084                   21620670.1764
 -16647128.40647 -12955264.49544  23232643.5314                   23232641.2584
  21031999.96346  16402957.59243  24026438.7664                   24026437.2544
 -18783429.27948 -14620825.09646  21386948.2344                   21386944.9494
 -19436846.84748 -15129485.67347  20334017.2114                   20334014.6174
 -32345954.68448 -25187683.04746  21528381.4304                   21528376.7664
 11  8  3  3 19  0.0000000  0  7G29G25G10G26G12G05G02
   9119369.64647   7119165.43945  22669854.8444                   22669852.3874
  -4815343.76848  -3736679.85146  21606392.5164                   21606392.4184
 -16615470.30947 -12930595.84644  23238667.8054                   23238665.0634
  20866181.57146  16273748.48143  23994884.3674                   23994882.5904
 -18794092.35947 -14629133.99346  21384918.9454                   21384915.8444
 -19488658.86948 -15169858.66847  20324157.5944                   20324154.2504
 -32376485.77148 -25211473.49946  21522571.0784                   21522566.5664
 11  8  3  3 19 30.0000000  0  7G29G25G10G26G12G05G02
   8968417.35047   7001540.34645  22641128.8984                   22641126.5274
  -4889806.01648  -3794702.36146  21592222.7274                   21592222.7814
 -16583613.33447 -12905772.23344  23244730.0864                   23244727.3714
  20700363.15146  16144539.31343  23963331.2424                   23963327.4064
 -18804313.44247 -14637098.48546  21382973.9454                   21382971.2234
 -19539942.02748 -15209819.57147  20314398.9924                   20314395.5594
 -32406929.61048 -25235195.96846  21516777.8134                   21516773.0204
 11  8  3  3 20  0.0000000  0  7G29G25G10G26G12G05G02
   8817523.23147   6883960.58145  22612415.0394                   22612412.1524
  -4963698.57048  -3852280.96946  21578161.7734                   21578161.5044
 -16551560.86747 -12880796.31044  23250829.0784                   23250827.0164
  20534547.46546  16015332.32743  23931777.0944                   23931774.8554
 -18814095.36648 -14644720.77846  21381112.5234                   21381109.7934
 -19590698.42948 -15249370.00847  20304739.7734                   20304736.9694
 -32437286.99748 -25258851.06646  21511001.2034                   21510996.3754
 11  8  3  3 20 30.0000000  0  7G29G25G10G26G12G05G02
   8666688.31847   6766426.94345  22583711.9694                   22583710.0944
  -5037022.16048  -3909416.22646  21564208.4844                   21564208.5044
 -16519316.50147 -12855670.82644  23256965.4224                   23256962.6134
  20368737.22247  15886129.54743  23900224.4224                   23900221.9924
 -18823440.83448 -14652002.96846  21379334.0084                   21379331.6054
 -19640930.00148 -15288511.47947  20295181.5234                   20295178.7704
 -32467558.64848 -25282439.36246  21505240.6094                   21505235.7664
 11  8  3  3 21  0.0000000  0  7G29G25G10G26G12G05G02
   8515915.75647   6648941.90745  22555020.8594                   22555019.1214
  -5109775.91448  -3966107.45446  21550364.1644                   21550363.6954
 -16486881.87747 -12830397.11744  23263137.2584                   23263134.6054
  20202936.89247  15756934.54243  23868673.5554                   23868670.9694
 -18832351.72948 -14658946.53246  21377638.5394                   21377635.6914
 -19690636.67548 -15327243.93447  20285722.5394                   20285719.6764
 -32497743.78148 -25305960.23446  21499496.4454                   21499491.8794
 11  8  3  3 21 30.0000000  0  7G29G25G10G26G12G05G02
   8365207.32247   6531506.83445  22526341.6414                   22526339.9964
  -5181960.12348  -4022354.88646  21536627.8674                   21536627.5824
 -16454259.64847 -12804977.18744  23269345.0634                   23269343.1954
  20037149.85347  15627749.87943  23837125.5004                   23837122.5904
 -18840829.95848 -14665552.95746  21376025.3834                   21376022.6094
 -19739819.92548 -15365568.52947  20276363.3134                   20276360.2304
 -32527842.82748 -25329414.04346  21493768.9064                   21493763.9734
 11  8  3  3 22  0.0000000  0  7G29G25G10G26G12G05G02
   8214563.31347   6414121.95945  22497675.4454                   22497673.1454
  -5253576.20348  -4078159.60446  21522999.8284                   21522999.4614
 -16421453.87147 -12779414.28144  23275587.4924                   23275585.6684
  19871378.37847  15498577.32543  23805580.8284                   23805578.3984
 -18848879.69448 -14671825.47346  21374493.4224                   21374490.3404
 -19788482.16448 -15403487.14047  20267102.9924                   20267100.0124
 -32557857.07148 -25352801.75246  21488057.7734                   21488052.7344
 11  8  3  3 22 30.0000000  0  7G29G25G10G26G12G05G02
   8063988.17047   6296790.73745  22469021.4694                   22469019.5164
  -5324621.93348  -4133519.90446  21509480.1254                   21509479.8164
 -16388465.15047 -12753708.81344  23281865.2194                   23281863.2274
  19705628.11847  15369421.30044  23774038.9304                   23774036.0554
 -18856500.65848 -14677763.88746  21373043.2274                   21373040.7544
 -19836622.36648 -15440998.98547  20257942.0164                   20257939.4064
 -32587784.60648 -25376121.91246  21482362.4534                   21482357.7074
 11  8  3  3 23  0.0000000  0  7G29G25G10G26G12G05G02
   7913485.26647   6179515.79845  22440381.8444                   22440379.1914
  -5395096.00548  -4188434.74946  21496069.2734                   21496069.3244
 -16355294.32947 -12727861.42444  23288177.4384                   23288174.8164
  19539904.35247  15240285.94744  23742503.0234                   23742500.6764
 -18863693.48548 -14683368.70246  21371674.1804                   21371671.5824
 -19884240.60948 -15478104.10047  20248880.7974                   20248877.9654
 -32617623.86848 -25399373.27146  21476684.1804                   21476679.6914
 11  8  3  3 23 30.0000000  0  7G29G25G10G26G12G05G02
   7763055.08247   6062297.52945  22411756.0474                   22411753.5044
  -5465000.17148  -4242905.52646  21482767.2504                   21482767.2114
 -16321945.42747 -12701875.29643  23294523.7504                   23294521.4344
  19374208.92346  15111172.65744  23710972.1414                   23710969.8324
 -18870462.03248 -14688642.90246  21370386.3834                   21370383.3014
 -19931339.68948 -15514804.66347  20239918.1254                   20239915.5594
 -32647376.56348 -25422557.19346  21471022.2974                   21471017.3484
 11  8  3  3 24  0.0000000  0  7G29G25G10G26G12G05G02
   7612697.96047   5945136.19945  22383144.0234                   22383141.7504
  -5534336.36048  -4296933.70246  21469572.6254                   21469572.3284
 -16288423.26047 -12675754.14743  23300902.2424                   23300900.3874
  19208543.82246  14982082.99444  23679447.1804                   23679445.2154
 -18876810.41648 -14693589.69046  21369178.5394                   21369175.5394
 -19977922.79448 -15551103.18047  20231053.8984                   20231051.1054
 -32677044.42648 -25445674.99946  21465377.0864                   21465372.1094
 11  8  3  3 24 30.0000000  0  7G29G25G10G26G12G05G02
   7462414.22147   5828032.03045  22354545.6094                   22354543.4414
  -5603106.48448  -4350520.80746  21456486.0634                   21456485.9534
 -16254732.02847 -12649501.27143  23307314.1254                   23307311.5124
  19042910.82146  14853018.36543  23647927.9614                   23647925.7544
 -18882742.72948 -14698212.28646  21368049.6254                   21368046.8404
 -20023992.55748 -15587001.68347  20222286.8984                   20222283.9844
 -32706629.03248 -25468727.95246  21459746.8594                   21459742.3714
 11  8  3  3 25  0.0000000  0  7G29G25G10G26G12G05G02
   8887633.61447   6938592.65045  22625756.5554                   22625753.7584
  -4095885.86148  -3176063.16246  21743300.7194                   21743300.2664
 -14645452.60147 -11395517.31643  23613549.6954                   23613547.5394
  20452741.60746  15951587.84943  23916209.5394                   23916207.4804
 -17312838.35848 -13474910.17746  21666792.4144                   21666789.8874
 -18494126.02348 -14394897.88447  20513411.2034                   20513407.2304
 -31160706.84348 -24264113.26046  21753926.4534                   21753921.6884
 11  8  3  3 25 30.0000000  0  7G29G25G10G26G12G05G02
   8737506.02847   6821610.16345  22597187.8594                   22597185.2304
  -4163521.01648  -3228765.88146  21730430.1484                   21730429.9654
 -14611427.00247 -11369003.86143  23620024.7274                   23620021.6294
  20287187.21046  15822584.46344  23884705.6804                   23884703.0634
 -17317941.83648 -13478886.92246  21665821.1024                   21665818.4884
 -18539169.75848 -14429996.88947  20504839.2034                   20504836.4454
 -31190121.68448 -24287033.91946  21748329.0554                   21748324.0044
 11  8  3  3 26  0.0000000  0  7G29G25G10G26G12G05G02
   8587460.95647   6704691.97745  22568635.1644                   22568632.9304
  -4230587.58148  -3281025.52946  21717667.9694                   21717667.4414
 -14577236.56247 -11342361.97643  23626530.9064                   23626528.2234
  20121679.08046  15693617.16943  23853209.4064                   23853208.6564
 -17322633.05748 -13482542.42546  21664928.5784                   21664926.1604
 -18583701.00048 -14464696.55347  20496365.1564                   20496361.8244
 -31219450.26147 -24309887.35546  21742747.7194                   21742742.6724
 11  8  3  3 26 30.0000000  0  7G29G25G10G26G12G05G02
   8437499.70147   6587839.10045  22540098.4064                   22540096.2384
  -4297086.97648  -3332843.23546  21705013.0234                   21705013.1454
 -14542884.83747 -11315594.39043  23633067.2734                   23633065.0084
  19956219.86846  15564687.95043  23821724.0634                   23821722.4494
 -17326915.24247 -13485879.21246  21664114.0004                   21664111.0704
 -18627721.94748 -14498998.58047  20487988.4144                   20487985.5234
 -31248693.66348 -24332674.42646  21737182.7034                   21737178.0234
 11  8  3  3 27  0.0000000  0  7G29G25G10G26G12G05G02
   8287623.80647   6471052.73545  22511577.7274                   22511575.7544
  -4363019.96048  -3384219.57346  21692466.6724                   21692466.5314
 -14508374.73247 -11288703.38244  23639635.1804                   23639632.3484
  19790812.68647  15435799.29943  23790248.2424                   23790246.9964
 -17330791.24848 -13488899.47146  21663376.0474                   21663373.7774
 -18671235.14448 -14532904.95747  20479708.0704                   20479705.1914
 -31277852.34948 -24355395.49146  21731634.2584                   21731630.1604
 11  8  3  3 27 30.0000000  0  7G29G25G10G26G12G05G02
   8137832.59547   6354332.36145  22483073.2664                   22483071.1604
  -4428389.33848  -3435156.73846  21680027.5234                   21680027.6374
 -14473711.20947 -11261692.85443  23646230.9064                   23646228.3094
  19625458.86047  15306952.17144  23758783.1644                   23758780.5744
 -17334265.71248 -13491606.84746  21662714.9454                   21662711.7344
 -18714243.56748 -14566418.00847  20471523.6884                   20471520.8834
 -31306928.74148 -24378052.42346  21726101.0554                   21726096.1054
 11  8  3  3 28  0.0000000  0  8G29G25G10G26G12G15G05G02
   7988129.28847   6237680.48445  22454585.8524                   22454583.8754
  -4493194.73648  -3485654.45246  21667695.2734                   21667695.0314
 -14438896.07647 -11234564.12543  23652856.5004                   23652853.4104
  19460162.64647  15178149.96744  23727328.1564                   23727325.7894
 -17337340.71748 -13494002.96546  21662129.8134                   21662127.4304
  29691844.11056  23150997.62653  24681725.0004                   24681721.7584
 -18756748.24548 -14599538.53647  20463435.2504                   20463432.5784
 -31335922.01248 -24400644.58546  21720583.7734                   21720579.1374
 11  8  3  3 28 30.0000000  0  8G29G25G10G26G12G15G05G02
   7838510.47447   6121094.44145  22426113.9844                   22426111.8164
  -4557442.09448  -3535717.31646  21655469.5084                   21655469.2464
 -14403937.50347 -11207323.72244  23659508.5164                   23659506.0904
  19294922.36647  15049391.34644  23695883.5944                   23695881.4224
 -17340024.14147 -13496093.95346  21661618.9614                   21661616.1094
  29527953.33946  23023290.60943  24650536.5164                   24650533.8834
 -18798756.09948 -14632271.91847  20455441.9064                   20455438.3054
 -31364837.69947 -24423176.30346  21715081.3284                   21715076.6334
 11  8  3  3 29  0.0000000  0  8G29G25G10G26G12G15G05G02
   7688975.67747   6004573.86445  22397658.5554                   22397656.8954
  -4621134.38148  -3585347.66246  21643349.3524                   21643348.8834
 -14368840.35847 -11179975.26943  23666187.1024                   23666184.6024
  19129739.08647  14920677.12144  23664450.6094                   23664448.8284
 -17342320.93547 -13497883.66946  21661181.9614                   21661179.3164
  29363921.18846  22895473.47243  24619322.0634                   24619318.8284
 -18840271.08948 -14664621.26047  20447541.7504                   20447538.3714
 -31393678.27747 -24445649.49646  21709593.0004                   21709588.6414
 11  8  3  3 29 30.0000000  0  8G29G25G10G26G12G15G05G02
   7539529.16947   5888122.09145  22369219.6174                   22369217.3714
  -4684269.90748  -3634544.17746  21631335.0394                   21631334.3364
 -14333605.23747 -11152519.30443  23672892.4844                   23672889.3324
  18964618.58647  14792011.82344  23633029.7344                   23633026.9614
 -17344230.75347 -13499371.84346  21660818.6254                   21660815.8714
  29199752.34645  22767549.71142  24588082.0164                   24588077.7074
 -18881292.76248 -14696586.19047  20439735.3134                   20439732.4694
 -31422441.65648 -24468062.52746  21704119.7344                   21704114.8134
 11  8  3  3 30  0.0000000  0  8G29G25G10G26G12G15G05G02
   7390177.42947   5771744.16645  22340799.1094                   22340796.7544
  -4746844.59548  -3683303.65746  21619427.1174                   21619427.6954
 -14298229.99146 -11124954.17843  23679623.9144                   23679621.4654
  18799569.26547  14663401.99044  23601620.7504                   23601619.6884
 -17345752.03847 -13500557.27746  21660529.0704                   21660526.6254
  29035454.41946  22639525.39343  24556816.7194                   24556815.3134
 -18921817.96648 -14728164.25147  20432023.4614                   20432020.9574
 -31451123.05548 -24490411.67946  21698661.7274                   21698657.0634
 11  8  3  3 30 30.0000000  0  8G29G25G10G26G12G15G05G02
   7240925.23447   5655443.79045  22312397.2584                   22312395.1564
  -4808856.31348  -3731624.47846  21607626.5004                   21607626.4774
 -14262714.37846 -11097279.74443  23686382.0554                   23686380.1804
  18634597.29347  14534852.43243  23570227.7974                   23570225.8524
 -17346884.57547 -13501439.79046  21660313.6094                   21660311.3134
  28871032.60846  22511404.71843  24525528.3364                   24525526.3524
 -18961845.24948 -14759354.34847  20424406.4454                   20424403.1294
 -31479719.79148 -24512694.85746  21693219.8594                   21693215.8714
 11  8  3  3 31  0.0000000  0  8G29G25G10G26G12G15G05G02
   7091776.62747   5539224.14445  22284015.8134                   22284012.6804
  -4870303.90748  -3779505.71846  21595933.9304                   21595933.5704
 -14227059.20846 -11069496.47543  23693167.4064                   23693164.3164
  18469708.33247  14406367.58744  23538849.9304                   23538848.4224
 -17347629.30547 -13502020.10546  21660171.4694                   21660168.8914
  28706491.40647  22383190.88543  24494217.8674                   24494216.1054
 -19001374.51048 -14790156.35147  20416884.5864                   20416881.1914
 -31508230.17648 -24534910.75146  21687794.5234                   21687789.7034
 11  8  3  3 31 30.0000000  0  8G29G25G10G26G12G15G05G02
   6942732.01147   5423085.49945  22255652.7734                   22255650.7704
  -4931189.62748  -3826949.12846  21584347.7194                   21584347.1134
 -14191268.57446 -11041607.69443  23699977.7344                   23699975.6174
  18304904.31147  14277948.94244  23507489.4534                   23507488.1644
 -17347990.37947 -13502301.46246  21660103.3524                   21660100.0594
  28541831.94747  22254884.88744  24462884.0474                   24462882.4494
 -19040409.26348 -14820573.04347  20409456.6174                   20409453.1604
 -31536655.79847 -24557060.58946  21682385.4224                   21682380.8634
 11  8  3  3 32  0.0000000  0  8G29G25G10G26G12G15G05G02
   6793794.93547   5307030.68345  22227311.4454                   22227308.6914
  -4991512.51148  -3873953.97346  21572868.2504                   21572867.8834
 -14155343.59646 -11013614.20643  23706813.6024                   23706812.1524
  18140190.39847  14149600.47644  23476145.3054                   23476144.1954
 -17347968.45047 -13502284.38146  21660107.5084                   21660104.5904
  28377058.38346  22126489.99844  24431529.2734                   24431526.8054
 -19078949.53148 -14850604.41047  20402122.4304                   20402119.6804
 -31564995.19447 -24579143.24846  21676992.8914                   21676988.2074
 11  8  3  3 32 30.0000000  0  8G29G25G10G26G12G15G05G02
   6644967.03947   5191060.92645  22198990.1094                   22198987.3244
  -5051273.82448  -3920521.22446  21561496.2034                   21561495.7624
 -14119287.43546 -10985518.52943  23713675.3914                   23713673.3554
  17975569.86647  14021324.79844  23444819.0864                   23444816.0704
 -17347566.85047 -13501971.45246  21660183.6724                   21660180.7584
  28212172.83547  21998007.82144  24400152.7814                   24400149.9844
 -19116997.30948 -14880252.02647  20394882.4384                   20394879.2544
 -31593248.99147 -24601159.21346  21671616.0784                   21671611.9184
